[[{"header":{"parameterUnit":"m.s-1","parameterCategory":1,"la1":30.6,"la2":29.2853,"lo1":-89.7004,"lo2":-87.6739,"dy":0.0162,"dx":0.0183,"nx":112,"ny":82,"refTime":"2024-05-01T12:00:00:Z","depth":0,"parameterNumber":2,"parameterNumberName":"U-component_of_WINDS"},"data":[0.0,0.0,0.0,0.0,0.0,0.0,0.0,0.0,0.0,0.0,0.0,0.0,0.0,0.0,0.0,0.0,0.0,0.0,0.0,0.0,0.0,0.0,0.0,0.0,0.0,0.0,0.0,0.0,0.0,0.0,0.0,0.0,0.0,0.0,0.0,0.0,0.0,0.0,0.0,0.0,0.0,0.0,0.0,0.0,0.0,0.0,0.0,0.0,0.0,0.0,0.0,0.0,0.0,0.0,0.0,0.0,0.0,0.0,0.0,0.0,0.0,0.0,0.0,0.0,0.0,0.0,0.0,0.0,0.0,0.0,0.0,0.0,0.0,0.0,0.0,0.0,0.0,0.0,0.0,0.0,0.0,0.0,0.0,0.0,0.0,0.0,0.0,0.0,0.0,0.0,-3.1589,-3.3587,-3.5779,-3.7108,-3.71,-3.6428,-3.4805,-3.1999,0.0,0.0,0.0,0.0,0.0,0.0,0.0,0.0,0.0,0.0,0.0,0.0,0.0,0.0,0.0,0.0,0.0,0.0,0.0,0.0,0.0,0.0,0.0,0.0,0.0,0.0,0.0,0.0,0.0,0.0,0.0,0.0,0.0,0.0,0.0,0.0,0.0,0.0,0.0,0.0,0.0,0.0,0.0,0.0,0.0,0.0,0.0,0.0,0.0,0.0,0.0,0.0,0.0,0.0,0.0,0.0,0.0,0.0,0.0,0.0,0.0,0.0,0.0,0.0,0.0,0.0,0.0,0.0,0.0,0.0,0.0,0.0,0.0,0.0,0.0,0.0,0.0,0.0,0.0,0.0,0.0,0.0,0.0,0.0,0.0,0.0,0.0,0.0,0.0,0.0,0.0,0.0,0.0,0.0,0.0,0.0,0.0,0.0,0.0,0.0,0.0,0.0,0.0,0.0,-3.2106,-3.5267,-3.5953,-3.6208,-3.6207,-3.6089,-3.456,-3.1187,0.0,0.0,0.0,0.0,0.0,0.0,0.0,0.0,0.0,0.0,0.0,0.0,0.0,0.0,0.0,0.0,0.0,0.0,0.0,0.0,0.0,0.0,0.0,0.0,0.0,0.0,0.0,0.0,0.0,0.0,0.0,0.0,0.0,0.0,0.0,0.0,0.0,0.0,0.0,0.0,0.0,0.0,0.0,0.0,0.0,0.0,0.0,0.0,0.0,0.0,0.0,0.0,0.0,0.0,0.0,0.0,0.0,0.0,0.0,0.0,0.0,0.0,0.0,0.0,0.0,0.0,0.0,0.0,0.0,0.0,0.0,0.0,0.0,0.0,0.0,0.0,0.0,0.0,0.0,0.0,0.0,0.0,0.0,0.0,0.0,0.0,0.0,0.0,0.0,0.0,0.0,0.0,0.0,0.0,0.0,0.0,0.0,0.0,0.0,0.0,0.0,0.0,0.0,-3.0741,-3.3221,-3.5722,-3.5996,-3.6191,-3.666,-3.6269,-3.4922,-3.2378,-3.0078,0.0,0.0,0.0,0.0,0.0,0.0,0.0,0.0,0.0,0.0,0.0,0.0,0.0,0.0,0.0,0.0,0.0,0.0,0.0,0.0,0.0,0.0,0.0,0.0,0.0,0.0,0.0,0.0,0.0,0.0,0.0,0.0,0.0,0.0,0.0,0.0,0.0,0.0,0.0,0.0,0.0,0.0,0.0,0.0,0.0,0.0,0.0,0.0,0.0,0.0,0.0,0.0,0.0,0.0,0.0,0.0,0.0,0.0,0.0,0.0,0.0,0.0,0.0,0.0,0.0,0.0,0.0,0.0,0.0,0.0,0.0,0.0,0.0,0.0,0.0,0.0,0.0,0.0,0.0,0.0,0.0,0.0,0.0,0.0,0.0,0.0,0.0,0.0,0.0,0.0,0.0,0.0,0.0,0.0,0.0,0.0,0.0,0.0,0.0,0.0,0.0,0.0,-3.3066,-3.4453,-3.6385,-3.6403,-3.6636,-3.7516,-3.6223,-3.4739,-3.3183,-2.9687,0.0,0.0,0.0,0.0,0.0,0.0,0.0,0.0,0.0,0.0,0.0,0.0,0.0,0.0,0.0,0.0,0.0,0.0,0.0,0.0,0.0,0.0,0.0,0.0,0.0,0.0,0.0,0.0,0.0,0.0,0.0,0.0,0.0,0.0,0.0,0.0,0.0,0.0,0.0,0.0,0.0,0.0,0.0,0.0,0.0,0.0,0.0,0.0,0.0,0.0,0.0,0.0,0.0,0.0,0.0,0.0,0.0,0.0,0.0,0.0,0.0,0.0,0.0,0.0,0.0,0.0,0.0,0.0,0.0,0.0,0.0,0.0,0.0,0.0,0.0,0.0,0.0,0.0,0.0,0.0,0.0,0.0,0.0,0.0,0.0,0.0,0.0,0.0,0.0,0.0,0.0,0.0,0.0,0.0,0.0,0.0,0.0,0.0,0.0,0.0,0.0,0.0,-3.3569,-3.5556,-3.8065,-3.7608,-3.7462,-3.8331,-3.5444,-3.3189,-3.2243,-2.8222,0.0,0.0,0.0,0.0,0.0,0.0,0.0,0.0,0.0,0.0,0.0,0.0,0.0,0.0,0.0,0.0,0.0,0.0,0.0,0.0,0.0,0.0,0.0,0.0,0.0,0.0,0.0,0.0,0.0,0.0,0.0,0.0,0.0,0.0,0.0,0.0,0.0,0.0,0.0,0.0,0.0,0.0,0.0,0.0,0.0,0.0,0.0,0.0,0.0,0.0,0.0,0.0,0.0,0.0,0.0,0.0,0.0,0.0,0.0,0.0,0.0,0.0,0.0,0.0,0.0,0.0,0.0,0.0,0.0,0.0,0.0,0.0,0.0,0.0,0.0,0.0,0.0,0.0,0.0,0.0,0.0,0.0,0.0,0.0,0.0,0.0,0.0,0.0,0.0,0.0,0.0,0.0,0.0,0.0,0.0,0.0,0.0,0.0,0.0,0.0,0.0,0.0,-3.4068,-3.6223,-3.8276,-3.7724,-3.7764,-3.9187,-3.664,-3.4361,-3.2933,0.0,0.0,0.0,0.0,0.0,0.0,0.0,0.0,0.0,0.0,0.0,0.0,0.0,0.0,0.0,0.0,0.0,0.0,0.0,0.0,0.0,0.0,0.0,0.0,0.0,0.0,0.0,0.0,0.0,0.0,0.0,0.0,0.0,0.0,0.0,0.0,0.0,0.0,0.0,0.0,0.0,0.0,0.0,0.0,0.0,0.0,0.0,0.0,0.0,0.0,0.0,0.0,0.0,0.0,0.0,0.0,0.0,0.0,0.0,0.0,0.0,0.0,0.0,0.0,0.0,0.0,0.0,0.0,0.0,0.0,0.0,0.0,0.0,0.0,0.0,0.0,0.0,0.0,0.0,0.0,0.0,0.0,0.0,0.0,0.0,0.0,0.0,0.0,0.0,0.0,0.0,0.0,0.0,0.0,0.0,0.0,0.0,0.0,0.0,0.0,0.0,0.0,-3.2215,-3.4986,-3.7271,-3.8721,-3.8102,-3.8176,-3.9646,-3.688,-3.4578,-3.3384,0.0,0.0,0.0,0.0,0.0,0.0,0.0,0.0,0.0,0.0,0.0,0.0,0.0,0.0,0.0,0.0,0.0,0.0,0.0,0.0,0.0,0.0,0.0,0.0,0.0,0.0,0.0,0.0,0.0,0.0,0.0,0.0,0.0,0.0,0.0,0.0,0.0,0.0,0.0,0.0,0.0,0.0,0.0,0.0,0.0,0.0,0.0,0.0,0.0,0.0,0.0,0.0,0.0,0.0,0.0,0.0,0.0,0.0,0.0,0.0,0.0,0.0,0.0,0.0,0.0,0.0,0.0,0.0,0.0,0.0,0.0,0.0,0.0,0.0,0.0,0.0,0.0,0.0,0.0,0.0,0.0,0.0,0.0,0.0,0.0,0.0,0.0,0.0,0.0,0.0,0.0,0.0,0.0,0.0,0.0,0.0,0.0,0.0,0.0,0.0,0.0,0.0,-3.3161,-3.6372,-3.8805,-3.9607,-3.8925,-3.8774,-3.963,-3.5801,-3.3334,0.0,0.0,0.0,0.0,0.0,0.0,0.0,0.0,0.0,0.0,0.0,0.0,0.0,0.0,0.0,0.0,0.0,0.0,0.0,0.0,0.0,0.0,0.0,0.0,0.0,0.0,0.0,0.0,0.0,0.0,0.0,0.0,0.0,0.0,0.0,0.0,0.0,0.0,0.0,0.0,0.0,0.0,0.0,0.0,0.0,0.0,0.0,0.0,0.0,0.0,0.0,0.0,0.0,0.0,0.0,0.0,0.0,0.0,0.0,0.0,0.0,0.0,0.0,0.0,0.0,0.0,0.0,0.0,0.0,0.0,0.0,0.0,0.0,0.0,0.0,0.0,0.0,0.0,0.0,0.0,0.0,0.0,0.0,0.0,0.0,0.0,0.0,0.0,0.0,0.0,0.0,0.0,0.0,0.0,0.0,0.0,0.0,0.0,0.0,0.0,0.0,0.0,0.0,-3.2335,-3.5961,-3.8765,-3.9607,-3.9436,-3.9597,-4.0471,-3.7698,-3.5402,-3.4221,0.0,0.0,0.0,0.0,0.0,0.0,0.0,0.0,0.0,0.0,0.0,0.0,0.0,0.0,0.0,0.0,0.0,0.0,0.0,0.0,0.0,0.0,0.0,0.0,0.0,0.0,0.0,0.0,0.0,0.0,0.0,0.0,0.0,0.0,0.0,0.0,0.0,0.0,0.0,0.0,0.0,0.0,0.0,0.0,0.0,0.0,0.0,0.0,0.0,0.0,0.0,0.0,0.0,0.0,0.0,0.0,0.0,0.0,0.0,0.0,0.0,0.0,0.0,0.0,0.0,0.0,0.0,0.0,0.0,0.0,0.0,0.0,0.0,0.0,0.0,0.0,0.0,0.0,0.0,0.0,0.0,0.0,0.0,0.0,0.0,0.0,0.0,0.0,0.0,0.0,0.0,0.0,0.0,0.0,0.0,0.0,0.0,0.0,0.0,0.0,0.0,0.0,-3.186,-3.569,-3.8388,-3.8554,-3.8849,-3.9104,-3.9289,-3.754,-3.5868,-3.455,0.0,0.0,0.0,0.0,0.0,0.0,0.0,0.0,0.0,0.0,0.0,0.0,0.0,0.0,0.0,0.0,0.0,0.0,0.0,0.0,0.0,0.0,0.0,0.0,0.0,0.0,0.0,0.0,0.0,0.0,0.0,0.0,0.0,0.0,0.0,0.0,0.0,0.0,0.0,0.0,0.0,0.0,0.0,0.0,0.0,0.0,0.0,0.0,0.0,0.0,0.0,0.0,0.0,0.0,0.0,0.0,0.0,0.0,0.0,0.0,0.0,0.0,0.0,0.0,0.0,0.0,0.0,0.0,0.0,0.0,0.0,0.0,0.0,0.0,0.0,0.0,0.0,0.0,0.0,0.0,0.0,0.0,0.0,0.0,0.0,0.0,0.0,0.0,0.0,0.0,0.0,0.0,0.0,0.0,0.0,0.0,0.0,0.0,0.0,0.0,0.0,0.0,-3.1581,-3.5412,-3.774,-3.6966,-3.7646,-3.7843,-3.7071,-3.6195,-3.535,-3.4545,0.0,0.0,0.0,0.0,0.0,0.0,0.0,0.0,0.0,0.0,0.0,0.0,0.0,0.0,0.0,0.0,0.0,0.0,0.0,0.0,0.0,0.0,0.0,0.0,0.0,0.0,0.0,0.0,0.0,0.0,0.0,0.0,0.0,0.0,0.0,0.0,0.0,0.0,0.0,0.0,0.0,0.0,0.0,0.0,0.0,0.0,0.0,0.0,0.0,0.0,0.0,0.0,0.0,0.0,0.0,0.0,0.0,0.0,0.0,0.0,-2.9857,-2.8326,0.0,0.0,0.0,0.0,0.0,0.0,0.0,0.0,0.0,0.0,0.0,0.0,0.0,0.0,0.0,0.0,0.0,0.0,0.0,0.0,0.0,0.0,0.0,0.0,0.0,0.0,0.0,0.0,0.0,0.0,0.0,0.0,0.0,0.0,0.0,0.0,0.0,0.0,0.0,0.0,-3.0664,-3.44,-3.687,-3.6687,-3.7404,-3.7834,-3.7702,-3.6934,-3.6119,-3.532,-3.2912,0.0,0.0,0.0,0.0,0.0,0.0,0.0,0.0,0.0,0.0,0.0,0.0,0.0,0.0,0.0,0.0,0.0,0.0,0.0,0.0,0.0,0.0,0.0,0.0,0.0,0.0,0.0,0.0,0.0,0.0,0.0,0.0,0.0,0.0,0.0,0.0,0.0,0.0,0.0,0.0,0.0,0.0,0.0,0.0,0.0,0.0,0.0,0.0,0.0,0.0,0.0,0.0,0.0,0.0,0.0,0.0,0.0,0.0,0.0,-3.1943,-3.0639,0.0,0.0,0.0,0.0,0.0,0.0,0.0,0.0,0.0,0.0,0.0,0.0,0.0,0.0,0.0,0.0,0.0,0.0,0.0,0.0,0.0,0.0,0.0,0.0,0.0,0.0,0.0,0.0,0.0,0.0,0.0,0.0,0.0,0.0,0.0,0.0,0.0,0.0,0.0,0.0,-3.0348,-3.3993,-3.6389,-3.5921,-3.6672,-3.7033,-3.6673,-3.6266,-3.5861,-3.5482,-3.3853,0.0,0.0,0.0,0.0,0.0,0.0,0.0,0.0,0.0,0.0,0.0,0.0,0.0,0.0,0.0,0.0,0.0,0.0,0.0,0.0,0.0,0.0,0.0,0.0,0.0,0.0,0.0,0.0,0.0,0.0,0.0,0.0,0.0,0.0,0.0,0.0,0.0,0.0,0.0,0.0,0.0,0.0,0.0,0.0,0.0,0.0,0.0,0.0,0.0,0.0,0.0,0.0,0.0,-3.5155,-3.5714,-3.6524,-3.5778,-3.5546,-3.5659,-3.4192,-3.3241,-3.2546,-3.0314,0.0,0.0,0.0,0.0,0.0,0.0,0.0,0.0,0.0,0.0,0.0,0.0,0.0,0.0,0.0,0.0,0.0,0.0,0.0,0.0,0.0,0.0,-2.8875,-2.9141,-3.0226,-3.0299,-2.7057,0.0,0.0,0.0,0.0,0.0,0.0,0.0,0.0,0.0,0.0,0.0,-3.0433,-3.3842,-3.5916,-3.5138,-3.5732,-3.5927,-3.5259,-3.5237,-3.5277,-3.5342,-3.4685,-3.3653,0.0,0.0,0.0,0.0,0.0,0.0,0.0,0.0,0.0,0.0,0.0,0.0,0.0,0.0,0.0,0.0,0.0,0.0,0.0,0.0,0.0,0.0,0.0,0.0,0.0,0.0,0.0,0.0,0.0,0.0,0.0,0.0,-2.8757,-2.9567,0.0,0.0,0.0,0.0,0.0,0.0,0.0,0.0,0.0,0.0,0.0,0.0,0.0,-3.3694,-3.3742,-3.5324,-3.6555,-3.7431,-3.7516,-3.7966,-3.8671,-3.7928,-3.798,-3.8612,-3.7757,0.0,-3.3491,-3.1719,0.0,0.0,0.0,0.0,0.0,0.0,0.0,0.0,0.0,0.0,0.0,0.0,0.0,0.0,0.0,0.0,0.0,0.0,0.0,0.0,0.0,0.0,-3.0685,-3.1456,-3.1793,-3.1832,-3.1439,-2.9752,-2.7937,-2.6544,-2.6429,-2.6018,0.0,0.0,0.0,0.0,0.0,0.0,-3.0993,-3.3428,-3.4992,-3.4851,-3.4945,-3.4983,-3.487,-3.4973,-3.5082,-3.513,-3.5146,-3.4726,-3.3813,-3.3115,0.0,0.0,0.0,0.0,0.0,0.0,0.0,0.0,0.0,0.0,0.0,0.0,0.0,0.0,0.0,0.0,0.0,0.0,0.0,0.0,0.0,0.0,0.0,0.0,0.0,0.0,0.0,0.0,0.0,-2.8327,-3.0109,-3.1672,-3.0714,-3.0107,0.0,0.0,0.0,0.0,0.0,0.0,0.0,0.0,0.0,-3.3932,-3.5313,-3.6256,-3.6738,-3.7953,-3.876,-3.9138,-3.9211,-3.9409,-3.9697,-3.8959,-3.8814,-3.9085,-3.7927,-3.6942,-3.6038,-3.4477,-3.3706,-3.3321,0.0,0.0,0.0,0.0,-2.8748,-2.8684,-2.93,-2.9871,-3.0326,-3.0246,0.0,0.0,0.0,0.0,0.0,0.0,0.0,-2.826,-2.9917,-3.1275,-3.2194,-3.2171,-3.2489,-3.2743,-3.2373,-3.1511,-3.0633,-3.0002,-2.9621,-2.8871,-2.7248,-2.7306,0.0,0.0,0.0,-3.1118,-3.1827,-3.3601,-3.4788,-3.474,-3.4739,-3.4739,-3.474,-3.483,-3.4917,-3.4982,-3.5091,-3.4797,-3.401,-3.365,-3.2279,0.0,0.0,0.0,0.0,0.0,0.0,0.0,0.0,0.0,0.0,0.0,0.0,0.0,0.0,0.0,0.0,0.0,0.0,0.0,0.0,0.0,0.0,0.0,0.0,0.0,0.0,0.0,0.0,-2.9766,-3.1285,-3.3051,-3.2351,-3.2069,0.0,0.0,0.0,0.0,0.0,0.0,-3.353,-3.4605,-3.5526,-3.6238,-3.7503,-3.8468,-3.9074,-3.9722,-4.0153,-4.035,-4.0194,-4.0232,-4.0393,-3.966,-3.9427,-3.9553,-3.8455,-3.8293,-3.8671,-3.6586,-3.5462,-3.4882,-3.3514,-3.2687,-3.2218,-3.1678,-3.1625,-3.1937,-3.2607,-3.3309,-3.3913,-3.3759,-3.3531,-3.3034,-3.1584,0.0,0.0,0.0,0.0,-3.0341,-3.1539,-3.2699,-3.3435,-3.2912,-3.325,-3.3531,-3.3023,-3.2987,-3.2948,-3.2629,-3.2161,-3.135,-2.9939,-3.0139,0.0,-2.8785,-3.0749,-3.2436,-3.2627,-3.3864,-3.4687,-3.4634,-3.4623,-3.4623,-3.4623,-3.4666,-3.4739,-3.484,-3.4908,-3.4689,-3.4196,-3.3762,-3.2676,-3.0849,0.0,0.0,0.0,0.0,0.0,0.0,0.0,0.0,0.0,0.0,0.0,0.0,0.0,0.0,0.0,0.0,0.0,0.0,0.0,0.0,0.0,0.0,0.0,0.0,0.0,0.0,0.0,0.0,0.0,-3.3136,-3.3796,0.0,0.0,0.0,0.0,-3.3245,-3.468,-3.5856,-3.6632,-3.8344,-3.9312,-3.9368,-3.9591,-3.9743,-3.9841,-3.9896,-4.0289,-4.1038,-4.0271,-4.0307,-4.104,-4.0237,-4.029,-4.1004,-4.0915,-4.0974,-4.0857,-3.7141,-3.6019,-3.6579,-3.5684,-3.5393,-3.5469,-3.5494,-3.5596,-3.5747,-3.5915,-3.6052,-3.6155,-3.6191,-3.5145,-3.37,-3.2858,-3.1567,0.0,0.0,-3.2247,-3.2216,-3.375,-3.4193,-3.4265,-3.436,-3.4412,-3.4464,-3.4563,-3.4685,-3.4321,-3.2809,-3.2583,-3.2348,-3.1435,0.0,-3.1264,-3.1062,-3.1747,-3.2562,-3.3262,-3.4025,-3.4495,-3.4409,-3.4427,-3.4427,-3.4427,-3.4427,-3.4506,-3.4697,-3.4708,-3.4781,-3.4944,-3.3422,-3.2532,-3.2484,-3.0998,0.0,0.0,0.0,0.0,0.0,0.0,0.0,0.0,0.0,0.0,0.0,0.0,0.0,0.0,0.0,0.0,0.0,0.0,0.0,0.0,0.0,0.0,0.0,0.0,0.0,0.0,0.0,0.0,-3.5255,-3.5535,0.0,-3.6693,-3.5987,-3.591,-3.6983,-3.7583,-3.8023,-3.8351,-3.9057,-3.9435,-3.9356,-4.007,-4.0418,-4.0359,-4.108,-4.1551,-4.1757,-4.1434,-4.1513,-4.1859,-4.1492,-4.153,-4.1841,-4.1324,-4.1129,-4.1026,-3.9135,-3.8295,-3.8115,-3.7811,-3.7196,-3.6477,-3.651,-3.6326,-3.6072,-3.6072,-3.6117,-3.6094,-3.569,-3.481,-3.3852,-3.3666,-3.3192,-3.2896,-3.3626,-3.3625,-3.3566,-3.4312,-3.4461,-3.445,-3.4539,-3.4561,-3.4602,-3.4676,-3.4768,-3.4669,-3.416,-3.371,-3.3312,-3.3005,-3.2862,-3.2766,-3.2638,-3.3277,-3.3834,-3.4016,-3.4315,-3.4461,-3.434,-3.4328,-3.4293,-3.4209,-3.4245,-3.4081,-3.3627,-3.4162,-3.4358,-3.3986,-3.3431,-3.2665,-3.165,-3.0589,-2.897,0.0,0.0,0.0,0.0,0.0,0.0,0.0,0.0,0.0,0.0,0.0,0.0,0.0,0.0,0.0,0.0,0.0,0.0,0.0,0.0,0.0,0.0,0.0,0.0,0.0,-3.3515,-3.5164,-3.6429,-3.6911,-3.7577,-3.8703,-3.8251,-3.8213,-3.9019,-3.926,-3.9399,-3.9489,-3.9838,-3.9978,-3.9939,-4.0637,-4.1004,-4.1047,-4.1771,-4.2121,-4.2103,-4.2103,-4.2163,-4.2246,-4.2205,-4.2225,-4.2272,-4.1734,-4.1502,-4.1431,-4.0646,-3.9881,-3.9188,-3.8669,-3.7918,-3.7102,-3.6562,-3.6168,-3.5939,-3.6181,-3.6518,-3.6717,-3.5937,-3.5416,-3.5005,-3.4837,-3.479,-3.4847,-3.5027,-3.5064,-3.5089,-3.5257,-3.5292,-3.5303,-3.539,-3.5188,-3.494,-3.4773,-3.4797,-3.4753,-3.4509,-3.4102,-3.3881,-3.411,-3.3847,-3.3648,-3.3742,-3.4226,-3.4517,-3.4374,-3.4416,-3.4374,-3.4245,-3.4233,-3.4185,-3.4074,-3.3815,-3.3327,-3.2548,-3.3348,-3.3291,-3.2008,-3.2359,-3.1798,-3.0133,-2.9679,-2.8381,-2.6203,0.0,0.0,0.0,0.0,0.0,0.0,0.0,0.0,0.0,0.0,0.0,0.0,0.0,0.0,0.0,0.0,0.0,0.0,0.0,0.0,0.0,0.0,0.0,-3.273,-3.4394,-3.5873,-3.652,-3.794,-3.8859,-3.8859,-3.877,-3.8775,-3.9055,-3.9601,-3.9995,-4.013,-4.0809,-4.1255,-4.1346,-4.1386,-4.1525,-4.1856,-4.1827,-4.1909,-4.2103,-4.2065,-4.2086,-4.2103,-4.2228,-4.2269,-4.2308,-4.2308,-4.2308,-4.2254,-4.1448,-4.0663,-3.977,-3.8237,-3.7685,-3.756,-3.5969,-3.5462,-3.5699,-3.6524,-3.7451,-3.8092,-3.7196,-3.7069,-3.7122,-3.6351,-3.6215,-3.6348,-3.6362,-3.6481,-3.6623,-3.6623,-3.6669,-3.6771,-3.6893,-3.63,-3.5552,-3.4934,-3.4856,-3.4679,-3.38,-3.3714,-3.3998,-3.4686,-3.4149,-3.3826,-3.4416,-3.4495,0.0,-3.4305,-3.4293,-3.4257,-3.4124,-3.413,-3.4123,-3.4011,-3.3195,-3.2366,-3.1586,-3.2354,-3.1762,-2.9333,-3.0263,-2.997,-2.8136,-2.8409,-2.7782,-2.6204,0.0,0.0,0.0,0.0,0.0,0.0,0.0,0.0,0.0,0.0,0.0,0.0,0.0,0.0,0.0,0.0,0.0,0.0,0.0,0.0,0.0,-3.3114,-3.441,-3.4861,-3.7016,-3.8654,-3.8923,-3.9896,-4.0537,-4.0537,-4.0515,-4.0515,-4.0582,-4.0837,-4.0958,-4.0896,-4.1087,-4.0943,-4.0336,-4.1016,-4.1191,-4.0722,-4.1537,-4.1966,-4.203,-4.1343,-4.1386,-4.2086,-4.1476,-4.1609,-4.2308,-4.2308,-4.2308,-4.229,-4.2055,-4.1502,-4.0628,-3.9075,-3.858,-3.86,-3.7559,-3.7233,-3.7335,-3.7519,-3.7426,-3.7201,-3.7082,-3.669,-3.6258,-3.6142,-3.574,-3.5339,-3.5492,-3.5143,-3.4771,-3.4921,-3.497,-3.5018,-3.5154,-3.5487,-3.5567,-3.4811,-3.5125,-3.5316,-3.4559,-3.3959,-3.3828,-3.4597,-3.4509,-3.4341,-3.4424,-3.4439,-3.4374,-3.4245,-3.4305,-3.4316,-3.4185,-3.4779,-3.4884,-3.4142,-3.4419,-3.4005,-3.2545,-3.3204,-3.313,-3.192,-3.1634,-3.0493,-2.8278,-2.7815,-2.7105,0.0,0.0,0.0,0.0,0.0,0.0,0.0,0.0,0.0,0.0,0.0,0.0,0.0,0.0,0.0,0.0,0.0,0.0,0.0,0.0,0.0,0.0,-3.4745,-3.6209,-3.7161,-3.8688,-3.9721,-3.9807,-4.0574,-4.1088,-4.1152,-4.1175,-4.118,-4.1295,-4.1318,-4.134,-4.1386,-4.1255,-4.0815,-4.0001,-4.0911,-4.1081,-4.0398,-4.1345,-4.188,-4.2005,-4.1382,-4.1403,-4.1977,-4.1537,-4.1656,-4.2225,-4.2287,-4.2308,-4.2272,-4.193,-4.152,-4.0985,0.0,0.0,0.0,0.0,-3.7308,-3.7394,-3.7378,-3.7357,-3.7401,-3.7449,-3.7225,-3.6908,-3.6999,-3.6699,-3.6394,-3.6538,-3.6334,-3.6075,-3.6155,-3.6272,-3.6373,-3.6422,-3.6316,-3.6115,-3.5743,-3.5717,-3.5559,-3.4814,-3.4553,0.0,-3.4596,-3.4344,-3.421,-3.4383,-3.4386,-3.4351,-3.4257,-3.4305,-3.4328,-3.4245,-3.4704,-3.4779,-3.4148,-3.3895,0.0,0.0,0.0,-3.2625,-3.1932,-3.0727,0.0,0.0,0.0,-2.7127,-2.7113,-2.7305,0.0,0.0,-2.5932,-2.5275,0.0,0.0,0.0,0.0,0.0,0.0,0.0,0.0,0.0,0.0,0.0,0.0,0.0,0.0,0.0,0.0,-3.6205,-3.8082,-3.9368,-3.969,-3.9813,-3.9859,-4.0486,-4.0982,-4.1093,-4.1117,-4.1192,-4.138,-4.1365,-4.1485,-4.1722,-4.1572,0.0,0.0,0.0,-4.1265,-4.0668,-4.1293,-4.1754,-4.2005,-4.1774,-4.1713,-4.1801,-4.1888,-4.199,-4.21,-4.2205,-4.2267,-4.2234,-4.15,-4.1214,-4.1163,-4.0299,-3.9425,-3.85,-3.7307,-3.6809,-3.6752,-3.6825,0.0,0.0,-3.8036,-3.8121,-3.829,-3.8307,-3.8281,-3.8271,-3.8332,-3.8462,-3.8575,-3.8531,-3.8701,-3.8863,-3.8836,-3.7841,-3.6957,-3.7066,-3.6538,-3.5788,-3.4907,-3.53,-3.5503,-3.4645,-3.3984,-3.3771,-3.4327,-3.4393,-3.4351,-3.4293,-3.4305,-3.4305,-3.4293,-3.4338,0.0,-3.4142,-3.2773,-3.1832,-3.1592,-3.1612,-3.1285,-3.0502,-2.8975,-2.7805,-2.7098,-2.7289,-2.7759,-2.8502,-2.8799,-2.9341,-3.0094,-2.7952,-2.7001,0.0,0.0,0.0,0.0,0.0,0.0,0.0,0.0,0.0,0.0,0.0,0.0,0.0,0.0,0.0,-3.64,-3.7808,-3.898,-4.0275,-4.0384,-4.0456,-4.0798,-4.1001,-4.1134,-4.1093,-4.1238,-4.1312,-4.1232,-4.202,-4.2502,-4.2587,-4.2993,-4.2935,-4.2296,-4.2328,-4.2144,-4.1697,-4.1731,-4.1841,-4.2005,-4.1205,0.0,-4.1784,-4.117,-4.1305,-4.2009,-4.2048,-4.2097,-4.2124,-4.1964,-4.1973,-4.2004,-4.1298,-4.0193,-3.9102,-3.9995,-3.9191,-3.772,-3.8277,-3.8241,-3.7969,-3.8002,-3.8105,-3.8242,-3.829,-3.7869,0.0,-3.7434,-3.7052,-3.6648,-3.6688,-3.6771,-3.6897,-3.7116,-3.7429,-3.7551,-3.7057,-3.7268,-3.715,-3.5754,-3.5581,-3.5371,-3.4547,-3.4266,-3.4199,-3.4367,-3.4305,-3.4233,-3.4221,-3.4305,-3.434,-3.4233,-3.4938,-3.5069,-3.4241,-3.4525,-3.4124,-3.2705,-3.2527,-3.1826,-3.0406,-3.0664,-3.0205,-2.8837,-2.9016,-2.8923,-2.8508,-2.9304,-2.9521,-2.9168,-2.8802,-2.8695,0.0,0.0,0.0,0.0,0.0,0.0,0.0,0.0,0.0,0.0,0.0,-3.046,-3.147,0.0,-3.5201,-3.7274,-3.8204,-3.9101,-4.0235,-4.0461,-4.0607,-4.0881,-4.0918,-4.1127,-4.159,-4.1742,-4.1795,-4.1801,-4.2696,-4.3115,-4.2816,-4.35,-4.3599,-4.2911,-4.3263,-4.3132,-4.251,-4.2405,-4.2383,-4.2427,-4.1525,-4.1323,-4.1675,-4.1353,-4.147,-4.1884,-4.1984,-4.2009,-4.2055,-4.21,-4.2145,-4.2136,-4.1453,-4.0745,-4.0193,-4.1039,-4.0359,-3.9048,-3.9517,-3.9157,-3.851,-3.858,-3.8379,-3.8122,-3.8224,-3.7969,-3.7658,-3.7721,-3.7523,-3.7305,-3.7302,-3.7452,-3.7616,-3.7681,-3.7752,-3.7844,-3.796,-3.7973,-3.7718,-3.6956,-3.6447,-3.5876,-3.5044,-3.4512,-3.4233,-3.4328,-3.4293,-3.4245,-3.4245,-3.4281,-3.4281,-3.4257,-3.4672,-3.4753,-3.4246,-3.4538,-3.4185,-3.2871,-3.3084,-3.2549,-3.0967,-3.1323,-3.084,-2.9326,-2.904,-2.8746,-2.8457,-2.8982,-2.911,-2.8862,-2.9423,-2.9539,0.0,0.0,0.0,0.0,0.0,0.0,0.0,-2.791,-2.8353,-2.9045,-3.0647,-3.2268,-3.3359,-3.501,-3.6589,-3.7789,-3.8396,-3.9067,-3.9961,-4.0246,-4.0436,-4.06,-4.0648,-4.0985,-4.1847,-4.2068,-4.2202,-4.2345,-4.3341,-4.3728,-4.3277,-4.4078,-4.4311,-4.3761,-4.4266,-4.4213,-4.3536,-4.3134,-4.293,-4.293,-4.2062,-4.1626,-4.1604,-4.1714,-4.1758,-4.1758,-4.1902,-4.1945,-4.1984,-4.2055,-4.21,-4.205,-4.1513,-4.1214,-4.1112,-4.1269,-4.0715,-3.9924,-4.0417,-3.9913,-3.9067,-3.9157,-3.8634,-3.8002,-3.8122,-3.8157,-3.8174,-3.8257,-3.837,-3.843,-3.8401,-3.8575,-3.8777,-3.8704,-3.8283,-3.8116,-3.8901,-3.8572,-3.8052,-3.789,-3.7217,-3.64,-3.5527,-3.4667,-3.4136,-3.4281,-3.4293,-3.4281,-3.4281,-3.4233,-3.4221,-3.4257,-3.4209,-3.4173,-3.4148,-3.3863,-3.341,-3.2728,-3.3206,-3.2826,-3.1317,-3.1391,-3.0788,-2.9309,-2.8707,-2.8324,-2.8153,-2.8594,-2.8728,-2.8578,-2.972,-2.994,-2.4254,-2.5855,-2.7697,-2.7937,-2.9175,-3.0367,0.0,-3.0747,-3.08,-3.0626,-3.2093,-3.3808,-3.4928,-3.615,-3.7447,-3.8813,-3.9149,-3.9437,-4.002,-4.0011,-4.0062,-4.0313,-4.0436,-4.0617,-4.0841,-4.1564,-4.2064,-4.2202,-4.3798,-4.4778,-4.4852,-4.5657,-4.6218,-4.6381,-4.5721,-4.5389,-4.5508,-4.3882,-4.3081,-4.3063,-4.2194,-4.1714,-4.1604,-4.1626,-4.1626,-4.1626,-4.1758,-4.1819,-4.1841,-4.1966,-4.2055,-4.2086,-4.2015,-4.1635,-4.1092,-4.1129,-4.0241,-3.9226,-4.0697,-4.0195,-3.894,-3.9067,-3.8564,-3.7934,-3.8002,-3.8018,-3.8053,-3.8174,-3.8207,-3.8241,-3.8307,-3.8356,-3.8419,-3.8661,-3.8634,-3.864,-3.8859,-3.8909,-3.866,-3.7867,-3.7128,-3.634,-3.5465,-3.4583,-3.4074,-3.4269,-3.4245,-3.4209,-3.4209,-3.4209,-3.4185,-3.4124,-3.4124,-3.4061,-3.3947,-3.3093,-3.2592,-3.2601,-3.252,-3.1836,-3.0393,-3.1035,-3.0729,-2.9237,-2.9196,-2.8537,-2.7258,-2.881,-2.8914,-2.7672,-2.93,-3.0087,-2.6281,-2.7896,-2.952,-2.9755,-3.0878,-3.1964,-3.2178,-3.224,-3.2332,-3.2464,-3.3675,-3.4818,-3.5052,-3.613,-3.7238,-3.7965,-3.8344,-3.8828,-3.9627,-3.9849,-3.9952,-4.0054,-4.0062,-4.0341,-4.1157,-4.154,-4.2034,-4.2639,-4.3982,-4.4838,-4.4984,-4.5879,-4.6495,-4.6684,-4.6242,-4.6065,-4.6141,-4.4894,-4.4025,-4.3573,-4.2748,-4.2105,-4.1604,-4.1604,-4.1604,-4.1604,-4.1648,-4.1692,-4.1692,-4.1819,-4.1905,-4.1899,-4.1579,-4.123,-4.1001,-4.1665,-4.1189,-4.0349,-4.157,-4.0888,-3.9508,-3.9639,-3.8833,-3.7792,-3.7916,-3.7951,-3.7951,-3.8003,-3.8037,-3.8088,-3.8121,-3.8206,-3.8323,-3.8437,-3.853,-3.8624,-3.8747,-3.8837,-3.877,-3.8409,-3.7349,-3.6371,-3.5998,-3.4837,-3.3985,-3.4111,-3.4136,-3.4148,-3.4148,-3.4111,-3.4061,-3.3985,-3.3947,-3.3895,-3.386,-3.3374,-3.3113,-3.3108,-3.3001,-3.2292,-3.0843,-3.1111,-3.0601,-2.9171,-2.916,-2.8682,-2.768,-2.8951,-2.9045,-2.8047,-2.9342,-3.0034,-2.8183,-2.97,-3.1105,-3.1242,-3.233,-3.3348,-3.3284,-3.3288,-3.3444,-3.3893,-3.476,-3.5382,-3.5283,-3.6102,-3.6946,-3.7318,-3.7713,-3.8296,-3.9358,-3.9458,-3.9428,-3.9496,-3.9324,-3.9655,-4.0671,-4.1171,-4.1852,-4.2911,-4.3981,-4.4759,-4.5142,-4.5863,-4.6357,-4.6542,-4.6471,-4.6405,-4.6453,-4.5587,-4.4847,-4.4267,-4.3272,-4.25,-4.192,-4.171,-4.1604,-4.1604,-4.1604,-4.1604,-4.1604,-4.1692,-4.1758,-4.1749,-4.1371,-4.1038,-4.0931,-4.1976,-4.166,-4.0836,-4.1817,-4.1008,-3.959,-3.9975,-3.901,-3.7703,-3.781,-3.7846,-3.7846,-3.7881,-3.7933,-3.7984,-3.8002,-3.8104,-3.8223,-3.829,-3.8385,-3.8494,-3.8609,-3.8747,-3.8822,-3.8777,-3.7485,-3.6412,-3.637,-3.499,-3.3895,-3.3959,-3.4011,-3.4049,-3.4074,-3.4011,-3.3947,-3.3868,-3.3807,-3.3739,-3.3739,-3.3573,-3.3462,-3.3481,-3.3364,-3.264,-3.1205,-3.1146,-3.0501,-2.9069,-2.9078,-2.8761,-2.8103,-2.9021,-2.9082,-2.8398,-2.9375,-2.9926,-2.9366,-3.108,-3.2691,-3.2501,-3.3659,-3.4681,-3.4112,-3.4078,-3.4269,-3.4677,-3.4987,-3.5415,-3.6041,-3.6406,-3.6821,-3.7476,-3.7719,-3.8206,-3.9348,-3.879,-3.8316,-3.8444,-3.8195,-3.8221,-3.8648,-4.0111,-4.156,-4.2903,-4.3803,-4.475,-4.5716,-4.592,-4.6137,-4.6405,-4.6405,-4.6471,-4.659,-4.5747,-4.5288,-4.5253,-4.3581,-4.2798,-4.2745,-4.1973,-4.1604,-4.1604,-4.1604,-4.1604,-4.1604,-4.1604,-4.1692,-4.1801,-4.1784,-4.1372,-4.089,-4.1704,-4.0996,-3.9797,-4.0937,-4.0149,-3.8801,-3.9778,-3.8955,-3.7613,-3.7703,-3.7703,-3.7721,-3.7846,-3.7899,-3.7916,-3.7984,-3.8001,-3.807,-3.8239,-3.8336,-3.8415,-3.8494,-3.871,-3.8866,-3.8738,-3.7499,-3.6464,-3.6346,-3.4908,-3.3834,-3.3895,-3.3895,-3.3934,-3.3998,-3.3947,-3.3868,-3.382,-3.3684,-3.3619,-3.3619,-3.3298,-3.3211,-3.3378,-3.3168,-3.2418,-3.1057,-3.107,-3.0399,-2.8923,-2.9033,-2.8761,-2.8103,-2.8903,-2.8957,-2.8334,-2.927,-2.9774,-3.0803,-3.2181,-3.3349,-3.3155,-3.4025,-3.4843,-3.4655,-3.4466,-3.4394,-3.4677,-3.4684,-3.4629,-3.4561,-3.5298,-3.6118,-3.6653,-3.7328,-3.8169,-3.9226,-3.9206,-3.9118,-3.9232,-3.9101,-3.9118,-3.9437,-3.9754,-4.0471,-4.1835,-4.2732,-4.3692,-4.475,-4.5398,-4.5829,-4.5998,-4.6097,-4.6172,-4.6204,-4.6,-4.5638,-4.5152,-4.3576,-4.2816,-4.2758,-4.1973,-4.1604,-4.1604,-4.1604,-4.1604,-4.1604,-4.1604,-4.1626,-4.167,-4.1758,-4.1599,-4.1314,-4.1234,-4.0789,-4.0281,-4.0778,-4.0215,-3.9252,-3.914,-3.8358,-3.7485,-3.7595,-3.7631,-3.7649,-3.7685,-3.7721,-3.7775,-3.7792,-3.7863,-3.7968,-3.807,-3.8223,-3.8338,-3.837,-3.8578,-3.8569,-3.7897,-3.7,-3.6172,-3.555,-3.4541,-3.3815,-3.3881,-3.3895,-3.3908,-3.3934,-3.3868,-3.3834,-3.3788,-3.3671,-3.3591,-3.3534,-3.3268,-3.3119,-3.3119,-3.3011,-3.2294,-3.0854,-3.1351,-3.0754,-2.8858,-2.9363,-2.9337,-2.8761,-2.9049,-2.9098,-2.8965,-2.9332,-2.9598,-3.1807,-3.2803,-3.3631,-3.3651,-3.418,-3.471,-3.4607,-3.4419,-3.4271,-3.4345,-3.4349,-3.4185,-3.3767,-3.4666,-3.5669,-3.6201,-3.7058,-3.8019,-3.9199,-3.9136,-3.9006,-3.9163,-3.9032,-3.9059,-3.9344,-3.9301,-3.984,-4.1222,-4.2133,-4.3082,-4.4105,-4.4923,-4.5441,-4.5589,-4.5667,-4.5673,-4.5538,-4.5621,-4.5211,-4.4273,-4.3272,-4.2658,-4.2359,-4.1805,-4.156,-4.1604,-4.156,-4.156,-4.1604,-4.1604,-4.1604,-4.1604,-4.1692,-4.167,-4.1539,-4.0916,-4.057,-4.0428,-4.0382,-3.9843,-3.906,-3.8702,-3.803,-3.7373,-3.7484,-3.7503,-3.7522,-3.7522,-3.7595,-3.7667,-3.7685,-3.7757,-3.7863,-3.7966,-3.8121,-3.8256,-3.8322,-3.8533,-3.8527,-3.7915,-3.7228,-3.6541,-3.5933,-3.5117,-3.4586,-3.4642,-3.4417,-3.4137,-3.391,-3.3793,-3.3726,-3.3726,-3.3633,-3.3549,-3.3491,-3.3253,-3.307,-3.3042,-3.2679,-3.1913,-3.0679,-3.0934,-3.031,-2.8686,-2.9196,-2.9332,-2.9021,-2.9044,-2.9134,-2.9259,-2.9332,-2.9286,-3.2353,-3.3009,-3.3601,-3.3917,-3.4177,-3.4253,-3.4,-3.392,-3.3919,-3.3773,-3.3954,-3.4049,-3.3733,-3.4516,-3.5447,-3.6211,-3.6848,-3.7791,-3.9305,-3.8685,-3.8133,-3.828,-3.816,-3.8202,-3.8485,-3.8881,-3.9677,-4.105,-4.1952,-4.2839,-4.3731,-4.45,-4.4964,-4.5074,-4.5074,-4.4941,-4.4605,-4.463,-4.4021,-4.2822,-4.281,-4.2389,-4.1612,-4.1466,-4.1471,-4.156,-4.1448,-4.1471,-4.1582,-4.1582,-4.1582,-4.1582,-4.1529,-4.1529,-4.1424,-4.0691,-4.0324,-4.0176,-3.9664,-3.8984,-3.8307,-3.839,-3.7916,-3.7297,-3.7297,-3.7353,-3.7411,-3.7411,-3.7485,-3.7613,-3.7667,-3.7685,-3.7739,-3.7932,-3.8052,-3.8135,-3.8334,-3.853,-3.8673,-3.8566,-3.7903,-3.7338,-3.7247,-3.6517,-3.5927,-3.5927,-3.5235,-3.4524,-3.3927,-3.3689,-3.3605,-3.3605,-3.3534,-3.3477,-3.3495,-3.3256,-3.3086,-3.3086,-3.2212,-3.1332,-3.0532,-2.9962,-2.9242,-2.8398,-2.8623,-2.8779,-2.8905,-2.897,-2.9062,-2.9189,-2.9259,-2.8905,-3.2966,-3.3252,-3.35,-3.2836,-3.2912,-3.3144,-3.316,-3.3167,-3.3201,-3.3315,-3.3277,-3.3239,-3.3259,-3.365,-3.4547,-3.6323,-3.6832,-3.7626,-3.9389,-3.9432,-3.9315,-3.9461,-3.9341,-3.9506,-4.0127,-4.0291,-4.0448,-4.0729,-4.1469,-4.191,-4.1893,-4.3105,-4.3688,-4.3407,-4.352,-4.3537,-4.3449,-4.3633,-4.3565,-4.3238,-4.2736,-4.2335,-4.2038,-4.1493,-4.1226,-4.1233,-4.1249,-4.1277,-4.13,-4.13,-4.1363,-4.1396,-4.0734,-4.0547,-4.0543,-3.9687,-3.9347,-3.9242,-3.8524,-3.8184,-3.8018,-3.7582,-3.7399,-3.7297,-3.7297,-3.7353,-3.7411,-3.7411,-3.7411,-3.7485,-3.7595,-3.7631,-3.7649,-3.7757,-3.7863,-3.7985,-3.8069,-3.8272,-3.8059,-3.6856,-3.6009,-3.5685,-3.6299,-3.5674,-3.5104,-3.5104,-3.4386,-3.4004,-3.4473,-3.3984,-3.3605,-3.3605,-3.3509,-3.3411,-3.3352,-3.3152,-3.3011,-3.2963,-3.2121,-3.1258,-3.0454,-3.0285,-2.9612,-2.8362,-2.8955,-2.9145,-2.8822,-2.8798,-2.8905,-2.9141,-2.9145,-2.877,-3.2815,-3.3223,-3.3589,-3.2561,-3.2594,-3.279,-3.2637,-3.2706,-3.2804,-3.276,-3.2884,-3.3005,-3.3085,-3.3599,-3.4615,-3.6411,-3.6957,-3.7774,-3.9536,-3.9694,-3.9694,-3.9875,-3.9781,-3.9871,-4.029,-4.0207,-4.0261,-4.0584,-4.1338,-4.1569,-4.1038,-4.2419,-4.3124,-4.2898,-4.3321,-4.3327,-4.2886,-4.2492,-4.231,-4.2293,-4.1908,-4.17,-4.1618,-4.1162,-4.1012,-4.1093,-4.1082,-4.1117,-4.1209,-4.1157,-4.1198,-4.1209,-4.066,-4.0278,-3.9941,-3.9115,-3.8625,-3.8248,-3.7492,-3.7273,-3.7303,-3.7051,-3.7029,-3.7085,-3.7143,-3.7222,-3.7261,-3.7261,-3.7318,-3.7429,-3.7503,-3.7577,-3.7667,-3.7757,-3.7881,-3.7985,-3.8104,-3.8223,-3.7944,-3.6656,-3.5812,-3.5423,-3.5845,-3.5527,-3.519,-3.5108,-3.444,-3.4096,-3.4531,-3.3971,-3.3506,-3.3506,-3.3408,-3.3337,-3.3292,-3.3106,-3.2979,-3.2948,-3.2137,-3.1288,-3.0487,-3.0131,-2.9412,-2.8282,-2.8734,-2.8882,-2.8675,-2.87,-2.8803,-2.901,-2.9067,-2.8702,-3.2436,-3.3028,-3.3564,-3.2584,-3.2566,-3.2638,-3.2109,-3.2287,-3.2426,-3.2096,-3.2466,-3.2887,-3.3019,-3.3816,-3.4902,-3.6338,-3.6924,-3.784,-3.9487,-3.9492,-3.9489,-3.9858,-3.9781,-3.9737,-3.9811,-3.9591,-3.974,-4.054,-4.1321,-4.1487,-4.0806,-4.1977,-4.2691,-4.2719,-4.3452,-4.3388,-4.2457,-4.1334,-4.0752,-4.0752,-4.0776,-4.0776,-4.0752,-4.0673,-4.0745,-4.0976,-4.0888,-4.0896,-4.0955,-4.1018,-4.0995,-4.0891,-4.0756,-4.0278,-3.9572,-3.8705,-3.7998,-3.7348,-3.6657,-3.6461,-3.6502,-3.6728,-3.6788,-3.6829,-3.6928,-3.7029,-3.7089,-3.7089,-3.7223,-3.7355,-3.7392,-3.7522,-3.7703,-3.7793,-3.788,-3.8002,-3.8189,-3.8111,-3.7764,-3.7071,-3.629,-3.5701,-3.5702,-3.5598,-3.5477,-3.5361,-3.4745,-3.4258,-3.4143,-3.3689,-3.3364,-3.3364,-3.3307,-3.3262,-3.3262,-3.3091,-3.2995,-3.2995,-3.2166,-3.1334,-3.0547,-2.9768,-2.9002,-2.82,-2.8232,-2.8353,-2.8497,-2.8619,-2.8761,-2.8893,-2.901,-2.8644,-3.2811,-3.2706,-3.2541,-3.1738,-3.1531,-3.147,-3.1044,-3.1329,-3.1513,-3.1109,-3.1318,-3.177,-3.2634,-3.2917,-3.365,-3.5504,-3.5865,-3.6611,-3.8556,-3.8697,-3.8905,-3.9808,-3.9781,-3.9902,-4.0404,-4.0259,-4.0199,-4.042,-4.1,-4.111,-4.0661,-4.0877,-4.1076,-4.1167,-4.1328,-4.1315,-4.1127,-4.0425,-4.0062,-4.0062,-4.0188,-4.0188,-4.0079,-4.028,-4.0337,-4.0288,-4.06,-4.0336,-3.9757,-4.0487,-4.0408,-3.9864,-3.9705,-3.962,-3.9358,-3.7894,-3.7267,-3.7084,-3.6358,-3.6165,-3.6293,-3.6623,-3.6748,-3.6788,-3.6766,-3.6869,-3.7009,-3.7009,-3.7069,-3.7185,-3.7297,-3.7373,-3.7466,-3.7485,-3.7577,-3.7721,-3.7934,-3.7059,-3.6195,-3.6126,-3.5364,-3.4961,-3.5675,-3.5097,-3.4535,-3.4519,-3.3836,-3.3301,-3.3241,-3.3273,-3.3259,-3.3165,-3.315,-3.3104,-3.306,-3.3028,-3.2995,-3.2995,-3.2121,-3.1324,-3.06,-2.9648,-2.8823,-2.813,-2.8126,-2.8237,-2.8406,-2.8549,-2.8687,-2.8822,-2.8905,-2.853,-3.2518,-3.2536,-3.2539,-3.1529,-3.1481,-3.1578,-3.1276,-3.136,-3.1453,-3.1348,-3.1294,-3.1475,-3.2046,-3.2488,-3.329,-3.4783,-3.5299,-3.6231,-3.8304,-3.8369,-3.86,-3.9671,-3.9616,-3.9618,-3.992,-3.9742,-3.9852,-4.0348,-4.054,-4.0601,-4.0508,-4.084,-4.1067,-4.1166,-4.0855,-4.0719,-4.0799,-4.0124,-3.9798,-3.9781,-3.9858,-3.9858,-3.9781,-3.9935,-3.9986,-4.0011,-4.0263,-4.0158,-3.9802,-4.0226,-4.0133,-3.9761,-3.9687,-3.945,-3.9033,-3.8343,-3.7863,-3.745,-3.6639,-3.6445,-3.6527,-3.6221,-3.636,-3.6647,-3.6684,-3.6766,-3.6829,-3.6829,-3.6888,-3.697,-3.7124,-3.7259,-3.7373,-3.7485,-3.7631,-3.7667,-3.736,-3.6421,-3.553,-3.5144,-3.4359,-3.3882,-3.4276,-3.3946,-3.36,-3.3536,-3.3261,-3.2995,-3.2802,-3.2995,-3.3106,-3.3011,-3.3011,-3.2995,-3.2948,-3.2948,-3.2948,-3.2948,-3.2545,-3.1749,-3.0555,-3.0083,-2.9289,-2.8116,-2.8126,-2.8223,-2.834,-2.8419,-2.8523,-2.8632,-2.8687,-2.8531,-3.2175,-3.2446,-3.2605,-3.1731,-3.1754,-3.1923,-3.1643,-3.1484,-3.1388,-3.1363,-3.1114,-3.1006,-3.1318,-3.1911,-3.2765,-3.4007,-3.4537,-3.5618,-3.7911,-3.7888,-3.8157,-3.9499,-3.9362,-3.9218,-3.9299,-3.9067,-3.9243,-4.0001,-4.0045,-4.0165,-4.0541,-4.1043,-4.1357,-4.139,-4.079,-4.0502,-4.0594,-3.9887,-3.9504,-3.9547,-3.9504,-3.9547,-3.9599,-3.9599,-3.9694,-3.9824,-3.9986,-3.9935,-3.9775,-3.9825,-3.975,-3.9614,-3.9614,-3.9362,-3.8975,-3.8932,-3.8473,-3.7784,-3.7114,-3.6732,-3.6486,-3.5971,-3.6046,-3.6356,-3.644,-3.6499,-3.6541,-3.652,-3.6585,-3.669,-3.6811,-3.7009,-3.7259,-3.7484,-3.7685,-3.7613,-3.6805,-3.6049,-3.5258,-3.4467,-3.3643,-3.3055,-3.3011,-3.2979,-3.295,-3.2805,-3.2902,-3.2884,-3.2606,-3.2804,-3.29,-3.2804,-3.2868,-3.2916,-3.29,-3.2916,-3.2916,-3.2916,-3.2916,-3.217,-3.0538,-3.0481,-2.9736,-2.8162,-2.8154,-2.8209,-2.8273,-2.8286,-2.8367,-2.8484,-2.8484,-2.8531,-3.2385,-3.2305,-3.2239,-3.215,-3.2066,-3.1858,-3.1372,-3.0955,-3.0566,-3.0086,-2.9626,-2.9586,-3.0511,-3.0671,-3.1198,-3.2951,-3.3063,-3.3905,-3.6677,-3.6705,-3.7202,-3.9265,-3.9121,-3.8985,-3.9272,-3.8887,-3.8711,-3.8931,-3.9441,-4.0152,-4.1099,-4.1066,-4.1041,-4.1058,-4.0336,-3.9987,-3.997,-3.9248,-3.8942,-3.905,-3.8942,-3.9023,-3.9325,-3.9325,-3.9405,-3.9554,-3.9798,-3.9463,-3.8757,-3.8866,-3.8841,-3.8732,-3.8732,-3.9084,-3.9545,-3.8866,-3.817,-3.7541,-3.7459,-3.6609,-3.5626,-3.6226,-3.6157,-3.5839,-3.5734,-3.5866,-3.6041,-3.5915,-3.6006,-3.6199,-3.6343,-3.6609,-3.6928,-3.7259,-3.7484,-3.7417,-3.6595,-3.5948,-3.5258,-3.4467,-3.3595,-3.3013,-3.2995,-3.2948,-3.2884,-3.2805,-3.287,-3.282,-3.254,-3.2691,-3.2707,-3.2474,-3.2773,-3.2963,-3.29,-3.2948,-3.2979,-3.2979,-3.2932,-3.2235,-3.0736,-3.0496,-2.9707,-2.8217,-2.814,-2.814,-2.8209,-2.8259,-2.834,-2.8406,-2.8406,-2.8445,-3.2372,-3.2468,-3.2293,-3.1647,-3.1873,-3.1956,-3.0857,-3.0649,-3.0559,-3.0022,-2.9486,-2.9239,-2.9733,-3.0201,-3.0941,-3.2231,-3.2684,-3.368,-3.5918,-3.5876,-3.6326,-3.82,-3.822,-3.8308,-3.8832,-3.8849,-3.904,-3.9539,-3.9722,-4.0156,-4.0925,-4.0545,-4.0103,-3.9564,-3.9339,-3.9231,-3.9231,-3.8952,-3.8832,-3.8887,-3.8832,-3.886,-3.9013,-3.9013,-3.904,-3.9094,-3.9388,-3.8963,-3.8071,-3.8816,-3.8716,-3.8186,-3.8764,-3.9261,-3.9556,-3.9333,-3.9084,-3.869,-3.7728,-3.7285,-3.7034,-3.5902,-3.5763,-3.5977,-3.569,-3.5734,-3.5844,-3.5734,-3.58,-3.5954,-3.6067,-3.6464,-3.6831,-3.697,-3.7222,-3.7215,-3.6488,-3.574,-3.5008,-3.4323,-3.3487,-3.2886,-3.2886,-3.3229,-3.3306,-3.2712,-3.3099,-3.3206,-3.2527,-3.2641,-3.2707,-3.2473,-3.264,-3.2753,-3.2721,-3.2737,-3.2804,-3.287,-3.236,-3.1582,-3.0493,-2.9994,-2.9229,-2.8158,-2.8154,-2.8154,-2.814,-2.814,-2.8136,-2.815,-2.815,-2.8209,-3.228,-3.2575,-3.254,-3.1844,-3.1987,-3.2006,-3.0984,-3.0654,-3.0451,-3.0073,-2.9556,-2.919,-2.9328,-2.9849,-3.0674,-3.1864,-3.2384,-3.3372,-3.5457,-3.5656,-3.6023,-3.7202,-3.7671,-3.7965,-3.8202,-3.8536,-3.8962,-3.9486,-3.945,-3.9593,-4.0014,-3.9671,-3.9291,-3.8873,-3.8714,-3.8611,-3.8611,-3.8556,-3.8539,-3.8595,-3.8556,-3.8583,-3.8683,-3.8639,-3.8509,-3.8384,-3.8887,-3.8351,-3.7254,-3.836,-3.836,-3.7719,-3.8513,-3.902,-3.9282,-3.9415,-3.9318,-3.9061,-3.8125,-3.7909,-3.7776,-3.6332,-3.5991,-3.608,-3.5767,-3.5626,-3.5571,-3.5396,-3.5509,-3.5711,-3.5844,-3.6233,-3.6568,-3.6594,-3.6796,-3.6888,-3.6457,-3.5734,-3.5047,-3.4641,-3.3771,-3.3095,-3.3095,-3.336,-3.3345,-3.2645,-3.3051,-3.3193,-3.2493,-3.2591,-3.2674,-3.249,-3.2523,-3.2573,-3.2606,-3.2639,-3.2601,-3.2435,-3.1872,-3.1062,-3.0049,-2.9556,-2.8927,-2.8116,-2.814,-2.814,-2.8099,-2.8014,-2.7986,-2.8014,-2.7986,-2.789,-3.2044,-3.2552,-3.2951,-3.3214,-3.2625,-3.1987,-3.1971,-3.0977,-3.0019,-3.0003,-2.9627,-2.9328,-2.9473,-2.9512,-3.0096,-3.1925,-3.1996,-3.27,-3.5233,-3.6114,-3.6492,-3.6509,-3.7747,-3.8263,-3.741,-3.781,-3.8132,-3.8209,-3.8225,-3.8225,-3.8225,-3.8367,-3.8732,-3.9473,-3.8666,-3.8209,-3.8209,-3.802,-3.7976,-3.8116,-3.7976,-3.8078,-3.8391,-3.8217,-3.7814,-3.735,-3.823,-3.766,-3.6206,-3.7253,-3.7546,-3.7329,-3.7616,-3.8166,-3.8805,-3.8805,-3.8487,-3.8101,-3.8776,-3.8164,-3.7235,-3.7947,-3.7185,-3.5984,-3.5844,-3.5479,-3.5041,-3.4787,-3.5031,-3.5424,-3.5577,-3.58,-3.6041,-3.6075,-3.622,-3.6343,-3.6464,-3.6023,-3.5586,-3.5586,-3.4621,-3.3792,-3.3792,-3.3256,-3.2756,-3.2622,-3.2606,-3.2557,-3.2405,-3.2506,-3.2557,-3.2405,-3.2456,-3.2523,-3.2589,-3.2706,-3.2469,-3.1653,-3.16,-3.0907,-2.9375,-2.9362,-2.8988,-2.8116,-2.8099,-2.8099,-2.8099,-2.7975,-2.7946,-2.8014,-2.7932,-2.7536,-3.1478,-3.1754,-3.1716,-3.1087,-3.1099,-3.1036,-2.9967,-2.9883,-2.9886,-2.947,-2.9256,-2.919,-2.9328,-2.9434,-3.0234,-3.2457,-3.278,-3.3397,-3.5198,-3.5484,-3.5651,-3.6109,-3.7223,-3.7937,-3.785,-3.7999,-3.8189,-3.8307,-3.8351,-3.8294,-3.8193,-3.8107,-3.8248,-3.8588,-3.835,-3.8135,-3.7992,-3.7934,-3.7918,-3.796,-3.7918,-3.7963,-3.8049,-3.8004,-3.7876,-3.7741,-3.8104,-3.7271,-3.5737,-3.7323,-3.7254,-3.6261,-3.7503,-3.8205,-3.856,-3.8639,-3.8547,-3.8374,-3.8177,-3.8165,-3.8136,-3.7364,-3.6821,-3.6377,-3.5817,-3.5333,-3.4923,-3.4756,-3.4859,-3.5071,-3.5095,-3.5418,-3.5734,-3.5761,-3.5963,-3.604,-3.557,-3.4921,-3.433,-3.3965,-3.3064,-3.2386,-3.2492,-3.2773,-3.2844,-3.2336,-3.2651,-3.2773,-3.2319,-3.2301,-3.2301,-3.2214,-3.2301,-3.2404,-3.2523,-3.2524,-3.2436,-3.2238,-3.1166,-3.0372,-2.9922,-2.8927,-2.8266,-2.8042,-2.8042,-2.8014,-2.7961,-2.7917,-2.7903,-2.7932,-2.7768,-2.7361,-3.0695,-3.1158,-3.1324,-3.0703,-3.0686,-3.0558,-2.9508,-2.943,-2.9493,-2.9108,-2.9052,-2.9144,-2.9282,-2.9665,-3.053,-3.2329,-3.2918,-3.3616,-3.501,-3.5185,-3.5489,-3.6459,-3.7002,-3.7498,-3.8055,-3.8001,-3.8017,-3.8193,-3.8221,-3.8164,-3.8078,-3.7963,-3.7934,-3.8008,-3.802,-3.7963,-3.7817,-3.7759,-3.7759,-3.7759,-3.7759,-3.7759,-3.7759,-3.7759,-3.7587,-3.7348,-3.7761,-3.6947,0.0,-3.7269,-3.7185,-3.6035,-3.7466,-3.8103,-3.8221,-3.8403,-3.8488,-3.843,-3.7818,-3.7965,-3.8215,-3.7036,-3.6437,-3.6084,-3.5322,-3.498,-3.4804,-3.4715,-3.4828,-3.488,-3.4457,-3.4632,-3.4846,-3.4578,-3.4671,-3.4716,-3.4363,-3.3966,-3.3604,-3.3245,-3.2582,-3.2106,-3.2143,-3.237,-3.2392,-3.1963,-3.2252,-3.2355,-3.1981,-3.2001,-3.2037,-3.1983,-3.2091,-3.2197,-3.2336,-3.2336,-3.2248,-3.2067,-3.0788,-2.998,-2.9759,-2.857,-2.7961,-2.7957,-2.7957,-2.7929,-2.7888,-2.7842,-2.7827,-2.7827,-2.7707,-2.7411,0.0,-3.0592,-3.147,-3.1605,-3.1068,-3.044,-3.0172,-2.9486,0.0,-2.8881,-2.9006,-2.9137,-2.9323,-3.0078,-3.0969,-3.179,-3.2611,-3.3564,-3.478,-3.5257,-3.5942,-3.7183,-3.6914,-3.7023,-3.7921,-3.7831,-3.773,-3.7876,-3.7905,-3.7905,-3.7905,-3.7876,-3.7817,-3.7671,-3.7671,-3.7671,-3.7671,-3.7569,-3.748,-3.748,-3.748,-3.748,-3.745,-3.745,-3.7087,-3.6474,-3.725,-3.6656,-3.5291,-3.6988,-3.7083,-3.6324,-3.7329,-3.7716,-3.7745,-3.7933,-3.8104,-3.8121,-3.7573,-3.7497,-3.755,-3.6787,-3.6048,-3.5261,-3.4503,-3.4448,-3.4667,-3.4667,-3.4851,-3.4804,-3.3667,-3.3564,-3.3607,-3.2862,-3.268,-3.2768,-3.2954,-3.3157,-3.3246,-3.3144,-3.2825,-3.2549,-3.2491,-3.1987,-3.1564,-3.1579,-3.1504,-3.1466,-3.1466,-3.1634,-3.1763,-3.1763,-3.1802,-3.1876,-3.2037,-3.2074,-3.1864,-3.1313,-3.0404,-2.9632,-2.8991,-2.8335,-2.7943,-2.7874,-2.7874,-2.7874,-2.7874,-2.7748,-2.7686,-2.7686,-2.7686,-2.7659,-2.8858,0.0,-2.9991,-3.0021,-2.9824,-2.9536,0.0,-2.9053,-2.8897,-2.8834,-2.8889,-2.9163,-2.9856,-3.0329,-3.1198,-3.2976,-3.3976,-3.4774,-3.5492,-3.6002,-3.6119,-3.5587,-3.6445,-3.7111,-3.724,-3.7389,-3.7551,-3.773,-3.7759,-3.7759,-3.7759,-3.7658,-3.7599,-3.7539,-3.7539,-3.7539,-3.7539,-3.751,-3.7435,-3.7254,-3.7254,-3.7225,-3.7136,-3.7136,-3.7012,-3.6824,-3.6388,-3.566,-3.4869,-3.5268,-3.5073,-3.4566,-3.5487,-3.5913,-3.6026,-3.6151,-3.6234,-3.6258,-3.6215,-3.6232,-3.6163,-3.5486,-3.5237,-3.5091,-3.4235,-3.4101,-3.425,-3.425,-3.4423,-3.443,-3.35,-3.3463,-3.3452,-3.271,-3.2635,-3.2553,-3.2066,-3.2062,-3.2001,-3.1429,-3.1321,-3.1325,-3.1288,-3.1196,-3.1193,-3.1271,-3.1193,-3.1157,-3.1332,-3.1254,-3.1232,-3.1327,-3.1271,-3.1293,-3.1468,-3.1267,-3.1081,-3.1009,-2.9736,-2.8917,-2.8792,-2.8067,-2.7692,-2.7662,-2.7662,-2.7662,-2.7662,-2.7587,-2.7539,-2.7557,-2.7481,-2.7529,-2.824,-2.8735,-2.9377,-2.9695,-2.949,-2.92,-2.9209,-2.9029,-2.8834,-2.8732,-2.8989,-2.9397,-2.9997,-3.0726,-3.1727,-3.3186,-3.4118,-3.4787,-3.5072,-3.6169,-3.6472,-3.5162,-3.633,-3.7254,-3.7089,-3.73,-3.7478,-3.7599,-3.7628,-3.7628,-3.7628,-3.7464,-3.7359,-3.7359,-3.7285,-3.7285,-3.7359,-3.7359,-3.727,-3.7089,-3.7013,-3.6938,-3.6862,-3.6816,-3.6785,-3.6739,-3.5935,-3.5424,-3.5127,-3.4818,-3.4576,-3.4423,-3.4898,-3.5096,-3.521,-3.5407,-3.5506,-3.5546,-3.5735,-3.5539,-3.5112,-3.4494,-3.4348,-3.4336,-3.3935,-3.3848,-3.3924,-3.4,-3.3982,-3.3721,-3.2724,-3.2398,-3.2138,-3.1432,-3.1319,-3.1287,-3.1013,-3.108,-3.107,-3.0567,-3.0651,-3.079,-3.0688,-3.0733,-3.0794,-3.0875,-3.0814,-3.0797,-3.0922,-3.0878,-3.0895,-3.0955,-3.0895,-3.0918,-3.1064,-3.0579,-3.0376,-3.0557,-2.9541,-2.8953,-2.902,-2.8089,-2.7557,-2.7557,-2.7557,-2.7557,-2.7557,-2.7526,-2.7481,-2.745,-2.7452,-2.7421,-2.7825,-2.8473,-2.9226,-2.9785,-2.9549,-2.925,-2.9546,-2.9337,-2.9035,-2.8898,-2.9323,-2.9831,-3.0188,-3.1271,-3.2353,-3.309,-3.3979,-3.4593,-3.4549,-3.6146,-3.6796,-3.5363,-3.6438,-3.7268,-3.7164,-3.7329,-3.748,-3.751,-3.751,-3.748,-3.7464,-3.73,-3.7194,-3.7164,-3.7044,-3.7044,-3.7134,-3.7164,-3.7089,-3.6908,-3.6754,-3.6631,-3.6523,-3.6414,-3.6352,-3.6274,-3.5539,-3.5262,-3.5335,-3.4577,-3.4368,-3.4525,-3.4525,-3.4569,-3.4625,-3.4895,-3.5023,-3.5051,-3.5284,-3.4897,-3.4197,-3.373,-3.3529,-3.3477,-3.3581,-3.3658,-3.3668,-3.3745,-3.3614,-3.3137,-3.1911,-3.1308,-3.0764,-2.9976,-2.9788,-2.9875,-3.0124,-3.0316,-3.0401,-3.0231,-3.0443,-3.0589,-3.0438,-3.0464,-3.0506,-3.0506,-3.0506,-3.0506,-3.0485,-3.0568,-3.063,-3.063,-3.0609,-3.0613,-3.0703,-3.0132,-2.9814,-3.0004,-2.9457,-2.9157,-2.9281,-2.8315,-2.7714,-2.7591,-2.7639,-2.7602,-2.7481,-2.7465,-2.7434,-2.739,-2.7419,-2.7324,-2.7565,-2.8354,-2.9169,-2.9092,-2.931,-2.9546,-2.9589,-2.9993,-3.0283,-3.0156,-3.0222,-3.0495,-3.1207,-3.2084,-3.2928,-3.3646,-3.4974,-3.5846,-3.5669,-3.6466,-3.6687,-3.5728,-3.6318,-3.6877,-3.703,-3.715,-3.7329,-3.748,-3.751,-3.7435,-3.7254,-3.7224,-3.715,-3.703,-3.6999,-3.6938,-3.6785,-3.6953,-3.6877,-3.6585,-3.6554,-3.6289,-3.5847,-3.5816,-3.5737,-3.5501,-3.4314,-3.3879,-3.3925,-3.2859,-3.2568,-3.2789,-3.2915,-3.3056,-3.3209,-3.3263,-3.3263,-3.3291,-3.3318,-3.332,-3.3291,-3.309,-3.315,-3.3293,-3.3229,-3.3346,-3.3477,-3.3282,-3.3604,-3.3606,-3.2015,-3.1693,-3.1454,-3.0054,-2.976,-2.9853,-2.9995,-3.0146,-3.0231,-3.021,-3.0316,-3.0438,-3.0417,-3.0464,-3.0506,-3.0506,-3.0506,-3.0485,-3.0422,-3.0338,-3.0274,-3.0274,-3.0167,-3.0167,-3.0295,-3.0074,-2.9721,-2.9214,-2.8929,-2.8794,-2.8812,-2.8882,-2.8648,-2.8012,-2.8245,-2.8031,-2.7423,-2.736,-2.7329,-2.7313,-2.7215,-2.7231,-2.7257,-2.7779,-2.8275,-2.8894,-2.9225,-2.9438,-2.9653,-2.9694,-2.9664,-2.955,-3.0076,-3.0723,-3.1271,-3.2204,-3.3321,-3.4558,-3.5653,-3.6195,-3.5763,-3.6198,-3.6261,-3.5416,-3.5984,-3.6507,-3.6708,-3.6953,-3.7165,-3.7329,-3.7329,-3.73,-3.7194,-3.7043,-3.6892,-3.6831,-3.6785,-3.6677,-3.66,-3.6569,-3.6476,-3.6352,-3.6148,-3.591,-3.5589,-3.5379,-3.5201,-3.5062,-3.3865,-3.3377,-3.3334,-3.2194,-3.1853,-3.2035,-3.2107,-3.2234,-3.2416,-3.2566,-3.2936,-3.3286,-3.301,-3.3131,-3.338,-3.3022,-3.2908,-3.292,-3.2978,-3.3085,-3.3123,-3.2904,-3.2888,-3.2781,-3.2019,-3.1274,-3.0656,-3.0192,-2.9797,-2.9656,-3.0155,-3.0095,-3.0038,-3.0405,-3.0255,-3.0108,-3.0167,-3.021,-3.0253,-3.0338,-3.0338,-3.0338,-3.0295,-3.0167,-3.0081,-3.0081,-2.9995,-2.9946,-2.9924,-2.9908,-2.9669,-2.9153,-2.9059,-2.891,-2.8661,-2.9181,-2.9122,-2.8382,-2.8098,-2.7845,-2.7622,-2.7195,-2.7024,-2.7073,-2.7024,-2.6991,-2.6757,-2.7216,-2.767,-2.891,-2.9322,-2.9505,-2.9867,-2.9758,-2.9528,-2.9425,-3.0316,-3.1212,-3.149,-3.26,-3.3923,-3.5401,-3.6076,-3.6245,-3.5692,-3.5921,-3.5933,-3.5306,-3.5749,-3.6179,-3.6414,-3.6647,-3.6831,-3.6952,-3.6937,-3.6876,-3.6846,-3.6616,-3.6461,-3.6461,-3.6383,-3.6336,-3.6398,-3.6179,-3.607,-3.607,-3.5799,-3.5524,-3.5309,-3.4983,-3.4835,-3.4743,-3.3807,-3.3398,-3.3295,-3.2184,-3.1806,-3.1921,-3.1727,-3.1768,-3.1953,-3.2219,-3.2708,-3.3177,-3.2822,-3.2949,-3.3234,-3.2807,-3.2609,-3.2539,-3.2691,-3.2734,-3.2691,-3.2563,-3.2257,-3.1997,-3.193,-3.1051,-3.0192,-3.0251,-2.984,-2.9569,-3.0028,-2.9824,-2.9756,-3.0437,-3.0087,-2.9786,-3.0053,-3.0021,-2.9973,-3.0103,-3.0103,-3.0103,-3.0081,-2.9995,-2.9924,-2.9902,-2.9836,-2.9748,-2.9653,-2.971,-2.9605,-2.9286,-2.9353,-2.9231,-2.887,-2.9483,-2.937,-2.8434,-2.7964,-2.7607,-2.7397,-2.6825,-2.6641,-2.6826,-2.6775,-2.6725,-2.5948,-2.7003,-2.8162,-2.908,-2.9624,-3.0046,-3.0366,-3.0994,-3.1443,-3.1156,-3.1796,-3.2421,-3.2554,-3.3834,-3.5094,-3.5854,-3.6117,-3.6164,-3.6008,-3.6006,-3.599,-3.5944,-3.58,-3.5879,-3.6179,-3.6116,-3.6132,-3.6258,-3.6086,-3.5959,-3.58,-3.5784,-3.5784,-3.5784,-3.5752,-3.5863,-3.6037,-3.5831,-3.5752,-3.572,-3.5572,-3.5261,-3.4765,-3.4731,-3.4616,-3.4404,-3.4082,-3.3935,-3.3864,-3.287,-3.2526,-3.2554,-3.1821,-3.161,-3.1739,-3.1953,-3.1955,-3.1856,-3.1996,-3.2083,-3.2114,-3.2068,-3.215,-3.2219,-3.2262,-3.2247,-3.2247,-3.2247,-3.212,-3.1936,-3.1689,-3.1653,-3.1327,-3.0145,-2.9844,-2.9705,-2.9132,-2.9068,-2.935,-3.0014,-2.972,-2.958,-3.0334,-3.0048,-2.9748,-2.9832,-2.9832,-2.9826,-2.9748,-2.9742,-2.9675,-2.9541,-2.9541,-2.9518,-2.9518,-2.9518,-2.9525,-2.9483,-2.9595,-2.9651,-2.9625,-2.9962,-2.9452,-2.7903,-2.8219,-2.7711,-2.6206,-2.6174,-2.6314,-2.6624,-2.6435,-2.6538,-2.5606,-2.603,-2.6703,-2.877,-2.922,-2.9313,-2.998,-3.0348,-3.0511,-3.0454,-3.097,-3.1767,-3.2855,-3.4013,-3.5013,-3.571,-3.5847,-3.5879,-3.5831,-3.5718,-3.5683,-3.5683,-3.5507,-3.5492,-3.5733,-3.5671,-3.572,-3.5879,-3.58,-3.5737,-3.5688,-3.5576,-3.5512,-3.5512,-3.5512,-3.5544,-3.5608,-3.5477,-3.5329,-3.5216,-3.5166,-3.4983,-3.4698,-3.4563,-3.4481,-3.437,-3.3981,-3.3703,-3.3482,-3.3004,-3.2728,-3.2531,-3.2004,-3.1619,-3.1322,-3.1365,-3.1321,-3.1263,-3.135,-3.1452,-3.1553,-3.1553,-3.1653,-3.1752,-3.1752,-3.1809,-3.1853,-3.1682,-3.1653,-3.1736,-3.1925,-3.1597,-3.1179,-3.086,-3.0566,-3.0264,-2.9999,-3.0067,-3.0244,-3.0577,-3.0436,-3.0366,-3.0806,-3.0355,-2.998,-3.0103,-2.9765,-2.947,-2.9441,-2.9389,-2.9321,-2.9252,-2.9167,-2.9121,-2.9121,-2.9091,-2.9084,-2.9106,-2.9412,-2.9586,-2.9586,-2.9697,-2.9468,-2.8855,-2.8495,-2.7912,-2.7078,-2.6561,-2.6237,-2.6154,-2.5994,-2.6082,-2.5315,-2.5536,-2.6061,-2.8372,-2.8763,-2.8826,-2.9653,-2.9973,-3.0017,-2.9885,-3.0657,-3.1788,-3.3247,-3.4211,-3.4906,-3.5355,-3.5444,-3.5444,-3.5444,-3.5362,-3.5326,-3.5326,-3.518,-3.5148,-3.5294,-3.5216,-3.5234,-3.5379,-3.5347,-3.5282,-3.5282,-3.5169,-3.5088,-3.5088,-3.5169,-3.5169,-3.5169,-3.51,-3.4983,-3.4835,-3.4563,-3.4511,-3.4597,-3.4448,-3.4414,-3.4399,-3.4134,-3.3846,-3.3537,-3.3194,-3.2751,-3.2216,-3.1942,-3.1523,-3.1039,-3.085,-3.0688,-3.0628,-3.0688,-3.0762,-3.0851,-3.0881,-3.097,-3.1073,-3.1073,-3.116,-3.1234,-3.1043,-3.1058,-3.1219,-3.1653,-3.1392,-3.1041,-3.1107,-3.0872,-3.0565,-3.0365,-3.0438,-3.0644,-3.0949,-3.0758,-3.0629,-3.0826,-3.0338,-2.9878,-2.9817,-2.9445,-2.9167,-2.9144,-2.9075,-2.9029,-2.8998,-2.8912,-2.8865,-2.8865,-2.8826,-2.8826,-2.8865,-2.9114,-2.9291,-2.9321,-2.9344,-2.9248,-2.9003,-2.8465,-2.7816,-2.7137,-2.6477,-2.6006,-2.5642,-2.5513,-2.5572,-2.4963,-2.5673,-2.6695,-2.7894,-2.8383,-2.8785,-2.9616,-3.0221,-3.0447,-2.9901,-3.1257,-3.2786,-3.3812,-3.4493,-3.4902,-3.4902,-3.4902,-3.4902,-3.4902,-3.4902,-3.4902,-3.4902,-3.4902,-3.4902,-3.4902,-3.4783,-3.4698,-3.4698,-3.4515,-3.4414,-3.4414,-3.4414,-3.4414,-3.4414,-3.4597,-3.4698,-3.4698,-3.4698,-3.4698,-3.4683,-3.3889,-3.3804,-3.4414,-3.438,-3.438,-3.4414,-3.4597,-3.4597,-3.4337,-3.3518,-3.262,-3.1683,-3.1567,-3.1308,-3.0957,-3.0465,-3.0099,-2.9839,-3.0038,-2.9962,-2.9839,-3.0038,-3.0099,-3.0099,-3.0099,-3.019,-3.0282,-3.0282,-3.0282,-3.0387,-3.0702,-3.1029,-3.1143,-3.0615,-3.0606,-3.0524,-2.9862,-2.986,-3.0221,-3.0873,-3.0529,-3.0177,-3.0376,-2.9903,-2.9357,-2.888,-2.8858,-2.8873,-2.8794,-2.8842,-2.8865,-2.8794,-2.8794,-2.8794,-2.8794,-2.8794,-2.8794,-2.8794,-2.8794,-2.8826,-2.8881,-2.9029,-2.8714,-2.7924,-2.8027,-2.7371,-2.5895,-2.5764,-2.5477,-2.5091,-2.4958,-2.5079,-2.4888,-2.5492,-2.6449,-2.7868,-2.7865,-2.7925,-2.9338,-2.9974,-3.0203,-3.0036,-3.124,-3.2384,-3.2684,-3.3725,-3.4534,-3.4534,-3.4683,-3.475,-3.475,-3.4949,-3.5082,-3.4935,-3.4902,-3.4868,-3.475,-3.4582,-3.4481,-3.4481,-3.4312,-3.423,-3.438,-3.4191,-3.4088,-3.421,-3.4157,-3.4122,-3.4122,-3.4244,-3.4264,-3.4264,-3.4192,-3.424,-3.4366,-3.3816,-3.3778,-3.421,-3.4157,-3.3951,-3.3612,-3.3226,-3.2857,-3.2544,-3.2345,-3.1653,-3.0747,-3.0528,-3.0125,-2.962,-2.9463,-2.9418,-2.9467,-2.9529,-2.9637,-2.9758,-2.9758,-2.9837,-2.9946,-2.9837,-2.9898,-2.9946,-2.996,-3.0036,-3.0253,-3.0793,-3.0836,-3.0586,-2.9937,-3.0342,-3.0765,-3.0496,-3.0983,-3.1308,-3.0891,-3.0446,-2.9899,-2.9196,-2.8859,-2.8605,-2.8405,-2.8308,-2.8259,-2.8241,-2.8241,-2.8241,-2.8241,-2.8241,-2.8241,-2.8241,-2.8241,-2.842,-2.8826,-2.8873,-2.8779,-2.8545,-2.8022,-2.7319,-2.6457,-2.586,-2.5274,-2.4751,-2.4715,-2.4819,-2.4564,-2.5159,-2.6063,-2.7044,-2.7128,-2.7385,-2.8921,-2.9571,-2.982,-2.9789,-3.0987,-3.2019,-3.2116,-3.3278,-3.4191,-3.4191,-3.4293,-3.4361,-3.4361,-3.4563,-3.465,-3.4601,-3.4601,-3.4568,-3.4597,-3.4481,-3.438,-3.4312,-3.4162,-3.4128,-3.4191,-3.4054,-3.3951,-3.3902,-3.3937,-3.3917,-3.3793,-3.4005,-3.4059,-3.404,-3.3951,-3.4033,-3.4176,-3.3739,-3.3748,-3.4005,-3.3779,-3.3501,-3.3157,-3.3072,-3.287,-3.2665,-3.2221,-3.1581,-3.0851,-3.003,-2.9569,-2.9256,-2.883,-2.8766,-2.8817,-2.8817,-2.8894,-2.9004,-2.9004,-2.9149,-2.9293,-2.9149,-2.9198,-2.9324,-2.9306,-2.9275,-2.9495,-3.031,-3.0447,-3.0273,-2.9897,-3.0322,-3.0646,-3.0236,-3.0778,-3.1038,-3.0171,-2.9928,-2.9516,-2.8693,-2.8446,-2.8308,-2.821,-2.8079,-2.7995,-2.7995,-2.7995,-2.7995,-2.7995,-2.7995,-2.7995,-2.7995,-2.7995,-2.8143,-2.8484,-2.8517,-2.8589,-2.8652,-2.7899,-2.7225,-2.6579,-2.5781,-2.5058,-2.4441,-2.4441,-2.4528,-2.4103,-2.4781,-2.5688,-2.5935,-2.6487,-2.7264,-2.8348,-2.8998,-2.9338,-2.9279,-3.0526,-3.1707,-3.1885,-3.2958,-3.3813,-3.3862,-3.3862,-3.3862,-3.3896,-3.3917,-3.3951,-3.4094,-3.4094,-3.4162,-3.4346,-3.438,-3.4312,-3.4128,-3.4094,-3.404,-3.3917,-3.4005,-3.3902,-3.3605,-3.3868,-3.3839,-3.3485,-3.3825,-3.3942,-3.3728,-3.3369,-3.3412,-3.3813,-3.3914,-3.3885,-3.3693,-3.3311,-3.301,-3.2821,-3.2785,-3.2573,-3.2179,-3.1439,-3.1158,-3.0934,-2.9279,-2.875,-2.8765,-2.8266,-2.8079,-2.8079,-2.8079,-2.8079,-2.8079,-2.8079,-2.8308,-2.8522,-2.8333,-2.8411,-2.8587,-2.8707,-2.8739,-2.8881,-2.9352,-2.9588,-2.9716,-2.9716,-2.9839,-2.9976,-2.9976,-3.0072,-2.9837,-2.8727,-2.8664,-2.8502,-2.7652,-2.774,-2.7955,-2.8088,-2.7989,-2.793,-2.793,-2.793,-2.793,-2.793,-2.793,-2.793,-2.793,-2.793,-2.793,-2.793,-2.8103,-2.825,-2.8363,-2.7649,-2.698,-2.6356,-2.5501,-2.4762,-2.4166,-2.4166,-2.4193,-2.3745,-2.4777,-2.6082,-2.6519,-2.7499,-2.8171,-2.7349,-2.8074,-2.8926,-2.8899,-3.0202,-3.1277,-3.1163,-3.2269,-3.3248,-3.3382,-3.3431,-3.3536,-3.3862,-3.3971,-3.4074,-3.4094,-3.4094,-3.4128,-3.4162,-3.4162,-3.4196,-3.4346,-3.4088,-3.3985,-3.4059,-3.3695,-3.3521,-3.3605,-3.3536,-3.3142,-3.2429,-3.3128,-3.3128,-3.2498,-3.3022,-3.3262,-3.3199,-3.3018,-3.2758,-3.2464,-3.2111,-3.1716,-3.1329,-3.1082,-3.0979,-3.1055,-3.0877,-3.0412,-2.9855,-2.9461,-2.893,-2.841,-2.8185,-2.8,-2.7888,-2.8046,-2.8,-2.7888,-2.8046,-2.8145,-2.821,-2.8177,-2.8164,-2.821,-2.8229,-2.8262,-2.8262,-2.8406,-2.872,-2.9012,-2.9012,-2.9044,-2.9075,-2.9075,-2.9153,-2.8965,-2.8196,-2.7923,-2.7579,-2.7006,-2.7089,-2.7207,-2.7174,-2.728,-2.7361,-2.7361,-2.7361,-2.7361,-2.7361,-2.7361,-2.7361,-2.7361,-2.7361,-2.7412,-2.7529,-2.7855,-2.8054,-2.8094,-2.6915,-2.6237,-2.6085,-2.4874,-2.4183,-2.4024,-2.4024,-2.4046,-2.3505,-2.4293,-2.5361,-2.6243,-2.7131,-2.7592,-2.6887,-2.764,-2.8344,-2.7878,-2.9471,-3.0861,-3.0692,-3.1714,-3.2596,-3.2731,-3.2874,-3.3086,-3.3297,-3.3542,-3.3764,-3.3868,-3.3937,-3.404,-3.4094,-3.4196,-3.423,-3.4264,-3.4054,-3.3882,-3.3868,-3.3605,-3.3382,-3.3333,-3.3312,-3.3017,-3.2374,-3.2919,-3.2919,-3.2374,-3.2905,-3.3058,-3.2832,-3.2688,-3.2465,-3.2082,-3.1646,-3.1164,-3.0624,-3.0378,-3.0288,-3.0282,-3.0052,-2.9794,-2.9462,-2.8786,-2.8392,-2.8158,-2.7708,-2.7503,-2.7436,-2.7549,-2.7516,-2.7436,-2.7549,-2.7649,-2.7716,-2.7616,-2.7649,-2.7716,-2.7716,-2.7716,-2.7749,-2.7802,-2.8151,-2.8463,-2.8463,-2.8463,-2.8382,-2.8084,-2.8181,-2.8038,-2.7091,-2.6779,-2.6574,-2.634,-2.6392,-2.6472,-2.6602,-2.6642,-2.6709,-2.6762,-2.6762,-2.6762,-2.6762,-2.6762,-2.6762,-2.6762,-2.6762,-2.6867,-2.7063,-2.7269,-2.7524,-2.7905,-2.6844,-2.6149,-2.5909,-2.4821,-2.4113,-2.3818,-2.379,-2.3812,-2.3079,-2.3756,-2.4527,-2.561,-2.6354,-2.679,-2.6634,-2.7386,-2.79,-2.698,-2.8712,-3.0365,-3.044,-3.1246,-3.2006,-3.2259,-3.2525,-3.2739,-3.2846,-3.3122,-3.3361,-3.357,-3.3744,-3.3917,-3.4059,-3.421,-3.4244,-3.4128,-3.3951,-3.3793,-3.3605,-3.357,-3.3382,-3.3072,-3.3192,-3.303,-3.2552,-3.2791,-3.2755,-3.2445,-3.2733,-3.2775,-3.2596,-3.25,-3.222,-3.1812,-3.1198,-3.0595,-3.0018,-2.9848,-2.9711,-2.9533,-2.9114,-2.9065,-2.9087,-2.791,-2.7668,-2.7799,-2.7212,-2.699,-2.6943,-2.6943,-2.6879,-2.6815,-2.6918,-2.7002,-2.7085,-2.7019,-2.7113,-2.7235,-2.7235,-2.7235,-2.7268,-2.7323,-2.7557,-2.7749,-2.7934,-2.7868,-2.7623,-2.7107,-2.7108,-2.6856,-2.5781,-2.5545,-2.5522,-2.5605,-2.5674,-2.5797,-2.6041,-2.6014,-2.6014,-2.6122,-2.6149,-2.6149,-2.6149,-2.6149,-2.6149,-2.6176,-2.6149,-2.627,-2.6551,-2.651,-2.6774,-2.7433,-2.6857,-2.6318,-2.5882,-2.5001,-2.4283,-2.3731,-2.3576,-2.3596,-2.2149,-2.3638,-2.4975,-2.5037,-2.6193,-2.7096,-2.6356,-2.7256,-2.8078,-2.7365,-2.8385,-2.9646,-3.0494,-3.0942,-3.158,-3.2932,-3.2895,-3.2881,-3.3417,-3.3396,-3.3361,-3.357,-3.3605,-3.3709,-3.3917,-3.3965,-3.402,-3.4094,-3.3799,-3.364,-3.3605,-3.3431,-3.3326,-3.3241,-3.3108,-3.2667,-3.193,-3.2299,-3.2135,-3.148,-3.2032,-3.2277,-3.2264,-3.1711,-3.1258,-3.0829,-2.9876,-2.9127,-2.8562,-2.8562,-2.8457,-2.8306,-2.8067,-2.7914,-2.7745,-2.7421,-2.7253,-2.7114,-2.7037,-2.6875,-2.676,-2.676,-2.643,-2.6125,-2.6608,-2.6565,-2.6429,-2.6883,-2.7024,-2.7045,-2.7045,-2.7045,-2.7011,-2.685,-2.648,-2.6429,-2.7232,-2.6893,-2.6432,-2.6355,-2.5675,-2.4931,-2.4442,-2.4518,-2.4637,-2.4523,-2.495,-2.5244,-2.5188,-2.537,-2.5508,-2.5508,-2.5508,-2.5508,-2.5508,-2.5508,-2.5577,-2.577,-2.5619,-2.566,-2.5988,-2.5715,-2.5728,-2.6054,-2.6188,-2.6214,-2.615,-2.4993,-2.4386,-2.4282,-2.3755,-2.3509,-2.2395,-2.4159,-2.5661,-2.5403,-2.6072,-2.6605,-2.5973,-2.6654,-2.732,-2.7027,-2.765,-2.8511,-2.9416,-2.9985,-3.068,-3.1665,-3.196,-3.2225,-3.2725,-3.31,-3.3326,-3.3431,-3.364,-3.3793,-3.3896,-3.3985,-3.4005,-3.3985,-3.3744,-3.3605,-3.3605,-3.3396,-3.3206,-3.2966,-3.2881,-3.2579,-3.2012,-3.22,-3.2141,-3.1789,-3.1951,-3.1897,-3.1667,-3.0774,-3.0357,-3.0316,-2.9538,-2.8732,-2.8006,-2.7908,-2.7756,-2.7636,-2.7436,-2.7302,-2.7214,-2.7032,-2.6897,-2.6807,-2.6615,-2.6499,-2.6396,-2.628,-2.6083,-2.5934,-2.6171,-2.6152,-2.6083,-2.6321,-2.6396,-2.6396,-2.6521,-2.6452,-2.6308,-2.6029,-2.5631,-2.5377,-2.5469,-2.5499,-2.5376,-2.5141,-2.4538,-2.4047,-2.3953,-2.4073,-2.4173,-2.4189,-2.4247,-2.4376,-2.4593,-2.4593,-2.4622,-2.4766,-2.4709,-2.4709,-2.4794,-2.4709,-2.4738,-2.4893,-2.4823,-2.495,-2.5286,-2.5216,-2.5314,-2.5563,-2.5881,-2.5975,-2.5818,-2.53,-2.478,-2.424,-2.3968,-2.3621,-2.2666,-2.4205,-2.5611,-2.5463,-2.5681,-2.5874,-2.5595,-2.6147,-2.6764,-2.6765,-2.736,-2.7971,-2.8409,-2.904,-2.9797,-3.0618,-3.1186,-3.1656,-3.205,-3.2741,-3.3241,-3.3241,-3.357,-3.3827,-3.3827,-3.3902,-3.3937,-3.3813,-3.364,-3.3536,-3.3536,-3.3396,-3.3122,-3.281,-3.2739,-3.2574,-3.2241,-3.2182,-3.2109,-3.2109,-3.1765,-3.142,-3.1047,-2.9944,-2.9528,-2.9661,-2.9073,-2.8432,-2.7723,-2.7556,-2.7369,-2.7134,-2.6977,-2.6909,-2.6841,-2.6624,-2.6555,-2.6521,-2.6236,-2.6097,-2.6015,-2.5875,-2.5707,-2.5575,-2.5721,-2.566,-2.5575,-2.5721,-2.5758,-2.5756,-2.5817,-2.5724,-2.5463,-2.508,-2.4646,-2.4205,-2.3891,-2.4131,-2.4291,-2.3841,-2.3505,-2.3348,-2.3488,-2.3586,-2.37,-2.378,-2.3616,-2.3616,-2.4015,-2.3894,-2.3848,-2.4044,-2.4015,-2.4015,-2.4073,-2.4015,-2.4044,-2.4189,-2.4131,-2.4218,-2.4563,-2.4578,-2.4708,-2.4922,-2.5244,-2.5423,-2.5479,-2.5377,-2.4902,-2.4076,-2.3963,-2.3589,-2.2557,-2.3252,-2.4206,-2.457,-2.4833,-2.5023,-2.527,-2.6115,-2.6915,-2.6987,-2.7975,-2.8644,-2.7967,-2.8364,-2.9219,-3.065,-3.1289,-3.1638,-3.1813,-3.252,-3.3023,-3.3023,-3.3368,-3.3605,-3.3605,-3.3605,-3.3605,-3.3605,-3.3431,-3.3326,-3.3326,-3.3326,-3.3206,-3.2988,-3.281,-3.2596,-3.2381,-3.2082,-3.1927,-3.1927,-3.1118,-3.0645,-3.0411,-2.9449,-2.8815,-2.8468,-2.8046,-2.7749,-2.749,-2.749,-2.7201,-2.6726,-2.6726,-2.6611,-2.6427,-2.6292,-2.6236,-2.6201,-2.598,-2.5793,-2.5641,-2.5606,-2.5161,-2.4662,-2.5191,-2.4963,-2.4662,-2.5203,-2.5347,-2.5262,-2.4951,-2.4762,-2.4538,-2.4008,-2.3248,-2.2692,-2.2979,-2.3075,-2.2982,-2.2554,-2.2463,-2.2543,-2.2708,-2.286,-2.2939,-2.2969,-2.3047,-2.3198,-2.342,-2.3433,-2.3433,-2.3463,-2.3539,-2.3569,-2.3463,-2.3569,-2.3717,-2.392,-2.3611,-2.3611,-2.392,-2.3641,-2.3539,-2.3675,-2.3907,-2.4478,-2.5412,-2.4884,-2.4445,-2.4005,-2.3609,-2.3187,-2.2489,-2.3275,-2.4133,-2.3585,-2.4008,-2.4584,-2.4593,-2.5432,-2.6282,-2.6569,-2.7352,-2.7973,-2.7815,-2.8378,-2.9145,-3.0063,-3.045,-3.0926,-3.1734,-3.2294,-3.2668,-3.281,-3.3157,-3.3396,-3.3396,-3.3536,-3.3331,-3.2701,-3.2919,-3.287,-3.2375,-3.2687,-3.281,-3.2632,-3.2561,-3.2359,-3.2082,-3.1817,-3.172,-3.1706,-3.0874,-3.0325,-2.9963,-2.9029,-2.8326,-2.7824,-2.7581,-2.7436,-2.7335,-2.7087,-2.6816,-2.6496,-2.628,-2.6141,-2.6072,-2.6015,-2.5945,-2.5793,-2.5571,-2.5382,-2.5206,-2.5123,-2.4827,-2.4566,-2.4898,-2.4672,-2.4377,-2.4719,-2.4683,-2.453,-2.4178,-2.3979,-2.3641,-2.2688,-2.1953,-2.1486,-2.153,-2.185,-2.2088,-2.1812,-2.1913,-2.2111,-2.2173,-2.2328,-2.2494,-2.2574,-2.2635,-2.2757,-2.303,-2.3012,-2.2982,-2.3072,-2.3042,-2.3042,-2.306,-2.303,-2.3103,-2.3253,-2.315,-2.297,-2.2753,-2.3051,-2.3124,-2.2958,-2.3016,-2.3663,-2.4823,-2.4761,-2.4587,-2.4302,-2.3842,-2.3315,-2.2682,-2.3212,-2.3851,-2.2937,-2.3233,-2.3785,-2.3975,-2.4649,-2.538,-2.5816,-2.6648,-2.7324,-2.7328,-2.8031,-2.8839,-2.9395,-2.9795,-3.0333,-3.1374,-3.1997,-3.2395,-3.2503,-3.2874,-3.3122,-3.3192,-3.3276,-3.3059,-3.2451,-3.273,-3.2666,-3.2124,-3.2483,-3.2596,-3.2322,-3.225,-3.2082,-3.178,-3.1409,-3.1193,-3.1179,-3.0132,-2.9482,-2.9192,-2.8338,-2.7699,-2.7302,-2.7167,-2.71,-2.7066,-2.6748,-2.6393,-2.6117,-2.5968,-2.5793,-2.5618,-2.5676,-2.5571,-2.5382,-2.5182,-2.4969,-2.4743,-2.4706,-2.4454,-2.4236,-2.4454,-2.4273,-2.4007,-2.408,-2.4007,-2.3775,-2.3199,-2.2811,-2.232,-2.1462,-2.1044,-2.0786,-2.054,-2.0958,-2.1371,-2.1348,-2.1506,-2.1706,-2.1812,-2.1937,-2.2061,-2.2142,-2.2185,-2.2266,-2.2543,-2.2494,-2.2463,-2.2543,-2.2586,-2.2586,-2.2574,-2.2586,-2.2647,-2.2726,-2.2635,-2.2445,-2.2209,-2.2416,-2.2461,-2.2276,-2.2146,-2.2566,-2.3485,-2.3923,-2.3912,-2.3486,-2.3453,-2.3048,0.0,0.0,0.0,-2.2657,-2.2506,-2.2701,-2.338,-2.3876,-2.4324,-2.4779,-2.6,-2.6855,-2.6492,-2.732,-2.8235,-2.8749,-2.9342,-2.9975,-3.0597,-3.1523,-3.2155,-3.2182,-3.2453,-3.2747,-3.2925,-3.2769,-3.272,-3.2932,-3.2755,-3.2662,-3.2676,-3.264,-3.2511,-3.2191,-3.1959,-3.1726,-3.1556,-3.0752,-3.0352,-3.0339,-2.8855,-2.8114,-2.8088,-2.7361,-2.7016,-2.7016,-2.6773,-2.6679,-2.6692,-2.6461,-2.6082,-2.5606,-2.5793,-2.5535,-2.5052,-2.5241,-2.5158,-2.4945,-2.4814,-2.4538,-2.42,-2.4418,-2.408,-2.3641,-2.3824,-2.3751,-2.353,-2.3335,-2.3261,-2.304,-2.2057,-2.1174,-2.055,-2.0399,-2.054,-2.0572,-2.0183,-2.041,-2.0765,-2.1106,-2.119,-2.1296,-2.1604,-2.1667,-2.1667,-2.1667,-2.1667,-2.173,-2.1874,-2.1894,-2.1894,-2.1894,-2.2204,-2.2235,-2.1925,-2.2204,-2.2389,-2.2389,-2.2068,-2.2025,-2.2341,-2.1705,-2.1427,-2.154,-2.1227,-2.1172,-2.1468,-2.2359,-2.2358,-2.1551,-2.2326,-2.2358,-2.3916,0.0,0.0,0.0,0.0,0.0,-2.2236,-2.2997,-2.3933,-2.4319,-2.5568,-2.6506,-2.6278,-2.7009,-2.767,-2.7738,-2.8323,-2.9184,-3.0306,-3.0728,-3.1175,-3.1909,-3.1789,-3.1766,-3.1977,-3.1633,-3.1371,-3.133,-3.1296,-3.1384,-3.1681,-3.1539,-3.1419,-3.1325,-3.0601,-3.021,-3.0139,-2.9647,-2.9376,-2.9376,-2.8815,-2.853,-2.8505,-2.7857,-2.7544,-2.7405,-2.6663,-2.6349,-2.6327,-2.6107,-2.5781,-2.5382,-2.5324,-2.5218,-2.5076,-2.4981,-2.473,-2.4431,-2.4381,-2.4116,-2.3787,-2.3824,-2.3519,-2.3187,-2.3409,-2.3001,-2.2515,-2.244,-2.244,-2.2264,-2.1432,-2.0658,-2.0064,-1.9868,-1.9868,-1.9878,-1.978,-1.9846,-2.0042,-2.0529,-2.0733,-2.0862,-2.0958,-2.1001,-2.1022,-2.1106,-2.1265,-2.1391,-2.1526,-2.1675,-2.1761,-2.1761,-2.1855,-2.1855,-2.1761,-2.1855,-2.1937,-2.2018,-2.1507,-2.1116,-2.0955,-2.0694,-2.0473,-2.0282,-2.0193,-2.0287,-2.0563,-2.1816,-2.2445,-2.2448,-2.2328,-2.1878,-2.4388,-2.4401,-2.436,-2.303,0.0,0.0,-2.1874,-2.245,-2.3134,-2.3018,-2.4161,-2.5147,-2.497,-2.5682,-2.6291,-2.6226,-2.6739,-2.7775,-2.9679,-3.0023,-3.0377,-3.1192,-3.0989,-3.098,-3.1449,-3.1007,-3.0685,-3.0712,-3.061,-3.0657,-3.0788,-3.0683,-3.0564,-3.0436,-2.9892,-2.9557,-2.9487,-2.9155,-2.9012,-2.8977,-2.8495,-2.825,-2.8224,-2.7392,-2.6964,-2.6859,-2.6126,-2.5688,-2.5489,-2.543,-2.5312,-2.5158,-2.4933,-2.4766,-2.4586,-2.4454,-2.4164,-2.3824,-2.3751,-2.3446,-2.3075,-2.3001,-2.2777,-2.2515,-2.2628,-2.2327,-2.1959,-2.1883,-2.149,-2.0952,-2.0373,-1.9774,-1.932,-1.9374,-1.9341,-1.9274,-1.9374,-1.9341,-1.9473,-2.0129,-2.0356,-2.0496,-2.0572,-2.0637,-2.0701,-2.069,-2.085,-2.101,-2.1094,-2.1213,-2.1276,-2.1276,-2.134,-2.1371,-2.1371,-2.1434,-2.1561,-2.1694,-2.1058,-2.0637,-2.0523,-2.0012,-1.9681,-1.9598,-1.9455,-1.9619,-2.0138,-2.0999,-2.1591,-2.1926,-2.1488,-2.1108,-2.4673,-2.4468,-2.445,-2.3735,-2.3113,0.0,-2.2023,-2.2149,-2.2193,-2.1527,-2.2556,-2.3498,-2.326,-2.4031,-2.4654,-2.4632,-2.496,-2.6136,-2.873,-2.9166,-2.9482,-3.023,-3.0024,-3.0129,-3.0994,-3.052,-3.0263,-3.0535,-3.0433,-3.0261,-2.9994,-2.996,-2.9822,-2.9521,-2.9385,-2.9254,-2.9043,-2.8844,-2.8702,-2.863,-2.7863,-2.7483,-2.7387,-2.6394,-2.5926,-2.5879,-2.5419,-2.4933,-2.449,-2.4515,-2.4647,-2.4802,-2.4514,-2.4164,-2.3824,-2.3787,-2.3497,-2.311,-2.2888,-2.259,-2.2253,-2.2065,-2.188,-2.1731,-2.1731,-2.1693,-2.1606,-2.1375,-2.0436,-1.9469,-1.9189,-1.8817,-1.8543,-1.8898,-1.8841,-1.8774,-1.8942,-1.8841,-1.8931,-1.9748,-1.9977,-2.0085,-2.0237,-2.0443,-2.0508,-2.0346,-2.0508,-2.0637,-2.0604,-2.0637,-2.0669,-2.0669,-2.0786,-2.0839,-2.0871,-2.0985,-2.1129,-2.1275,-2.0611,-2.03,-2.0512,-1.9541,-1.9046,-1.9198,-1.8927,-1.9147,-1.9864,-2.0113,-2.0395,-2.0679,-2.0411,-2.0361,-2.5317,-2.526,-2.5225,-2.4606,-2.4111,0.0,-2.2261,-2.2113,-2.2184,-2.1975,-2.2956,-2.371,-2.3358,-2.4368,-2.5006,-2.4252,-2.4509,-2.548,-2.7416,-2.7204,-2.7585,-2.9531,-2.8778,-2.8491,-2.951,-2.908,-2.8984,-2.9685,-3.0004,-2.9921,-2.9403,-2.9118,-2.8961,-2.8892,-2.8158,-2.766,-2.7443,-2.725,-2.6918,-2.6511,-2.6776,-2.6709,-2.6396,-2.6178,-2.5997,-2.584,-2.5026,-2.4503,-2.4238,-2.3765,-2.3692,-2.3886,-2.3787,-2.3641,-2.3372,-2.3038,-2.2576,-2.208,-2.1802,-2.1581,-2.1417,-2.138,-2.1367,-2.132,-2.132,-2.0964,-2.0508,-2.0166,-1.9474,-1.8881,-1.8805,-1.8468,-1.81,-1.8212,-1.8178,-1.8178,-1.8212,-1.8178,-1.8245,-1.8596,-1.9098,-1.9473,-1.9517,-1.9671,-1.9802,-1.978,-2.002,-2.0183,-2.0064,-2.0302,-2.0475,-2.0475,-2.0475,-2.0561,-2.0733,-2.0371,-2.0291,-2.058,-1.9623,-1.9137,-1.9401,-1.8682,-1.837,-1.8573,-1.8711,-1.8872,-1.9033,-1.9969,-2.0542,-2.0691,-2.0724,-2.0681,-2.549,-2.5508,-2.5524,-2.5019,-2.4646,0.0,0.0,-2.3043,-2.3056,-2.2605,-2.3177,-2.3593,-2.3082,-2.3601,-2.3935,-2.3386,-2.3528,-2.4133,-2.5366,-2.5814,-2.6752,-2.8759,-2.7912,-2.7644,-2.8831,-2.8165,-2.8015,-2.8835,-2.9093,-2.9033,-2.8665,-2.8305,-2.8069,-2.8014,-2.7457,-2.71,-2.6998,-2.6889,-2.6714,-2.6445,-2.6359,-2.619,-2.5996,-2.5321,-2.5033,-2.4996,-2.4109,-2.3703,-2.357,-2.3176,-2.2927,-2.2852,-2.2964,-2.2927,-2.2815,-2.2402,-2.2002,-2.1584,-2.1102,-2.1009,-2.0994,-2.0639,-2.0643,-2.0741,-2.0741,-2.0381,-1.9779,-1.9108,-1.8648,-1.8322,-1.7908,-1.7622,-1.7495,-1.7701,-1.7598,-1.7495,-1.7701,-1.7666,-1.7657,-1.7872,-1.8236,-1.8596,-1.8854,-1.9075,-1.9241,-1.9341,-1.9396,-1.9528,-1.9736,-1.9813,-1.9878,-1.9976,-2.0009,-2.0009,-2.0068,-1.9802,-1.9683,-1.9814,-1.9041,-1.8669,-1.88,-1.8292,-1.8139,-1.8394,-1.8664,-1.8798,-1.8798,-1.9437,-1.9853,-2.0039,-2.0131,-2.0191,-2.5373,-2.5397,-2.5546,-2.5309,-2.5021,-2.4689,0.0,0.0,0.0,-2.3138,-2.3356,-2.3486,-2.2878,-2.2878,-2.2877,-2.2683,-2.2649,-2.2896,-2.3676,-2.4649,-2.5883,-2.7433,-2.6739,-2.6627,-2.7888,-2.7155,-2.7025,-2.7975,-2.7921,-2.7824,-2.7841,-2.7617,-2.7403,-2.7302,-2.7045,-2.6841,-2.6773,-2.6751,-2.6644,-2.6453,-2.5889,-2.5561,-2.5402,-2.4336,-2.3861,-2.3861,-2.3261,-2.2889,-2.2703,-2.259,-2.2289,-2.1959,-2.2176,-2.2252,-2.2176,-2.1769,-2.1489,-2.1166,-2.0594,-2.0526,-2.0593,-2.0039,-1.9985,-2.0128,-2.0051,-1.9711,-1.9192,-1.8201,-1.7916,-1.7725,-1.6995,-1.6769,-1.6874,-1.7185,-1.7012,-1.6874,-1.7185,-1.7176,-1.7132,-1.7254,-1.7451,-1.7774,-1.8307,-1.8529,-1.8707,-1.8908,-1.8808,-1.8841,-1.9241,-1.9175,-1.9144,-1.9225,-1.9248,-1.9188,-1.9059,-1.8972,-1.8879,-1.8829,-1.8429,-1.818,-1.8208,-1.7985,-1.8018,-1.834,-1.8583,-1.8744,-1.8771,-1.8866,-1.9078,-1.9368,-1.9368,-1.9565,-2.5071,-2.5009,-2.5274,-2.5697,-2.5473,-2.5176,-2.5271,0.0,-2.4288,-2.3359,0.0,-2.3752,-2.3087,0.0,0.0,-2.2923,-2.2605,-2.274,-2.3598,-2.3591,-2.3808,-2.4645,-2.4432,-2.4541,-2.5332,-2.5301,-2.5761,-2.7059,-2.6549,-2.6356,-2.6836,-2.7163,-2.7302,-2.7302,-2.6748,-2.6336,-2.605,-2.5854,-2.5337,-2.4523,-2.4607,-2.439,-2.3866,-2.37,-2.3335,-2.2889,-2.2964,-2.2478,-2.1693,-2.1845,-2.1655,-2.1359,-2.1731,-2.1769,-2.154,-2.1167,-2.0715,-2.0309,-2.0082,-1.9979,-1.998,-1.9715,-1.9649,-1.9571,-1.9044,-1.8731,-1.8366,-1.7551,-1.7216,-1.7009,-1.6492,-1.6386,-1.6377,-1.6421,-1.6412,-1.6377,-1.6421,-1.6542,-1.6612,-1.6482,-1.689,-1.7442,-1.7964,-1.8076,-1.8178,-1.8371,-1.8371,-1.8303,-1.8212,-1.8313,-1.8298,-1.7941,-1.7933,-1.7882,-1.7823,-1.7358,-1.723,-1.7506,-1.7187,-1.7051,-1.7171,-1.7529,-1.7838,-1.8139,-1.834,-1.8491,-1.8614,-1.864,-1.8839,-1.9223,-1.9225,-1.937,-2.6405,-2.6421,-2.6457,-2.6118,-2.6104,-2.6086,-2.5653,-2.5454,-2.5198,-2.4597,0.0,0.0,0.0,0.0,0.0,0.0,-2.2881,-2.2712,-2.3074,-2.27,-2.2966,-2.4478,-2.4099,-2.3764,-2.3826,-2.4344,-2.4827,-2.5236,-2.5336,-2.5576,-2.603,-2.6322,-2.6585,-2.6756,-2.6452,-2.6037,-2.5571,-2.5229,-2.4778,-2.42,-2.3934,-2.3556,-2.3075,-2.2964,-2.2628,-2.2176,-2.2138,-2.1883,-2.1502,-2.1474,-2.1359,-2.1215,-2.1244,-2.1244,-2.1089,-2.0702,-2.042,-2.0187,-1.9707,-1.9822,-2.0111,-1.9831,-1.9604,-1.9307,-1.8709,-1.8282,-1.7852,-1.6965,-1.6673,-1.6504,-1.6104,-1.6,-1.607,-1.6237,-1.6237,-1.6202,-1.6272,-1.6377,-1.6403,-1.6307,-1.6517,-1.6795,-1.7132,-1.7373,-1.7613,-1.792,-1.7784,-1.7759,-1.7974,-1.7964,-1.792,-1.7898,-1.7675,-1.7437,-1.721,-1.689,-1.6645,-1.6624,-1.6543,-1.6609,-1.6881,-1.706,-1.7312,-1.7579,-1.7936,-1.8127,-1.8197,-1.8383,-1.8598,-1.8839,-1.8854,-1.9028,-2.7344,-2.7434,-2.734,-2.655,-2.6603,-2.6641,-2.5865,-2.577,-2.5735,-2.5343,-2.4993,0.0,0.0,0.0,-2.3566,-2.3451,0.0,-2.2531,-2.2449,-2.2009,-2.2277,-2.3851,-2.3473,-2.3077,-2.3056,-2.3328,-2.3537,-2.3603,-2.3936,-2.4361,-2.4844,-2.5179,-2.5509,-2.5882,-2.5661,-2.5357,-2.4955,-2.4472,-2.4125,-2.3861,-2.3335,-2.2852,-2.2515,-2.2252,-2.1911,-2.153,-2.1387,-2.1223,-2.1079,-2.0964,-2.0896,-2.0809,-2.0664,-2.0625,-2.0586,-2.0381,-2.0264,-2.0099,-1.9639,-1.9734,-2.005,-1.9731,-1.9455,-1.9064,-1.8244,-1.7764,-1.735,-1.6413,-1.6082,-1.5933,-1.5715,-1.5647,-1.5682,-1.5956,-1.5912,-1.5885,-1.5991,-1.6026,-1.6061,-1.6061,-1.6167,-1.6307,-1.6438,-1.6786,-1.7132,-1.7442,-1.7176,-1.7076,-1.7494,-1.7417,-1.7335,-1.7365,-1.71,-1.6799,-1.65,-1.6285,-1.6108,-1.599,-1.6066,-1.6296,-1.6637,-1.6666,-1.6807,-1.7134,-1.7484,-1.7705,-1.7799,-1.7975,-1.8193,-1.8398,-1.8506,-1.8747,-2.7133,-2.7251,-2.733,-2.704,-2.6833,-2.6563,-2.601,-2.5789,-2.5554,-2.502,-2.4744,-2.4538,-2.4343,-2.3909,-2.3545,-2.3341,-2.2687,0.0,0.0,-2.1589,-2.1515,-2.1858,-2.1834,-2.2128,-2.3106,-2.1973,-2.1628,-2.2572,-2.2166,-2.2242,-2.3047,-2.3592,-2.411,-2.4626,-2.414,-2.3927,-2.4025,-2.3455,-2.3089,-2.3038,-2.2628,-2.2327,-2.2111,-2.1693,-2.13,-2.0944,-2.0905,-2.0557,-1.9981,-2.0225,-2.0186,-1.9942,-1.9942,-1.9942,-1.9942,-2.0225,-2.0147,-1.9902,-1.9883,-1.9784,-1.9571,-1.9161,-1.9029,-1.8737,-1.7374,-1.6952,-1.6747,-1.5796,-1.5407,-1.5213,-1.5204,-1.524,-1.524,-1.524,-1.524,-1.524,-1.5232,-1.539,-1.5541,-1.5541,-1.585,-1.6096,-1.6096,-1.6403,-1.6682,-1.6899,-1.6578,-1.634,-1.634,-1.634,-1.6217,-1.5804,-1.5748,-1.5647,-1.5365,-1.5175,-1.5254,-1.5672,-1.5711,-1.5904,-1.6296,-1.6324,-1.6542,-1.7011,-1.7011,-1.7179,-1.7496,-1.7329,-1.7468,-1.7925,-1.8247,-1.8556,-2.8591,-2.868,-2.8627,-2.8184,-2.8043,-2.7755,-2.6719,-2.6741,-2.6687,-2.5698,-2.5508,-2.5294,-2.4522,-2.4157,-2.3874,-2.3481,-2.3142,-2.2731,0.0,-2.1348,-2.0715,-2.0502,-2.034,-2.0327,-2.0543,-1.9962,-1.9759,-2.0204,-2.03,-2.0715,-2.1564,-2.2341,-2.3001,-2.3506,-2.3938,-2.3883,-2.3396,-2.343,-2.3095,-2.2402,-2.2252,-2.1959,-2.1502,-2.1359,-2.1002,-2.0489,-2.0489,-2.0255,-1.9902,-1.9833,-1.9794,-1.9676,-1.9548,-1.9429,-1.9311,-1.9548,-1.9578,-1.946,-1.935,-1.928,-1.9173,-1.9037,-1.8806,-1.8386,-1.7235,-1.6827,-1.6476,-1.5383,-1.4963,-1.482,-1.4963,-1.4892,-1.4856,-1.4963,-1.5098,-1.5169,-1.5034,-1.5177,-1.5311,-1.5311,-1.5532,-1.5709,-1.5709,-1.6026,-1.6377,-1.6647,-1.6356,-1.6136,-1.6288,-1.6074,-1.5845,-1.5707,-1.545,-1.528,-1.5173,-1.4937,-1.4961,-1.5362,-1.5362,-1.5469,-1.571,-1.5836,-1.6019,-1.6267,-1.6467,-1.6655,-1.6909,-1.7011,-1.7179,-1.744,-1.7689,-1.81,-2.9449,-2.9442,-2.9218,-2.8642,-2.8579,-2.832,-2.7015,-2.6902,-2.6887,-2.6193,-2.5702,-2.5324,-2.5121,-2.4493,-2.3871,-2.3553,-2.2974,-2.2255,0.0,-2.0495,-1.983,-1.9653,-1.9612,-1.9467,-1.9125,-1.8947,-1.8845,-1.892,-1.9132,-1.9592,-2.0463,-2.1115,-2.1798,-2.2472,-2.3124,-2.3271,-2.29,-2.2877,-2.2604,-2.1987,-2.1683,-2.1339,-2.0964,-2.0731,-2.043,-2.0029,-1.9912,-1.9754,-1.9548,-1.9359,-1.9289,-1.925,-1.9073,-1.8913,-1.8843,-1.9073,-1.9152,-1.9073,-1.8843,-1.8843,-1.8865,-1.8642,-1.8448,-1.8028,-1.6763,-1.633,-1.607,-1.4912,-1.4533,-1.4461,-1.4569,-1.4533,-1.4461,-1.4569,-1.4705,-1.4776,-1.4641,-1.4784,-1.4919,-1.4991,-1.5141,-1.5278,-1.5285,-1.5504,-1.5817,-1.6164,-1.597,-1.5806,-1.5802,-1.5611,-1.5478,-1.5478,-1.5249,-1.5099,-1.5083,-1.4844,-1.4834,-1.5186,-1.5156,-1.5176,-1.5313,-1.5439,-1.5624,-1.5827,-1.599,-1.621,-1.6428,-1.6599,-1.6814,-1.705,-1.7245,-1.7661]},{"header":{"parameterUnit":"m.s-1","parameterCategory":1,"la1":30.6,"la2":29.2853,"lo1":-89.7004,"lo2":-87.6739,"dy":0.0162,"dx":0.0183,"nx":112,"ny":82,"refTime":"2024-05-01T12:00:00:Z","depth":0,"parameterNumber":3,"parameterNumberName":"V-component_of_WINDS"},"data":[0.0,0.0,0.0,0.0,0.0,0.0,0.0,0.0,0.0,0.0,0.0,0.0,0.0,0.0,0.0,0.0,0.0,0.0,0.0,0.0,0.0,0.0,0.0,0.0,0.0,0.0,0.0,0.0,0.0,0.0,0.0,0.0,0.0,0.0,0.0,0.0,0.0,0.0,0.0,0.0,0.0,0.0,0.0,0.0,0.0,0.0,0.0,0.0,0.0,0.0,0.0,0.0,0.0,0.0,0.0,0.0,0.0,0.0,0.0,0.0,0.0,0.0,0.0,0.0,0.0,0.0,0.0,0.0,0.0,0.0,0.0,0.0,0.0,0.0,0.0,0.0,0.0,0.0,0.0,0.0,0.0,0.0,0.0,0.0,0.0,0.0,0.0,0.0,0.0,0.0,-0.0896,-0.132,-0.1249,-0.1255,-0.1458,-0.1113,-0.1139,-0.1817,0.0,0.0,0.0,0.0,0.0,0.0,0.0,0.0,0.0,0.0,0.0,0.0,0.0,0.0,0.0,0.0,0.0,0.0,0.0,0.0,0.0,0.0,0.0,0.0,0.0,0.0,0.0,0.0,0.0,0.0,0.0,0.0,0.0,0.0,0.0,0.0,0.0,0.0,0.0,0.0,0.0,0.0,0.0,0.0,0.0,0.0,0.0,0.0,0.0,0.0,0.0,0.0,0.0,0.0,0.0,0.0,0.0,0.0,0.0,0.0,0.0,0.0,0.0,0.0,0.0,0.0,0.0,0.0,0.0,0.0,0.0,0.0,0.0,0.0,0.0,0.0,0.0,0.0,0.0,0.0,0.0,0.0,0.0,0.0,0.0,0.0,0.0,0.0,0.0,0.0,0.0,0.0,0.0,0.0,0.0,0.0,0.0,0.0,0.0,0.0,0.0,0.0,0.0,0.0,-0.0455,-0.0693,-0.0549,-0.0474,-0.0513,-0.0591,-0.083,-0.1225,0.0,0.0,0.0,0.0,0.0,0.0,0.0,0.0,0.0,0.0,0.0,0.0,0.0,0.0,0.0,0.0,0.0,0.0,0.0,0.0,0.0,0.0,0.0,0.0,0.0,0.0,0.0,0.0,0.0,0.0,0.0,0.0,0.0,0.0,0.0,0.0,0.0,0.0,0.0,0.0,0.0,0.0,0.0,0.0,0.0,0.0,0.0,0.0,0.0,0.0,0.0,0.0,0.0,0.0,0.0,0.0,0.0,0.0,0.0,0.0,0.0,0.0,0.0,0.0,0.0,0.0,0.0,0.0,0.0,0.0,0.0,0.0,0.0,0.0,0.0,0.0,0.0,0.0,0.0,0.0,0.0,0.0,0.0,0.0,0.0,0.0,0.0,0.0,0.0,0.0,0.0,0.0,0.0,0.0,0.0,0.0,0.0,0.0,0.0,0.0,0.0,0.0,0.0,-0.0268,-0.029,-0.0273,-0.0079,0.0,-0.012,0.0079,-0.0038,-0.0565,-0.1083,0.0,0.0,0.0,0.0,0.0,0.0,0.0,0.0,0.0,0.0,0.0,0.0,0.0,0.0,0.0,0.0,0.0,0.0,0.0,0.0,0.0,0.0,0.0,0.0,0.0,0.0,0.0,0.0,0.0,0.0,0.0,0.0,0.0,0.0,0.0,0.0,0.0,0.0,0.0,0.0,0.0,0.0,0.0,0.0,0.0,0.0,0.0,0.0,0.0,0.0,0.0,0.0,0.0,0.0,0.0,0.0,0.0,0.0,0.0,0.0,0.0,0.0,0.0,0.0,0.0,0.0,0.0,0.0,0.0,0.0,0.0,0.0,0.0,0.0,0.0,0.0,0.0,0.0,0.0,0.0,0.0,0.0,0.0,0.0,0.0,0.0,0.0,0.0,0.0,0.0,0.0,0.0,0.0,0.0,0.0,0.0,0.0,0.0,0.0,0.0,0.0,0.0,0.0,0.0038,0.0318,0.0516,0.06,0.0491,0.0751,0.0682,0.0181,-0.0194,0.0,0.0,0.0,0.0,0.0,0.0,0.0,0.0,0.0,0.0,0.0,0.0,0.0,0.0,0.0,0.0,0.0,0.0,0.0,0.0,0.0,0.0,0.0,0.0,0.0,0.0,0.0,0.0,0.0,0.0,0.0,0.0,0.0,0.0,0.0,0.0,0.0,0.0,0.0,0.0,0.0,0.0,0.0,0.0,0.0,0.0,0.0,0.0,0.0,0.0,0.0,0.0,0.0,0.0,0.0,0.0,0.0,0.0,0.0,0.0,0.0,0.0,0.0,0.0,0.0,0.0,0.0,0.0,0.0,0.0,0.0,0.0,0.0,0.0,0.0,0.0,0.0,0.0,0.0,0.0,0.0,0.0,0.0,0.0,0.0,0.0,0.0,0.0,0.0,0.0,0.0,0.0,0.0,0.0,0.0,0.0,0.0,0.0,0.0,0.0,0.0,0.0,0.0586,0.0853,0.1246,0.1478,0.1677,0.1925,0.1315,0.0978,0.1196,0.0123,0.0,0.0,0.0,0.0,0.0,0.0,0.0,0.0,0.0,0.0,0.0,0.0,0.0,0.0,0.0,0.0,0.0,0.0,0.0,0.0,0.0,0.0,0.0,0.0,0.0,0.0,0.0,0.0,0.0,0.0,0.0,0.0,0.0,0.0,0.0,0.0,0.0,0.0,0.0,0.0,0.0,0.0,0.0,0.0,0.0,0.0,0.0,0.0,0.0,0.0,0.0,0.0,0.0,0.0,0.0,0.0,0.0,0.0,0.0,0.0,0.0,0.0,0.0,0.0,0.0,0.0,0.0,0.0,0.0,0.0,0.0,0.0,0.0,0.0,0.0,0.0,0.0,0.0,0.0,0.0,0.0,0.0,0.0,0.0,0.0,0.0,0.0,0.0,0.0,0.0,0.0,0.0,0.0,0.0,0.0,0.0,0.0,0.0,0.0,0.0,0.0,0.0,0.0966,0.1384,0.1378,0.1936,0.2268,0.2354,0.2081,0.1914,0.1906,0.0,0.0,0.0,0.0,0.0,0.0,0.0,0.0,0.0,0.0,0.0,0.0,0.0,0.0,0.0,0.0,0.0,0.0,0.0,0.0,0.0,0.0,0.0,0.0,0.0,0.0,0.0,0.0,0.0,0.0,0.0,0.0,0.0,0.0,0.0,0.0,0.0,0.0,0.0,0.0,0.0,0.0,0.0,0.0,0.0,0.0,0.0,0.0,0.0,0.0,0.0,0.0,0.0,0.0,0.0,0.0,0.0,0.0,0.0,0.0,0.0,0.0,0.0,0.0,0.0,0.0,0.0,0.0,0.0,0.0,0.0,0.0,0.0,0.0,0.0,0.0,0.0,0.0,0.0,0.0,0.0,0.0,0.0,0.0,0.0,0.0,0.0,0.0,0.0,0.0,0.0,0.0,0.0,0.0,0.0,0.0,0.0,0.0,0.0,0.0,0.0,0.0,0.0844,0.1528,0.1994,0.1945,0.2497,0.2837,0.2816,0.2619,0.2494,0.2481,0.0,0.0,0.0,0.0,0.0,0.0,0.0,0.0,0.0,0.0,0.0,0.0,0.0,0.0,0.0,0.0,0.0,0.0,0.0,0.0,0.0,0.0,0.0,0.0,0.0,0.0,0.0,0.0,0.0,0.0,0.0,0.0,0.0,0.0,0.0,0.0,0.0,0.0,0.0,0.0,0.0,0.0,0.0,0.0,0.0,0.0,0.0,0.0,0.0,0.0,0.0,0.0,0.0,0.0,0.0,0.0,0.0,0.0,0.0,0.0,0.0,0.0,0.0,0.0,0.0,0.0,0.0,0.0,0.0,0.0,0.0,0.0,0.0,0.0,0.0,0.0,0.0,0.0,0.0,0.0,0.0,0.0,0.0,0.0,0.0,0.0,0.0,0.0,0.0,0.0,0.0,0.0,0.0,0.0,0.0,0.0,0.0,0.0,0.0,0.0,0.0,0.0,0.1665,0.2304,0.2799,0.3074,0.3277,0.3435,0.3511,0.2896,0.2623,0.0,0.0,0.0,0.0,0.0,0.0,0.0,0.0,0.0,0.0,0.0,0.0,0.0,0.0,0.0,0.0,0.0,0.0,0.0,0.0,0.0,0.0,0.0,0.0,0.0,0.0,0.0,0.0,0.0,0.0,0.0,0.0,0.0,0.0,0.0,0.0,0.0,0.0,0.0,0.0,0.0,0.0,0.0,0.0,0.0,0.0,0.0,0.0,0.0,0.0,0.0,0.0,0.0,0.0,0.0,0.0,0.0,0.0,0.0,0.0,0.0,0.0,0.0,0.0,0.0,0.0,0.0,0.0,0.0,0.0,0.0,0.0,0.0,0.0,0.0,0.0,0.0,0.0,0.0,0.0,0.0,0.0,0.0,0.0,0.0,0.0,0.0,0.0,0.0,0.0,0.0,0.0,0.0,0.0,0.0,0.0,0.0,0.0,0.0,0.0,0.0,0.0,0.0,0.1765,0.2594,0.3306,0.3552,0.4101,0.4424,0.4343,0.4004,0.3799,0.3823,0.0,0.0,0.0,0.0,0.0,0.0,0.0,0.0,0.0,0.0,0.0,0.0,0.0,0.0,0.0,0.0,0.0,0.0,0.0,0.0,0.0,0.0,0.0,0.0,0.0,0.0,0.0,0.0,0.0,0.0,0.0,0.0,0.0,0.0,0.0,0.0,0.0,0.0,0.0,0.0,0.0,0.0,0.0,0.0,0.0,0.0,0.0,0.0,0.0,0.0,0.0,0.0,0.0,0.0,0.0,0.0,0.0,0.0,0.0,0.0,0.0,0.0,0.0,0.0,0.0,0.0,0.0,0.0,0.0,0.0,0.0,0.0,0.0,0.0,0.0,0.0,0.0,0.0,0.0,0.0,0.0,0.0,0.0,0.0,0.0,0.0,0.0,0.0,0.0,0.0,0.0,0.0,0.0,0.0,0.0,0.0,0.0,0.0,0.0,0.0,0.0,0.0,0.2682,0.3476,0.4162,0.4435,0.477,0.4931,0.4868,0.4692,0.4523,0.4357,0.0,0.0,0.0,0.0,0.0,0.0,0.0,0.0,0.0,0.0,0.0,0.0,0.0,0.0,0.0,0.0,0.0,0.0,0.0,0.0,0.0,0.0,0.0,0.0,0.0,0.0,0.0,0.0,0.0,0.0,0.0,0.0,0.0,0.0,0.0,0.0,0.0,0.0,0.0,0.0,0.0,0.0,0.0,0.0,0.0,0.0,0.0,0.0,0.0,0.0,0.0,0.0,0.0,0.0,0.0,0.0,0.0,0.0,0.0,0.0,0.0,0.0,0.0,0.0,0.0,0.0,0.0,0.0,0.0,0.0,0.0,0.0,0.0,0.0,0.0,0.0,0.0,0.0,0.0,0.0,0.0,0.0,0.0,0.0,0.0,0.0,0.0,0.0,0.0,0.0,0.0,0.0,0.0,0.0,0.0,0.0,0.0,0.0,0.0,0.0,0.0,0.0,0.4018,0.4701,0.5262,0.5566,0.5375,0.5234,0.5251,0.5167,0.5007,0.4701,0.0,0.0,0.0,0.0,0.0,0.0,0.0,0.0,0.0,0.0,0.0,0.0,0.0,0.0,0.0,0.0,0.0,0.0,0.0,0.0,0.0,0.0,0.0,0.0,0.0,0.0,0.0,0.0,0.0,0.0,0.0,0.0,0.0,0.0,0.0,0.0,0.0,0.0,0.0,0.0,0.0,0.0,0.0,0.0,0.0,0.0,0.0,0.0,0.0,0.0,0.0,0.0,0.0,0.0,0.0,0.0,0.0,0.0,0.0,0.0,0.999,0.9272,0.0,0.0,0.0,0.0,0.0,0.0,0.0,0.0,0.0,0.0,0.0,0.0,0.0,0.0,0.0,0.0,0.0,0.0,0.0,0.0,0.0,0.0,0.0,0.0,0.0,0.0,0.0,0.0,0.0,0.0,0.0,0.0,0.0,0.0,0.0,0.0,0.0,0.0,0.0,0.0,0.4105,0.5295,0.617,0.6428,0.6637,0.6671,0.6521,0.6263,0.5923,0.5476,0.4809,0.0,0.0,0.0,0.0,0.0,0.0,0.0,0.0,0.0,0.0,0.0,0.0,0.0,0.0,0.0,0.0,0.0,0.0,0.0,0.0,0.0,0.0,0.0,0.0,0.0,0.0,0.0,0.0,0.0,0.0,0.0,0.0,0.0,0.0,0.0,0.0,0.0,0.0,0.0,0.0,0.0,0.0,0.0,0.0,0.0,0.0,0.0,0.0,0.0,0.0,0.0,0.0,0.0,0.0,0.0,0.0,0.0,0.0,0.0,1.1194,1.0662,0.0,0.0,0.0,0.0,0.0,0.0,0.0,0.0,0.0,0.0,0.0,0.0,0.0,0.0,0.0,0.0,0.0,0.0,0.0,0.0,0.0,0.0,0.0,0.0,0.0,0.0,0.0,0.0,0.0,0.0,0.0,0.0,0.0,0.0,0.0,0.0,0.0,0.0,0.0,0.0,0.4908,0.6185,0.7073,0.7227,0.7253,0.724,0.7046,0.6885,0.6606,0.6177,0.5741,0.0,0.0,0.0,0.0,0.0,0.0,0.0,0.0,0.0,0.0,0.0,0.0,0.0,0.0,0.0,0.0,0.0,0.0,0.0,0.0,0.0,0.0,0.0,0.0,0.0,0.0,0.0,0.0,0.0,0.0,0.0,0.0,0.0,0.0,0.0,0.0,0.0,0.0,0.0,0.0,0.0,0.0,0.0,0.0,0.0,0.0,0.0,0.0,0.0,0.0,0.0,0.0,0.0,1.4293,1.4158,1.4341,1.3779,1.3511,1.3377,1.2784,1.2428,1.2168,1.1108,0.0,0.0,0.0,0.0,0.0,0.0,0.0,0.0,0.0,0.0,0.0,0.0,0.0,0.0,0.0,0.0,0.0,0.0,0.0,0.0,0.0,0.0,0.828,0.7911,0.8311,0.819,0.6091,0.0,0.0,0.0,0.0,0.0,0.0,0.0,0.0,0.0,0.0,0.0,0.5984,0.7155,0.8003,0.7991,0.784,0.7677,0.7535,0.745,0.7257,0.683,0.6624,0.6086,0.0,0.0,0.0,0.0,0.0,0.0,0.0,0.0,0.0,0.0,0.0,0.0,0.0,0.0,0.0,0.0,0.0,0.0,0.0,0.0,0.0,0.0,0.0,0.0,0.0,0.0,0.0,0.0,0.0,0.0,0.0,0.0,1.4064,1.4541,0.0,0.0,0.0,0.0,0.0,0.0,0.0,0.0,0.0,0.0,0.0,0.0,0.0,1.5222,1.5067,1.5497,1.5753,1.5889,1.5587,1.5726,1.6216,1.5613,1.5538,1.5797,1.5255,0.0,1.2314,1.1702,0.0,0.0,0.0,0.0,0.0,0.0,0.0,0.0,0.0,0.0,0.0,0.0,0.0,0.0,0.0,0.0,0.0,0.0,0.0,0.0,0.0,0.0,0.9053,0.9057,0.9229,0.9165,0.8387,0.7177,0.6002,0.531,0.4423,0.3628,0.0,0.0,0.0,0.0,0.0,0.0,0.6836,0.818,0.9009,0.8851,0.8956,0.8966,0.8775,0.8437,0.8059,0.7668,0.731,0.6829,0.6191,0.5765,0.0,0.0,0.0,0.0,0.0,0.0,0.0,0.0,0.0,0.0,0.0,0.0,0.0,0.0,0.0,0.0,0.0,0.0,0.0,0.0,0.0,0.0,0.0,0.0,0.0,0.0,0.0,0.0,0.0,1.4008,1.4767,1.5705,1.5481,1.5423,0.0,0.0,0.0,0.0,0.0,0.0,0.0,0.0,0.0,1.5688,1.5954,1.619,1.6357,1.6651,1.6853,1.6866,1.6594,1.6627,1.685,1.6287,1.6127,1.6239,1.5564,1.4926,1.4241,1.3407,1.3235,1.3462,0.0,0.0,0.0,0.0,1.0892,1.0334,1.0053,0.9886,0.9817,1.012,0.0,0.0,0.0,0.0,0.0,0.0,0.0,0.8505,0.8755,0.919,0.946,0.9187,0.9354,0.9389,0.8826,0.8113,0.7354,0.6617,0.5858,0.5091,0.4255,0.4508,0.0,0.0,0.0,0.7256,0.7568,0.8612,0.9322,0.9349,0.943,0.943,0.9349,0.9089,0.8746,0.8318,0.8021,0.7635,0.7113,0.6731,0.6311,0.0,0.0,0.0,0.0,0.0,0.0,0.0,0.0,0.0,0.0,0.0,0.0,0.0,0.0,0.0,0.0,0.0,0.0,0.0,0.0,0.0,0.0,0.0,0.0,0.0,0.0,0.0,0.0,1.48,1.5428,1.6614,1.6528,1.6605,0.0,0.0,0.0,0.0,0.0,0.0,1.6263,1.646,1.6566,1.6562,1.6894,1.7177,1.7448,1.753,1.7616,1.7702,1.7425,1.7337,1.7407,1.6886,1.6736,1.6789,1.6175,1.6107,1.6266,1.4921,1.4418,1.4493,1.3968,1.3414,1.2854,1.2359,1.1785,1.127,1.1307,1.1185,1.1101,1.1501,1.126,1.0773,1.0491,0.0,0.0,0.0,0.0,0.9312,0.9193,0.9608,0.9944,0.9437,0.9534,0.9615,0.9042,0.8723,0.8329,0.7571,0.6983,0.6378,0.5549,0.5961,0.0,0.5955,0.7205,0.82,0.84,0.9074,0.962,0.9809,0.9846,0.9846,0.9846,0.9695,0.943,0.897,0.8784,0.8448,0.7816,0.7523,0.7095,0.6487,0.0,0.0,0.0,0.0,0.0,0.0,0.0,0.0,0.0,0.0,0.0,0.0,0.0,0.0,0.0,0.0,0.0,0.0,0.0,0.0,0.0,0.0,0.0,0.0,0.0,0.0,0.0,0.0,0.0,1.6793,1.722,0.0,0.0,0.0,0.0,1.6621,1.7244,1.7731,1.7966,1.8238,1.8384,1.8357,1.82,1.8008,1.779,1.7763,1.7938,1.8271,1.793,1.7946,1.8219,1.7862,1.7886,1.8203,1.8163,1.8029,1.7712,1.5622,1.4965,1.5245,1.5055,1.4842,1.4556,1.434,1.3977,1.3588,1.325,1.2988,1.2759,1.2594,1.2273,1.1851,1.1595,1.0908,0.0,0.0,1.0478,0.9926,1.052,1.074,1.064,1.026,1.0153,1.0045,0.9626,0.9253,0.8716,0.7915,0.7335,0.695,0.6825,0.0,0.6967,0.7493,0.8137,0.8801,0.942,0.9877,1.0218,1.0438,1.0443,1.0443,1.0443,1.0443,1.018,0.9582,0.9544,0.9198,0.8389,0.787,0.7473,0.7239,0.6342,0.0,0.0,0.0,0.0,0.0,0.0,0.0,0.0,0.0,0.0,0.0,0.0,0.0,0.0,0.0,0.0,0.0,0.0,0.0,0.0,0.0,0.0,0.0,0.0,0.0,0.0,0.0,0.0,1.8012,1.8449,0.0,1.9101,1.8934,1.8744,1.849,1.8687,1.8854,1.8809,1.8786,1.881,1.893,1.8792,1.874,1.882,1.8559,1.8608,1.8865,1.8773,1.8646,1.8637,1.8691,1.8654,1.8629,1.8398,1.8258,1.8105,1.7118,1.6552,1.6326,1.6294,1.5693,1.4877,1.4797,1.4309,1.3666,1.3666,1.3548,1.3271,1.2726,1.2284,1.1946,1.1592,1.1348,1.1127,1.0845,1.0723,1.0583,1.0286,1.0331,1.0368,1.0067,0.9992,0.9922,0.9657,0.9397,0.9087,0.8636,0.8093,0.7652,0.7506,0.7776,0.817,0.8669,0.915,0.9622,1.0116,1.0205,1.0331,1.0663,1.07,1.0812,1.1074,1.0962,1.0705,1.0321,1.0241,0.9852,0.9146,0.8724,0.8334,0.7965,0.7203,0.6489,0.0,0.0,0.0,0.0,0.0,0.0,0.0,0.0,0.0,0.0,0.0,0.0,0.0,0.0,0.0,0.0,0.0,0.0,0.0,0.0,0.0,0.0,0.0,0.0,0.0,1.7633,1.8062,1.8762,1.9317,1.977,2.0147,2.0125,1.9946,1.9614,1.9788,1.9859,1.9635,1.9592,1.9661,1.9696,1.9601,1.9558,1.9468,1.9257,1.9196,1.9188,1.9188,1.9104,1.892,1.9012,1.8966,1.8765,1.8581,1.8478,1.8446,1.8097,1.7652,1.7192,1.6914,1.6291,1.5463,1.5285,1.4705,1.4066,1.4252,1.4247,1.4003,1.3526,1.3022,1.2611,1.2208,1.2106,1.1999,1.1465,1.1351,1.1274,1.0737,1.0622,1.0583,1.0357,1.0215,1.0019,0.9602,0.9365,0.915,0.8925,0.8463,0.8134,0.8268,0.8517,0.8898,0.9516,0.9814,1.0143,1.055,1.0481,1.055,1.0962,1.0999,1.1149,1.1484,1.1396,1.1192,1.0812,1.0755,1.0417,0.9671,0.9241,0.8856,0.8498,0.771,0.6945,0.623,0.0,0.0,0.0,0.0,0.0,0.0,0.0,0.0,0.0,0.0,0.0,0.0,0.0,0.0,0.0,0.0,0.0,0.0,0.0,0.0,0.0,0.0,0.0,1.8142,1.8144,1.8476,1.9011,1.9751,2.0229,2.0229,2.0398,2.0346,1.9846,2.0451,2.0709,2.0447,2.0793,2.0907,2.0727,2.069,2.0365,1.9629,1.9783,1.9654,1.9188,1.9225,1.918,1.9188,1.8912,1.8819,1.8781,1.8781,1.8781,1.8758,1.8454,1.8105,1.7759,1.7024,1.6582,1.6332,1.5827,1.5327,1.497,1.5175,1.5179,1.5101,1.5028,1.4555,1.3926,1.3591,1.3226,1.2916,1.2876,1.2473,1.1988,1.1988,1.1782,1.1462,1.106,1.0796,1.0362,0.9606,0.9218,0.8969,0.8781,0.8406,0.8398,0.9173,0.8991,0.9064,1.0072,1.0218,0.0,1.0775,1.0812,1.0925,1.1335,1.1378,1.1459,1.1669,1.1755,1.1581,1.103,1.1141,1.082,0.9957,0.9433,0.9056,0.8905,0.7845,0.6927,0.614,0.0,0.0,0.0,0.0,0.0,0.0,0.0,0.0,0.0,0.0,0.0,0.0,0.0,0.0,0.0,0.0,0.0,0.0,0.0,0.0,0.0,1.9555,1.9617,1.9573,1.9993,2.0283,2.0316,2.0603,2.0766,2.0766,2.081,2.081,2.0678,2.0695,2.0757,2.0837,2.0935,2.0918,2.0774,2.073,2.0425,1.9917,1.9756,1.9625,1.9487,1.9389,1.9298,1.918,1.9011,1.8907,1.8781,1.8781,1.8781,1.8773,1.8724,1.8478,1.8089,1.7397,1.6875,1.6484,1.6088,1.5756,1.5512,1.5781,1.5598,1.5172,1.4841,1.4452,1.4054,1.3648,1.3274,1.295,1.2525,1.2101,1.1677,1.122,1.1068,1.0915,1.0538,1.0512,1.0451,0.99,0.9865,0.9836,0.9422,0.902,0.8906,0.9432,0.953,0.9766,1.0319,1.0406,1.055,1.0962,1.0775,1.0738,1.1149,1.1217,1.1335,1.1465,1.1684,1.1626,1.1246,1.1433,1.1287,1.0719,1.0278,0.9614,0.8713,0.8009,0.7358,0.0,0.0,0.0,0.0,0.0,0.0,0.0,0.0,0.0,0.0,0.0,0.0,0.0,0.0,0.0,0.0,0.0,0.0,0.0,0.0,0.0,0.0,2.0671,2.08,2.0864,2.1006,2.1065,2.0944,2.1121,2.1275,2.1195,2.115,2.1096,2.0871,2.0826,2.0781,2.069,2.0907,2.0909,2.0657,2.0677,2.0426,1.9868,1.9887,1.9808,1.9587,1.9627,1.9582,1.9463,1.9204,1.9039,1.8966,1.8827,1.8781,1.8765,1.8669,1.8486,1.8247,0.0,0.0,0.0,0.0,1.6029,1.5777,1.5914,1.5713,1.5301,1.5131,1.4851,1.4538,1.4249,1.3996,1.3698,1.3253,1.2778,1.2334,1.2097,1.1742,1.1425,1.1266,1.1146,1.0869,1.0334,1.0284,1.0196,0.9818,0.9664,0.0,0.9798,0.9686,0.9729,1.0389,1.0513,1.0625,1.0925,1.0775,1.07,1.0962,1.1067,1.1217,1.1384,1.1465,0.0,0.0,0.0,1.1194,1.0684,1.0468,0.0,0.0,0.0,0.7715,0.7328,0.6492,0.0,0.0,0.3673,0.2796,0.0,0.0,0.0,0.0,0.0,0.0,0.0,0.0,0.0,0.0,0.0,0.0,0.0,0.0,0.0,0.0,2.1808,2.232,2.1878,2.1494,2.1225,2.1138,2.1414,2.1562,2.1392,2.1347,2.1159,2.0744,2.0906,2.0797,2.0406,2.0841,0.0,0.0,0.0,2.0406,1.9671,2.0084,2.0027,1.9587,1.9758,1.984,1.9882,1.9422,1.9247,1.9242,1.9012,1.8874,1.8804,1.8531,1.8404,1.8327,1.8153,1.7811,1.7343,1.6854,1.6292,1.5838,1.5916,0.0,0.0,1.5658,1.545,1.5131,1.509,1.4887,1.4643,1.4427,1.3904,1.3471,1.3597,1.3043,1.2487,1.2572,1.2158,1.152,1.0891,1.0607,1.0389,1.0133,1.0247,1.039,1.0262,0.9665,0.9485,1.0372,1.0556,1.0625,1.0812,1.0775,1.0775,1.0812,1.0992,0.0,1.1341,1.1245,1.1272,1.1538,1.1311,1.0887,1.028,1.0332,0.9949,0.9067,0.8408,0.7993,0.7804,0.7047,0.6438,0.5884,0.4427,0.3495,0.0,0.0,0.0,0.0,0.0,0.0,0.0,0.0,0.0,0.0,0.0,0.0,0.0,0.0,0.0,2.2088,2.2438,2.2562,2.2095,2.2098,2.1966,2.1408,2.123,2.1186,2.1392,2.1069,2.088,2.0952,2.095,2.0902,2.0771,2.1318,2.1348,2.0744,2.0989,2.0612,1.9555,1.9849,1.9845,1.9587,1.9544,0.0,1.9874,1.9527,1.9425,1.9533,1.9496,1.9296,1.9142,1.9069,1.8907,1.8647,1.8118,1.7476,1.685,1.7442,1.6939,1.6108,1.6544,1.638,1.5922,1.5741,1.5541,1.5305,1.5131,1.4869,0.0,1.437,1.3945,1.352,1.3353,1.3066,1.2705,1.2239,1.2161,1.1975,1.1329,1.1439,1.1491,1.0846,1.0878,1.0898,1.0521,1.0435,1.0456,1.0507,1.0775,1.0999,1.1037,1.0775,1.0663,1.0999,1.0974,1.1015,1.1167,1.1301,1.1335,1.1142,1.1359,1.1231,1.0618,1.0708,1.0364,0.9405,0.8906,0.8328,0.7705,0.7442,0.6883,0.6034,0.5143,0.4353,0.0,0.0,0.0,0.0,0.0,0.0,0.0,0.0,0.0,0.0,0.0,2.3058,2.3075,0.0,2.3465,2.3461,2.3183,2.286,2.2648,2.2485,2.222,2.1794,2.1642,2.1581,2.1708,2.1499,2.1353,2.1298,2.1346,2.1204,2.0883,2.1216,2.1147,2.064,2.081,2.0631,1.9936,2.0113,2.0159,2.0067,1.9918,1.9932,2.0102,1.978,1.9669,1.9754,1.9633,1.9533,1.9387,1.9242,1.9096,1.8926,1.8348,1.7822,1.7476,1.7685,1.7339,1.6827,1.6825,1.6621,1.6297,1.6079,1.5799,1.5499,1.5298,1.5148,1.4977,1.4764,1.4357,1.3994,1.3947,1.3539,1.3136,1.3067,1.2861,1.2525,1.2106,1.2064,1.2028,1.1652,1.1579,1.1441,1.1091,1.1089,1.0999,1.07,1.0812,1.0962,1.0962,1.085,1.085,1.0925,1.0974,1.1041,1.1086,1.1389,1.1521,1.1319,1.1716,1.1646,1.0966,1.1015,1.0619,0.967,0.9156,0.8583,0.7892,0.7596,0.709,0.6432,0.5753,0.5009,0.0,0.0,0.0,0.0,0.0,0.0,0.0,2.5075,2.5195,2.421,2.4378,2.4649,2.4628,2.4743,2.4796,2.4541,2.3876,2.33,2.3129,2.2828,2.253,2.2274,2.2185,2.2138,2.2017,2.2016,2.1969,2.1692,2.1846,2.1683,2.1049,2.1142,2.1017,2.0581,2.07,2.0676,2.0417,2.0401,2.0419,2.0419,2.0288,2.0246,2.0292,2.0065,1.9973,1.9973,1.9762,1.9671,1.9633,1.9387,1.9242,1.9163,1.8646,1.8404,1.825,1.7891,1.7598,1.736,1.7104,1.684,1.6633,1.642,1.6102,1.5741,1.5499,1.5465,1.5423,1.5215,1.4873,1.4608,1.4741,1.4279,1.3779,1.4039,1.3651,1.3124,1.2875,1.2626,1.2456,1.2448,1.2182,1.1915,1.1758,1.1557,1.1298,1.085,1.0812,1.085,1.085,1.0999,1.1037,1.0925,1.1074,1.1186,1.126,1.1619,1.179,1.167,1.2127,1.2029,1.1206,1.1232,1.0827,0.9842,0.9362,0.8761,0.8106,0.7762,0.7329,0.6795,0.6351,0.565,2.5558,2.5297,2.5828,2.5712,2.6443,2.7103,0.0,2.6552,2.619,2.5303,2.5414,2.5592,2.5493,2.5431,2.5199,2.4608,2.4404,2.4049,2.3222,2.3276,2.3188,2.275,2.253,2.2283,2.2117,2.2216,2.219,2.1969,2.2196,2.2203,2.1876,2.1961,2.1736,2.1198,2.1138,2.0925,2.0381,2.023,2.0146,2.0138,2.0012,2.0065,2.0292,2.0246,2.0246,2.0246,1.9973,1.9891,1.9845,1.9625,1.9387,1.918,1.9147,1.8755,1.8295,1.8258,1.7707,1.7056,1.759,1.7373,1.6831,1.6633,1.632,1.6004,1.5741,1.565,1.5616,1.5423,1.534,1.5257,1.509,1.4964,1.4748,1.4215,1.4062,1.3873,1.3428,1.316,1.2982,1.2946,1.2513,1.2159,1.2125,1.1866,1.1484,1.0887,1.0962,1.1074,1.1074,1.1074,1.1149,1.1335,1.1335,1.1521,1.1855,1.2209,1.2267,1.1906,1.2402,1.2221,1.1062,1.1296,1.0995,0.9996,0.9627,0.8998,0.8106,0.8295,0.7849,0.6803,0.6967,0.6498,2.6338,2.6472,2.705,2.6791,2.7499,2.8217,2.7972,2.7841,2.7554,2.6881,2.6846,2.6716,2.6115,2.5831,2.5473,2.495,2.4545,2.4145,2.381,2.359,2.3416,2.3242,2.3188,2.3057,2.2638,2.2672,2.2704,2.2731,2.2652,2.2477,2.2183,2.213,2.1928,2.1522,2.1686,2.1603,2.1393,2.1293,2.1117,2.0842,2.0619,2.0423,2.0292,2.0292,2.0292,2.0292,2.0201,2.011,2.011,1.9891,1.9708,1.9538,1.9113,1.8844,1.8685,1.8496,1.8124,1.7754,1.8129,1.7885,1.7384,1.7184,1.6734,1.6237,1.5997,1.5914,1.5914,1.5839,1.5707,1.5582,1.545,1.5291,1.5048,1.4755,1.4454,1.4201,1.3864,1.361,1.3444,1.3413,1.2952,1.2612,1.2615,1.2208,1.1744,1.1372,1.1298,1.126,1.126,1.1372,1.1521,1.1744,1.1855,1.2003,1.2157,1.2519,1.2711,1.2668,1.2999,1.272,1.1647,1.171,1.1289,1.0187,1.004,0.9562,0.8727,0.8782,0.8397,0.7614,0.7452,0.7003,2.7216,2.7575,2.8007,2.7824,2.854,2.9246,2.8933,2.8809,2.8627,2.8126,2.7898,2.7519,2.6588,2.617,2.569,2.5112,2.455,2.4221,2.4178,2.3826,2.3574,2.3497,2.3745,2.3651,2.3069,2.3175,2.3319,2.3299,2.3078,2.2806,2.2568,2.2431,2.2173,2.1827,2.1979,2.2072,2.1971,2.1927,2.1752,2.1471,2.1105,2.0728,2.0446,2.0343,2.0292,2.0292,2.0292,2.0292,2.0292,2.011,1.9973,1.9857,1.9237,1.9027,1.8978,1.8854,1.8603,1.8342,1.8345,1.8098,1.773,1.7537,1.7013,1.6443,1.6245,1.6162,1.6162,1.6128,1.5955,1.5782,1.5741,1.5492,1.5249,1.5131,1.4783,1.444,1.4243,1.3864,1.3652,1.3779,1.3274,1.285,1.2969,1.2477,1.2003,1.1818,1.1669,1.1558,1.1484,1.1669,1.1855,1.2077,1.2305,1.2489,1.2489,1.2929,1.3266,1.3273,1.3564,1.327,1.2174,1.2112,1.1556,1.0473,1.0333,0.9938,0.9199,0.915,0.8822,0.8244,0.794,0.7531,2.8297,2.873,2.8986,2.92,2.9779,3.0214,2.9588,2.9299,2.9075,2.8649,2.8269,2.7731,2.6913,2.645,2.5902,2.4981,2.4612,2.4399,2.4231,2.3946,2.371,2.3501,2.3867,2.3825,2.3165,2.3686,2.3874,2.3355,2.3413,2.342,2.3294,2.302,2.2627,2.2072,2.2072,2.1979,2.1725,2.1637,2.1601,2.1584,2.1139,2.0874,2.0848,2.0472,2.0292,2.0292,2.0292,2.0292,2.0292,2.0292,2.011,1.9882,1.9874,1.9512,1.9067,1.9447,1.9117,1.8452,1.8066,1.7771,1.758,1.7451,1.709,1.6648,1.6443,1.6394,1.6353,1.6162,1.6087,1.6046,1.5782,1.5692,1.5575,1.5208,1.4908,1.465,1.444,1.3851,1.3525,1.4004,1.3233,1.2644,1.3094,1.2705,1.2231,1.2003,1.2003,1.1892,1.1706,1.1855,1.2077,1.2268,1.2636,1.2863,1.2863,1.3622,1.3884,1.3528,1.4036,1.3803,1.2548,1.2357,1.1822,1.0814,1.046,0.9938,0.9199,0.9391,0.9095,0.8393,0.8462,0.8187,2.8164,2.8913,2.957,2.9787,3.0103,3.0355,3.0125,2.9567,2.8988,2.8649,2.7899,2.7055,2.6281,2.5881,2.5408,2.4665,2.4532,2.4492,2.4392,2.4202,2.3972,2.3748,2.3961,2.3972,2.3405,2.3827,2.3958,2.3429,2.3504,2.3538,2.342,2.3444,2.3288,2.2996,2.2795,2.2644,2.2535,2.2373,2.2136,2.1839,2.1195,2.0883,2.0912,2.0472,2.0292,2.0292,2.0292,2.0292,2.0292,2.0292,2.0246,2.0155,1.9973,1.9898,1.9816,1.9392,1.9237,1.9213,1.8799,1.8433,1.8096,1.7683,1.7279,1.6935,1.6689,1.6607,1.6566,1.6533,1.6402,1.6278,1.6188,1.6072,1.5873,1.5575,1.5249,1.4957,1.4873,1.4328,1.3895,1.4028,1.3467,1.2943,1.2939,1.2572,1.2224,1.204,1.2003,1.1966,1.1892,1.2077,1.2231,1.2298,1.2673,1.2936,1.3083,1.3695,1.4101,1.4101,1.4353,1.4042,1.2938,1.3066,1.2464,1.1042,1.1198,1.0823,0.9938,1.0002,0.9736,0.9133,0.9073,0.8662,2.8452,2.9214,3.0017,3.0433,3.0574,3.0507,3.015,2.9592,2.9012,2.8438,2.7629,2.6768,2.5969,2.5652,2.5266,2.4533,2.4586,2.469,2.4435,2.4277,2.4079,2.3823,2.4036,2.3994,2.3523,2.4084,2.4176,2.3561,2.3656,2.3758,2.376,2.4012,2.4035,2.3795,2.3646,2.3335,2.2953,2.2746,2.2296,2.1593,2.1105,2.0805,2.066,2.0503,2.0382,2.0292,2.0382,2.0382,2.0292,2.0292,2.0292,2.0292,2.011,2.0155,2.0204,1.9516,1.9514,1.9718,1.9046,1.8632,1.837,1.7842,1.7482,1.718,1.6984,1.6894,1.6853,1.6853,1.6689,1.6476,1.6435,1.6319,1.6121,1.5775,1.545,1.5166,1.4999,1.4503,1.407,1.4035,1.3642,1.33,1.3257,1.3042,1.2845,1.2694,1.2569,1.2425,1.2133,1.2342,1.2526,1.2526,1.2826,1.3046,1.3193,1.3731,1.4165,1.4281,1.4379,1.4084,1.33,1.325,1.2671,1.1481,1.1574,1.1223,1.0491,1.0428,1.0174,0.9684,0.946,0.9023,2.9131,2.9657,3.0255,3.1011,3.1044,3.0639,2.9687,2.9422,2.9034,2.7964,2.7373,2.6782,2.5884,2.5657,2.5342,2.4482,2.4796,2.4895,2.4264,2.4115,2.4002,2.3804,2.3961,2.3929,2.3584,2.4354,2.4553,2.382,2.3977,2.4114,2.424,2.4667,2.4796,2.4473,2.4473,2.3895,2.285,2.2801,2.2188,2.1002,2.0938,2.0732,2.0408,2.0618,2.0564,2.0382,2.0609,2.0564,2.0337,2.0337,2.0337,2.0337,2.0311,2.0311,2.026,1.9847,1.9886,1.9922,1.8919,1.8438,1.8271,1.8004,1.7681,1.7392,1.7392,1.727,1.7098,1.7098,1.6935,1.6648,1.6476,1.6435,1.6312,1.5858,1.5567,1.5311,1.4859,1.4454,1.4124,1.4132,1.3842,1.3682,1.3926,1.3926,1.3881,1.3881,1.3614,1.3123,1.2432,1.268,1.29,1.29,1.3083,1.3229,1.3236,1.3775,1.4129,1.4129,1.4132,1.395,1.3634,1.2989,1.2488,1.2127,1.1637,1.1192,1.0807,1.0688,1.0434,1.0015,0.9684,0.9322,2.8911,2.9354,2.99,3.0023,2.9764,2.9388,2.9016,2.814,2.7308,2.6858,2.6058,2.5276,2.4892,2.4561,2.4247,2.3928,2.3862,2.3855,2.3902,2.3869,2.3798,2.3594,2.3755,2.3973,2.423,2.4449,2.4605,2.4593,2.4917,2.4749,2.3883,2.4636,2.4717,2.3937,2.3691,2.3455,2.3163,2.2774,2.2438,2.209,2.1658,2.1454,2.1477,2.1085,2.1006,2.1122,2.0961,2.0862,2.0817,2.0817,2.0736,2.0583,2.0421,2.0271,2.0104,1.9895,1.9832,1.978,1.9207,1.8882,1.8645,1.7976,1.7588,1.7392,1.7392,1.727,1.7098,1.7098,1.7049,1.6935,1.6689,1.6607,1.6566,1.627,1.6072,1.5831,1.5526,1.5124,1.4705,1.424,1.3777,1.3475,1.3617,1.356,1.3519,1.3519,1.3372,1.3223,1.3147,1.3003,1.29,1.29,1.32,1.3499,1.3645,1.4072,1.4353,1.4461,1.4385,1.4163,1.3759,1.3563,1.3107,1.2259,1.2365,1.1961,1.1028,1.109,1.0807,1.0212,1.0142,0.9731,2.84,2.8944,2.9652,2.9512,2.9155,2.8756,2.8308,2.7505,2.6682,2.6176,2.529,2.4646,2.4538,2.4299,2.4013,2.3758,2.3886,2.3949,2.3697,2.3851,2.3851,2.3547,2.3667,2.3898,2.4149,2.4398,2.4611,2.487,2.5208,2.4977,2.4113,2.4924,2.5149,2.4643,2.4572,2.4202,2.3467,2.2593,2.2143,2.2134,2.1816,2.1708,2.178,2.1599,2.1463,2.1392,2.1329,2.1177,2.0997,2.1141,2.1105,2.0997,2.0997,2.08,2.0516,2.02,2.0,1.9752,1.9258,1.9043,1.8853,1.8221,1.791,1.7838,1.7716,1.7505,1.7375,1.7375,1.7253,1.7057,1.6894,1.673,1.6525,1.6319,1.6079,1.5831,1.5492,1.5249,1.4946,1.4485,1.4016,1.3775,1.3984,1.3994,1.3995,1.4096,1.3871,1.3733,1.3908,1.3467,1.3156,1.3156,1.3455,1.3681,1.379,1.4181,1.4425,1.4497,1.435,1.4094,1.3733,1.3573,1.3172,1.2444,1.2531,1.2185,1.1404,1.1341,1.1021,1.0523,1.0364,0.9988,2.7703,2.8333,2.9177,2.9019,2.8686,2.8247,2.7484,2.6972,2.6434,2.5473,2.4744,2.428,2.4266,2.4232,2.4044,2.3655,2.4151,2.4281,2.3551,2.3846,2.3963,2.3537,2.3667,2.3817,2.3921,2.4321,2.4712,2.4904,2.5198,2.5113,2.4579,2.5285,2.5651,2.5605,2.5787,2.524,2.3838,2.256,2.1954,2.1954,2.1909,2.1909,2.1954,2.2141,2.2008,2.1616,2.1741,2.1516,2.115,2.141,2.1454,2.14,2.1614,2.1473,2.1096,2.0688,2.0311,1.9911,1.9337,1.9082,1.9002,1.8563,1.8442,1.8362,1.8161,1.791,1.774,1.774,1.7456,1.7172,1.7139,1.6804,1.6443,1.6286,1.6031,1.5741,1.5333,1.5108,1.4923,1.4603,1.4295,1.4243,1.4606,1.4654,1.4741,1.4919,1.457,1.4366,1.4537,1.3954,1.3564,1.3564,1.3754,1.3863,1.3863,1.4217,1.4389,1.4389,1.4237,1.3992,1.36,1.3332,1.2988,1.2629,1.2459,1.2182,1.184,1.149,1.1185,1.0839,1.0523,1.0214,2.7228,2.7383,2.7609,2.7227,2.7109,2.6819,2.5991,2.5369,2.4731,2.3817,2.328,2.3029,2.3063,2.3102,2.3073,2.3111,2.3236,2.3267,2.3167,2.3424,2.3608,2.3507,2.3667,2.4035,2.4639,2.4913,2.5119,2.5135,2.5682,2.5689,2.4856,2.4988,2.4925,2.4736,2.4771,2.4641,2.4346,2.3575,2.3188,2.3188,2.2969,2.2969,2.3198,2.2847,2.2706,2.2794,2.2274,2.1901,2.1699,2.1868,2.1769,2.142,2.1671,2.1624,2.137,2.079,2.0552,2.0398,1.9895,1.9636,1.9399,1.8812,1.8523,1.8442,1.8531,1.8282,1.7951,1.7951,1.7781,1.7538,1.7392,1.718,1.6976,1.6935,1.673,1.6402,1.6004,1.5209,1.4532,1.4231,1.4243,1.4303,1.4414,1.4537,1.4615,1.4652,1.4362,1.4221,1.4411,1.4038,1.3819,1.3992,1.4029,1.4137,1.4289,1.4361,1.4389,1.4389,1.4385,1.411,1.3624,1.355,1.3288,1.2783,1.2744,1.2498,1.2058,1.1716,1.1373,1.1028,1.0807,1.0525,2.6569,2.6701,2.6943,2.675,2.6474,2.6205,2.5896,2.5113,2.4299,2.373,2.3051,2.2503,2.2439,2.259,2.2666,2.2643,2.2924,2.3137,2.313,2.3512,2.377,2.3661,2.398,2.4278,2.4643,2.4894,2.5084,2.5213,2.5641,2.5618,2.5067,2.5273,2.5351,2.5227,2.4913,2.4648,2.4515,2.3931,2.3677,2.3667,2.3537,2.3537,2.3667,2.3406,2.3319,2.3276,2.2838,2.2547,2.2462,2.2585,2.2591,2.2496,2.2626,2.249,2.2196,2.1749,2.1368,2.1027,2.0676,2.0463,2.0195,1.982,1.9231,1.8723,1.8692,1.8531,1.8362,1.8362,1.8241,1.8031,1.7757,1.7473,1.718,1.6935,1.6607,1.6281,1.5907,1.5319,1.4717,1.4423,1.4276,1.4252,1.4373,1.4453,1.4566,1.4712,1.4462,1.4389,1.4776,1.4389,1.4181,1.4353,1.4353,1.4389,1.4497,1.4497,1.4497,1.4497,1.449,1.426,1.3724,1.3631,1.3348,1.2813,1.2744,1.2529,1.2212,1.2027,1.1778,1.1459,1.1373,1.1131,2.5938,2.6099,2.6462,2.6449,2.6176,2.5908,2.5911,2.4988,2.4031,2.3741,2.2866,2.2117,2.198,2.2189,2.2361,2.2296,2.2805,2.3186,2.3175,2.3732,2.4075,2.391,2.4358,2.4625,2.4497,2.4828,2.5061,2.5178,2.5511,2.5649,2.5456,2.5833,2.6031,2.6052,2.5427,2.5002,2.4815,2.4323,2.409,2.4057,2.409,2.4057,2.397,2.397,2.3851,2.3634,2.3319,2.3173,2.3138,2.3051,2.3181,2.3451,2.3451,2.3302,2.3073,2.2761,2.2268,2.1705,2.1536,2.1261,2.0906,2.082,2.0135,1.928,1.9121,1.9051,1.8971,1.9011,1.8843,1.8594,1.8353,1.7951,1.7473,1.6984,1.6533,1.616,1.5813,1.5395,1.5011,1.4675,1.4367,1.4201,1.4353,1.4425,1.4541,1.4864,1.4649,1.4641,1.5204,1.482,1.4605,1.482,1.4677,1.4569,1.4605,1.4569,1.4569,1.4569,1.4569,1.4323,1.3716,1.3651,1.3356,1.276,1.2683,1.256,1.2367,1.2336,1.2151,1.1872,1.1872,1.1709,2.5359,2.5524,2.5702,2.5688,2.5793,2.574,2.5066,2.4239,2.3402,2.2775,2.1922,2.1348,2.1464,2.1576,2.1845,2.2226,2.2617,2.2977,2.3309,2.3951,2.4333,2.418,2.4743,2.4956,2.454,2.5073,2.538,2.5222,2.5797,2.6137,2.6183,2.6415,2.6525,2.6536,2.607,2.5782,2.5772,2.5306,2.4988,2.4818,2.4988,2.4861,2.4454,2.4454,2.4325,2.412,2.3677,2.3361,2.3173,2.2951,2.2993,2.3215,2.3215,2.3426,2.3644,2.3295,2.2822,2.239,2.2452,2.178,2.0985,2.1392,2.0928,2.0225,2.0372,2.0137,1.9824,2.001,1.9805,1.945,1.9222,1.8754,1.8161,1.7473,1.6984,1.6561,1.6293,1.5631,1.5011,1.4675,1.4477,1.4397,1.4389,1.4497,1.4641,1.4864,1.4721,1.4784,1.539,1.5114,1.5078,1.562,1.4935,1.4461,1.4605,1.4497,1.4425,1.4425,1.4533,1.4226,1.3364,1.3618,1.3421,1.2637,1.2713,1.2713,1.256,1.2398,1.2212,1.2058,1.2058,1.1965,2.5122,2.5253,2.5287,2.5286,2.5409,2.5305,2.449,2.3838,2.3185,2.247,2.1719,2.1195,2.111,2.1294,2.1565,2.1791,2.2202,2.2611,2.2937,2.3577,2.4101,2.4336,2.4702,2.4997,2.5158,2.5168,2.5232,2.5432,2.5796,2.6203,2.6704,2.6393,2.6106,2.6001,2.5669,2.5477,2.5477,2.5296,2.5158,2.5073,2.5158,2.5115,2.4914,2.4914,2.4871,2.4786,2.4315,2.4111,2.4137,2.3903,2.3842,2.3919,2.3988,2.4,2.4003,2.3692,2.3426,2.3247,2.2838,2.2625,2.2362,2.1893,2.1595,2.1351,2.0761,2.0372,2.0177,2.0372,2.0255,1.9981,1.9736,1.9033,1.8313,1.8031,1.7505,1.7009,1.6532,1.61,1.5632,1.5058,1.4822,1.4685,1.4685,1.4969,1.5178,1.5254,1.5302,1.5396,1.5645,1.5221,1.5078,1.5576,1.5177,1.4883,1.4955,1.4919,1.482,1.4721,1.4662,1.4393,1.3816,1.359,1.3244,1.2721,1.2683,1.2683,1.2713,1.2713,1.2674,1.2644,1.2644,1.256,2.4602,2.4827,2.4969,2.4879,2.4822,2.467,2.4044,2.3416,2.2843,2.2304,2.1622,2.1063,2.0871,2.1047,2.123,2.1392,2.1843,2.2299,2.2752,2.3377,2.3956,2.4333,2.4757,2.5128,2.5406,2.5326,2.5423,2.5765,2.5926,2.6206,2.6737,2.6195,2.5883,2.5913,2.5624,2.5496,2.5496,2.558,2.5569,2.5485,2.558,2.5538,2.5422,2.5454,2.5368,2.5166,2.4893,2.4787,2.4716,2.4556,2.4556,2.4612,2.4535,2.4501,2.4487,2.4272,2.4094,2.3878,2.3535,2.3402,2.332,2.2647,2.2381,2.2164,2.1438,2.0985,2.0693,2.0954,2.076,2.0411,2.0177,1.9469,1.8834,1.8696,1.8296,1.7842,1.734,1.6996,1.6576,1.6062,1.5524,1.517,1.517,1.5247,1.5328,1.5396,1.5544,1.5655,1.576,1.5328,1.515,1.5541,1.5426,1.5275,1.5204,1.5133,1.5029,1.4782,1.4651,1.4402,1.3893,1.3469,1.3107,1.2813,1.2713,1.2713,1.2805,1.2989,1.305,1.2989,1.305,1.2931,2.3712,2.4142,2.4718,2.4298,2.3977,2.3723,2.3712,2.2922,2.2213,2.2201,2.1525,2.0871,2.0733,2.0712,2.083,2.1231,2.1581,2.2108,2.299,2.3677,2.4097,2.4107,2.4925,2.5386,2.5115,2.5744,2.6207,2.6199,2.621,2.621,2.621,2.6001,2.6125,2.6562,2.6326,2.6199,2.6199,2.6437,2.6467,2.6196,2.6467,2.6354,2.5895,2.6082,2.5807,2.5134,2.5364,2.5163,2.4594,2.454,2.4734,2.506,2.4662,2.4785,2.52,2.52,2.4756,2.4273,2.4703,2.4138,2.3267,2.3712,2.3236,2.254,2.2726,2.217,2.1578,2.1949,2.152,2.0867,2.0644,2.0255,1.9824,1.9638,1.9411,1.9222,1.9033,1.8355,1.7791,1.7791,1.6699,1.5802,1.5802,1.5287,1.4971,1.5169,1.5204,1.5355,1.5761,1.5461,1.5355,1.5761,1.5611,1.5426,1.524,1.5034,1.4754,1.4425,1.4401,1.4085,1.3348,1.3188,1.302,1.2813,1.2805,1.2805,1.2805,1.3119,1.318,1.2989,1.3211,1.295,2.2765,2.3018,2.3202,2.3003,2.3117,2.3071,2.2479,2.2264,2.2064,2.1608,2.1305,2.1063,2.0871,2.0754,2.0974,2.1841,2.1955,2.2262,2.3186,2.3709,2.416,2.4528,2.5702,2.6318,2.5892,2.6055,2.6124,2.6021,2.599,2.6074,2.6188,2.6313,2.6349,2.6336,2.6234,2.6271,2.6479,2.6561,2.655,2.6456,2.655,2.652,2.6396,2.6426,2.6337,2.6121,2.6005,2.5736,2.5373,2.5591,2.5484,2.5273,2.5535,2.5648,2.5644,2.5454,2.5273,2.5039,2.4733,2.4607,2.4471,2.3976,2.3627,2.3343,2.3094,2.2401,2.1769,2.2035,2.1835,2.1492,2.1454,2.0915,2.0372,2.0284,1.9883,1.9416,1.9012,1.8568,1.8014,1.7446,1.6892,1.6501,1.6378,1.6429,1.6331,1.599,1.6279,1.6429,1.607,1.5885,1.5885,1.6105,1.5885,1.563,1.5426,1.547,1.5428,1.5161,1.4824,1.4446,1.4072,1.3527,1.3143,1.2928,1.2928,1.2989,1.315,1.3241,1.3272,1.3211,1.3506,1.3271,2.1543,2.197,2.2343,2.2205,2.2294,2.2304,2.1885,2.1827,2.1774,2.1343,2.1253,2.1126,2.0935,2.0868,2.113,2.196,2.2099,2.2461,2.3504,2.3733,2.4051,2.4708,2.5849,2.6501,2.6216,2.6362,2.6373,2.6188,2.6146,2.6229,2.6354,2.652,2.6561,2.649,2.6437,2.652,2.6727,2.6809,2.6809,2.6809,2.6809,2.6809,2.6809,2.6809,2.6748,2.6579,2.6502,2.6232,0.0,2.6217,2.6098,2.5763,2.6173,2.6249,2.6146,2.5843,2.5717,2.5557,2.4854,2.4772,2.4817,2.4051,2.3719,2.3545,2.3103,2.2446,2.1959,2.2063,2.1921,2.169,2.1741,2.1274,2.0731,2.0572,2.022,1.9791,1.9343,1.8973,1.8579,1.8097,1.7599,1.7206,1.7136,1.7166,1.7042,1.6683,1.7014,1.7113,1.6648,1.6482,1.6412,1.6517,1.6263,1.6009,1.5815,1.5859,1.5728,1.5338,1.4933,1.4541,1.4234,1.3551,1.315,1.3111,1.3111,1.3172,1.3302,1.3354,1.3385,1.3385,1.3588,1.3481,0.0,2.1074,2.2036,2.1772,2.1553,2.1463,2.1771,2.162,0.0,2.142,2.1316,2.1169,2.1012,2.1061,2.1284,2.1849,2.2204,2.2853,2.4015,2.3837,2.3902,2.4786,2.5668,2.6226,2.6307,2.6674,2.685,2.6644,2.6603,2.6603,2.6603,2.6644,2.6727,2.6933,2.6933,2.6933,2.6933,2.7108,2.7231,2.7231,2.7231,2.7231,2.7272,2.7272,2.7007,2.6622,2.6816,2.6571,2.6055,2.6444,2.6512,2.633,2.6504,2.6532,2.6491,2.6254,2.6005,2.5773,2.5046,2.4701,2.4443,2.4004,2.3634,2.3339,2.2891,2.2478,2.2138,2.2138,2.1883,2.159,2.1707,2.1434,2.1,2.0534,2.042,2.0278,1.9899,1.9482,1.9291,1.9426,1.8572,1.7903,1.801,1.7549,1.7182,1.7235,1.7373,1.7442,1.7442,1.7176,1.6978,1.6978,1.6821,1.6638,1.6412,1.621,1.58,1.5104,1.4829,1.4453,1.3984,1.3364,1.3141,1.3333,1.3333,1.3333,1.3333,1.3459,1.3541,1.3541,1.3541,1.364,2.0113,0.0,2.1049,2.0972,2.098,2.1117,0.0,2.1449,2.1431,2.158,2.1474,2.1432,2.1642,2.1484,2.1744,2.2983,2.3461,2.3955,2.4736,2.5268,2.5645,2.5915,2.6662,2.7273,2.7493,2.729,2.7033,2.685,2.6809,2.6809,2.6809,2.6985,2.7067,2.7149,2.7149,2.7149,2.7149,2.719,2.726,2.7441,2.7441,2.7545,2.7731,2.7731,2.7701,2.7561,2.7296,2.6932,2.6455,2.6576,2.625,2.5753,2.602,2.6032,2.5875,2.5667,2.5549,2.5447,2.5065,2.4902,2.4796,2.4332,2.3936,2.3558,2.3255,2.3001,2.2777,2.2777,2.2515,2.2146,2.1964,2.1627,2.1209,2.0739,2.0492,2.0292,1.9891,1.96,1.9323,1.9025,1.8634,1.836,1.8384,1.8193,1.7964,1.7828,1.7964,1.7988,1.7681,1.7818,1.7896,1.7769,1.7828,1.775,1.7398,1.6538,1.5879,1.5545,1.4947,1.4575,1.4434,1.3917,1.3619,1.3679,1.3679,1.3679,1.3679,1.383,1.3881,1.389,1.404,1.3989,2.0377,2.0591,2.1003,2.123,2.1181,2.1215,2.1861,2.1776,2.158,2.1749,2.1894,2.2002,2.2045,2.2272,2.2788,2.3836,2.428,2.4585,2.4959,2.5978,2.6559,2.6197,2.6883,2.7441,2.7696,2.7412,2.7167,2.7067,2.7026,2.7026,2.7026,2.7219,2.733,2.733,2.7464,2.7464,2.733,2.733,2.7452,2.7696,2.7765,2.7898,2.803,2.8122,2.8163,2.8127,2.7699,2.7305,2.6954,2.6716,2.6292,2.588,2.606,2.6088,2.5935,2.5665,2.5561,2.5472,2.5138,2.4942,2.47,2.4153,2.3884,2.3764,2.3486,2.3372,2.3261,2.315,2.2652,2.2161,2.2073,2.1648,2.1121,2.0559,2.0339,2.0173,1.9805,1.9515,1.9274,1.9193,1.8875,1.8684,1.8852,1.8741,1.864,1.8506,1.8607,1.8596,1.8351,1.8462,1.8472,1.8371,1.8472,1.8395,1.807,1.7345,1.6708,1.6333,1.5707,1.5314,1.5187,1.4351,1.389,1.389,1.389,1.389,1.389,1.395,1.404,1.41,1.4139,1.4198,2.0778,2.1117,2.1577,2.1839,2.1666,2.1644,2.2518,2.2308,2.2028,2.2175,2.2551,2.2787,2.2542,2.3245,2.4049,2.4597,2.4971,2.5191,2.5217,2.6442,2.7042,2.6287,2.6901,2.7389,2.7563,2.7371,2.7231,2.719,2.719,2.7231,2.7219,2.7412,2.7522,2.7563,2.7788,2.7788,2.7603,2.7563,2.7696,2.8002,2.8139,2.8299,2.8407,2.8578,2.8657,2.8661,2.8016,2.7673,2.7421,2.6772,2.6372,2.6134,2.6134,2.6108,2.6033,2.5703,2.5562,2.5524,2.5168,2.4835,2.4505,2.3948,2.3861,2.3934,2.3787,2.3677,2.3629,2.3519,2.278,2.2089,2.2086,2.1618,2.0996,2.0314,2.0139,2.0009,1.9704,1.9407,1.9274,1.9539,1.9208,1.8975,1.9252,1.9175,1.9108,1.9108,1.9108,1.9108,1.9142,1.9008,1.8908,1.8908,1.8942,1.8898,1.8677,1.8375,1.7958,1.7367,1.6751,1.6329,1.6106,1.4976,1.4312,1.421,1.4159,1.4102,1.404,1.407,1.413,1.4258,1.416,1.43,2.1056,2.1954,2.2687,2.1724,2.1987,2.2518,2.2654,2.2962,2.329,2.3454,2.3559,2.3718,2.3946,2.4342,2.4813,2.5354,2.6057,2.6585,2.6757,2.7355,2.7646,2.723,2.768,2.7978,2.7841,2.7615,2.7371,2.7231,2.719,2.726,2.7441,2.7482,2.7615,2.7841,2.7881,2.7962,2.8099,2.7909,2.8042,2.8391,2.8431,2.8736,2.9223,2.9263,2.9328,2.946,2.8475,2.7928,2.7656,2.649,2.579,2.5445,2.5314,2.5194,2.5025,2.4952,2.4952,2.4916,2.4879,2.4712,2.4522,2.4597,2.4418,2.4189,2.4309,2.4116,2.3934,2.4236,2.3585,2.2721,2.221,2.1782,2.1266,2.0511,2.0215,2.0042,1.99,1.9671,1.9539,1.9572,1.9407,1.9252,1.9285,1.9175,1.9108,1.9108,1.9108,1.9142,1.9241,1.9374,1.9473,1.9473,1.9638,1.9638,1.944,1.953,1.9393,1.8882,1.7684,1.6961,1.6929,1.6299,1.5717,1.5209,1.49,1.4592,1.4237,1.4357,1.4417,1.4446,1.4547,1.4517,2.1105,2.1801,2.234,2.2372,2.2679,2.3103,2.3587,2.3567,2.3543,2.3717,2.4247,2.4658,2.4597,2.5274,2.6033,2.6637,2.7296,2.7648,2.7442,2.7965,2.8266,2.792,2.824,2.8459,2.8231,2.7909,2.7626,2.7371,2.7371,2.7412,2.7522,2.7725,2.7926,2.807,2.8163,2.8271,2.8339,2.8379,2.8498,2.8657,2.8882,2.9209,2.9599,2.9819,2.9999,3.0012,2.8796,2.8194,2.8033,2.6716,2.6025,2.5769,2.5711,2.5583,2.5383,2.5159,2.5158,2.5311,2.4931,2.4966,2.5154,2.4884,2.4742,2.4694,2.4682,2.4538,2.4454,2.4683,2.4114,2.3328,2.305,2.2514,2.1867,2.1239,2.0816,2.0573,2.0676,2.0347,2.0118,2.0412,2.0073,1.9693,1.9638,1.9572,1.9506,1.9374,1.9374,1.9374,1.944,1.9638,1.9769,1.9769,1.99,2.0009,2.0042,2.0031,1.9684,1.8977,1.829,1.7716,1.7222,1.7189,1.6941,1.6427,1.6019,1.5634,1.5272,1.5075,1.4941,1.4891,1.4941,1.5,2.1047,2.16,2.2158,2.3359,2.3533,2.368,2.4566,2.4422,2.4179,2.4364,2.5157,2.5729,2.5387,2.6282,2.7287,2.7908,2.8313,2.8445,2.8074,2.8509,2.8775,2.8527,2.8756,2.8843,2.8578,2.8311,2.807,2.7846,2.7834,2.7914,2.7955,2.8287,2.8486,2.8486,2.8618,2.8709,2.863,2.8843,2.8949,2.8949,2.9314,2.9677,3.0023,3.0343,3.0482,3.0469,2.9194,2.8651,2.8562,2.7185,2.6511,2.6372,2.627,2.6129,2.5933,2.5571,2.5612,2.5805,2.5242,2.5397,2.5732,2.523,2.5135,2.5194,2.5028,2.5004,2.5028,2.5099,2.4696,2.4166,2.3898,2.3345,2.27,2.2029,2.1531,2.1238,2.1369,2.098,2.0738,2.1263,2.0775,2.0281,2.0271,2.0107,1.9933,1.9736,1.9736,1.9736,1.9769,1.99,2.0042,2.0074,2.0172,2.0302,2.0475,2.0324,1.9922,1.9201,1.9062,1.8712,1.804,1.82,1.8086,1.7595,1.7053,1.6588,1.6138,1.5801,1.5497,1.5293,1.5381,1.5469,2.0872,2.1866,2.301,2.4564,2.4584,2.4439,2.5311,2.5777,2.6093,2.6434,2.6858,2.7085,2.6895,2.7582,2.8355,2.8905,2.8858,2.8831,2.8964,2.9028,2.9079,2.9042,2.925,2.9184,2.8843,2.8922,2.8934,2.8712,2.8897,2.9055,2.925,2.9302,2.9302,2.9302,2.9341,2.9236,2.9052,2.9275,2.9341,2.938,2.965,3.0049,3.0622,3.066,3.0761,3.091,2.9889,2.9434,2.9308,2.7826,2.7112,2.6895,2.6524,2.6289,2.6164,2.5933,2.5992,2.6144,2.591,2.5865,2.5889,2.5853,2.5688,2.5571,2.5548,2.5535,2.5535,2.5535,2.5664,2.5517,2.4536,2.407,2.366,2.2664,2.2285,2.1981,2.1507,2.1265,2.1275,2.1757,2.1297,2.0954,2.124,2.0797,2.0302,2.0074,2.0074,2.0118,2.0302,2.0346,2.0443,2.0637,2.0637,2.0669,2.0669,2.0669,2.0625,2.0549,2.0387,2.0236,2.0171,1.9738,1.9126,1.8425,1.7719,1.6981,1.6296,1.6236,1.6007,1.5565,1.5884,1.5749,2.0921,2.1697,2.2656,2.4627,2.5122,2.5314,2.5946,2.6207,2.6348,2.6473,2.6921,2.7433,2.7814,2.8226,2.8671,2.9176,2.9223,2.9184,2.9275,2.9443,2.9546,2.9546,2.9728,2.9715,2.9456,2.947,2.938,2.9184,2.925,2.9328,2.9419,2.9523,2.96,2.96,2.96,2.9561,2.9484,2.9703,2.9908,3.0011,3.0101,3.0343,3.0698,3.0849,3.0911,3.0947,3.0064,2.9818,2.9949,2.869,2.8262,2.8341,2.7637,2.7065,2.6692,2.6611,2.6633,2.6701,2.6598,2.6508,2.6418,2.6418,2.6267,2.6117,2.6117,2.6047,2.6025,2.6233,2.6267,2.6045,2.5281,2.4909,2.4524,2.3948,2.3402,2.2961,2.276,2.2606,2.2533,2.2575,2.247,2.2367,2.2228,2.1752,2.1335,2.1127,2.0793,2.0635,2.0711,2.0818,2.0914,2.101,2.1094,2.1158,2.1158,2.1233,2.1276,2.1146,2.0786,2.0572,2.0572,2.041,2.0158,1.9878,1.9401,1.8694,1.7795,1.7622,1.712,1.6343,1.656,1.6457,2.1242,2.1858,2.2654,2.4937,2.5615,2.5955,2.6817,2.687,2.6791,2.6968,2.7482,2.8062,2.8647,2.8962,2.9289,2.9666,2.9741,2.9741,2.9741,2.987,2.9972,2.9972,3.0113,3.0152,3.0011,3.0011,2.996,2.9819,2.9857,2.9934,2.9934,3.0037,3.0101,3.0101,3.0037,3.0037,3.0037,3.0177,3.0343,3.0482,3.0378,3.0466,3.0811,3.0949,3.0986,3.0973,3.0332,3.0275,3.0529,2.9626,2.936,2.9456,2.8447,2.789,2.7582,2.7354,2.733,2.7397,2.733,2.7276,2.7175,2.7142,2.704,2.6892,2.6892,2.679,2.6735,2.6985,2.6939,2.6722,2.6267,2.5878,2.5475,2.5022,2.4502,2.4041,2.3884,2.3727,2.3621,2.3641,2.3601,2.3449,2.3124,2.2603,2.2108,2.1763,2.1344,2.1094,2.1126,2.1221,2.1285,2.136,2.1443,2.1506,2.1506,2.1624,2.1624,2.1506,2.1201,2.099,2.0914,2.0882,2.0814,2.0687,2.0398,1.9795,1.8825,1.8712,1.8125,1.7134,1.729,1.7168,2.1892,2.2416,2.3205,2.5673,2.6065,2.6261,2.7921,2.7875,2.7656,2.8189,2.8768,2.9262,2.9457,2.9984,3.0406,3.0406,3.0406,3.0406,3.0406,3.0406,3.0406,3.0406,3.0406,3.0406,3.0406,3.0571,3.0698,3.0698,3.0874,3.0986,3.0986,3.0986,3.0986,3.0986,3.0811,3.0698,3.0698,3.0698,3.0698,3.0685,3.0314,3.0438,3.0986,3.1024,3.1024,3.0986,3.0811,3.0811,3.0985,3.0579,3.0286,3.0,2.8863,2.8626,2.8805,2.81,2.8006,2.8254,2.8072,2.8124,2.8254,2.8072,2.8006,2.8006,2.8006,2.7908,2.7809,2.7809,2.7809,2.7723,2.7403,2.7032,2.654,2.5803,2.5511,2.5274,2.4726,2.4451,2.4472,2.5001,2.4557,2.4058,2.3839,2.3206,2.2475,2.1812,2.1549,2.1463,2.1698,2.1537,2.1506,2.1698,2.1698,2.1698,2.1698,2.1698,2.1698,2.1698,2.1698,2.1624,2.142,2.1285,2.1054,2.071,2.0504,1.9978,1.9118,1.9326,1.8895,1.7897,1.805,1.7847,2.2213,2.3206,2.4503,2.5931,2.6617,2.7203,2.827,2.8197,2.798,2.8131,2.8815,2.9416,2.9493,3.0233,3.0823,3.0823,3.0685,3.0609,3.0609,3.0381,3.0228,3.0368,3.0406,3.0444,3.0609,3.0798,3.0911,3.0911,3.1099,3.1161,3.1024,3.1261,3.1373,3.1211,3.1299,3.1336,3.1336,3.1174,3.1123,3.1123,3.0854,3.083,3.1011,3.0716,3.0816,3.1211,3.1299,3.1522,3.1827,3.1807,3.1317,3.0481,3.0294,2.9776,2.9114,2.9033,2.8776,2.8541,2.8702,2.872,2.8643,2.8578,2.8495,2.8425,2.8425,2.8314,2.817,2.8314,2.8249,2.817,2.8183,2.8131,2.7782,2.6827,2.6628,2.6529,2.5966,2.5914,2.5929,2.5703,2.5484,2.524,2.4792,2.4002,2.3307,2.2811,2.2194,2.1851,2.2142,2.2266,2.2328,2.2414,2.2414,2.2414,2.2414,2.2414,2.2414,2.2414,2.2414,2.2154,2.1624,2.1561,2.1491,2.1413,2.1068,2.054,1.9802,1.962,1.9132,1.8398,1.8414,1.824,2.2657,2.3823,2.5223,2.6231,2.701,2.7746,2.8669,2.8619,2.836,2.8392,2.9086,2.9728,2.9623,3.0494,3.1261,3.1261,3.1149,3.1075,3.1075,3.0849,3.0723,3.0748,3.0748,3.0785,3.0811,3.0911,3.1024,3.1099,3.1235,3.1272,3.1261,3.141,3.1522,3.1545,3.1508,3.1559,3.172,3.1434,3.1347,3.1397,3.0974,3.0913,3.1248,3.0916,3.0993,3.1434,3.1706,3.2,3.23,3.2359,3.2091,3.1544,3.1048,3.0698,3.0384,2.9769,2.9569,2.9577,2.953,2.9401,2.9324,2.9324,2.9275,2.9194,2.9194,2.9022,2.8849,2.9022,2.8944,2.8817,2.8862,2.8894,2.867,2.7835,2.7656,2.7558,2.7216,2.7183,2.7113,2.681,2.6696,2.6392,2.5542,2.4891,2.4223,2.3287,2.2627,2.2266,2.2389,2.2586,2.272,2.272,2.272,2.272,2.272,2.272,2.272,2.272,2.272,2.2537,2.2104,2.203,2.1937,2.1886,2.1456,2.089,2.0257,1.9917,1.9446,1.8839,1.8839,1.8694,2.3175,2.4299,2.5577,2.6623,2.7368,2.811,2.91,2.9062,2.883,2.8835,2.9543,3.0089,2.9929,3.0868,3.1669,3.1646,3.1646,3.1646,3.1609,3.1559,3.1522,3.131,3.131,3.1235,3.1061,3.1024,3.1099,3.1272,3.131,3.1397,3.1559,3.1434,3.1545,3.189,3.1582,3.1556,3.1846,3.1542,3.1445,3.1589,3.0914,3.0954,3.1669,3.1418,3.1392,3.1626,3.2028,3.2227,3.2253,3.2288,3.2502,3.2674,3.1234,3.1294,3.2033,3.0319,3.023,3.0914,3.0311,3.0111,3.0111,3.0111,3.0111,3.0111,3.0111,2.9896,2.9665,2.9792,2.9744,2.9602,2.9404,2.9373,2.9261,2.8844,2.8573,2.8384,2.8384,2.8254,2.8137,2.8137,2.792,2.734,2.6094,2.5696,2.4996,2.3409,2.2969,2.2739,2.2543,2.2665,2.2769,2.2769,2.2769,2.2769,2.2769,2.2769,2.2769,2.2769,2.2769,2.2769,2.2769,2.2555,2.2371,2.2259,2.165,2.1079,2.0545,2.0148,1.9697,1.9223,1.9223,1.9158,2.3487,2.4886,2.6425,2.7282,2.829,2.9108,2.9457,2.9391,2.9243,2.9216,2.9874,3.0535,3.0624,3.1504,3.2178,3.2096,3.2073,3.1963,3.1646,3.1471,3.136,3.131,3.131,3.1272,3.1235,3.1235,3.1198,3.1061,3.1373,3.1485,3.1347,3.1767,3.195,3.189,3.1963,3.1866,3.1591,3.1852,3.1852,3.152,3.1681,3.1911,3.22,3.1402,3.1222,3.1556,3.1971,3.1785,3.1261,3.1561,3.1662,3.1533,3.1215,3.1015,3.0848,3.0441,3.0221,3.0069,3.0093,3.0158,3.0235,3.0142,3.0158,3.0235,3.0142,3.005,2.9988,3.0019,3.0005,2.9988,2.9943,2.9913,2.9913,2.9803,2.9418,2.9075,2.9075,2.9044,2.9012,2.9012,2.8153,2.7188,2.6467,2.5699,2.4887,2.3946,2.3704,2.3599,2.3518,2.3454,2.342,2.342,2.342,2.342,2.342,2.342,2.342,2.342,2.342,2.336,2.3253,2.286,2.2616,2.2598,2.1602,2.1011,2.0889,1.9963,1.9452,1.9368,1.9368,1.9342,2.2698,2.4293,2.6147,2.7655,2.8778,2.9524,2.9536,2.964,2.9673,2.9442,3.0187,3.0928,3.1096,3.2062,3.281,3.2731,3.2588,3.2372,3.2155,3.19,3.1693,3.1582,3.1508,3.1397,3.131,3.1198,3.1161,3.1123,3.141,3.1596,3.1582,3.189,3.2096,3.2119,3.2169,3.2164,3.2093,3.2208,3.2208,3.2093,3.2195,3.2345,3.2547,3.2053,3.1695,3.1527,3.1993,3.1782,3.1163,3.1457,3.157,3.1495,3.112,3.1124,3.1251,3.0734,3.0647,3.0729,3.0638,3.0612,3.0672,3.0597,3.0627,3.0672,3.0597,3.0506,3.0446,3.0536,3.0506,3.0446,3.0446,3.0446,3.0416,3.0341,2.9991,2.9668,2.9668,2.9668,2.9583,2.9273,2.8552,2.7673,2.6797,2.5803,2.4998,2.4563,2.445,2.4363,2.4163,2.4147,2.4102,2.4044,2.4044,2.4044,2.4044,2.4044,2.4044,2.4044,2.4044,2.3927,2.3734,2.3497,2.3198,2.28,2.203,2.146,2.1075,2.037,1.9877,1.9591,1.9655,1.9629,2.1616,2.3447,2.5621,2.7766,2.8886,2.9493,2.9581,2.9821,2.9984,2.9768,3.0455,3.117,3.1315,3.2356,3.3143,3.3115,3.2881,3.2668,3.2561,3.2336,3.2146,3.1927,3.1743,3.1559,3.1347,3.1211,3.1174,3.1272,3.1522,3.172,3.189,3.1927,3.2096,3.2359,3.2264,3.2318,3.2552,3.2506,3.2541,3.2658,3.2591,3.2632,3.281,3.2713,3.222,3.1467,3.1886,3.1682,3.1153,3.1316,3.1446,3.1532,3.0881,3.1168,3.1812,3.0929,3.1067,3.1629,3.1235,3.1117,3.1132,3.1132,3.1058,3.0984,3.1102,3.0925,3.0749,3.1014,3.0984,3.0851,3.0851,3.0851,3.0821,3.0747,3.0405,3.0151,3.0219,3.0147,2.9948,2.9388,2.888,2.8177,2.699,2.5995,2.5356,2.5272,2.5175,2.5021,2.4766,2.4794,2.4794,2.4681,2.4652,2.4652,2.4652,2.4652,2.4652,2.4624,2.4652,2.4551,2.4276,2.4292,2.4002,2.3275,2.2686,2.2083,2.1478,2.0978,2.0467,2.0001,2.0003,1.9888,2.1065,2.3484,2.5976,2.7443,2.8397,2.9185,2.9855,2.994,2.9979,3.0526,3.0707,3.0833,3.1099,3.1971,3.2631,3.2362,3.2538,3.2525,3.2059,3.2109,3.2146,3.1927,3.189,3.178,3.1559,3.1535,3.1447,3.131,3.1656,3.1853,3.189,3.2073,3.2182,3.2241,3.2322,3.2242,3.193,3.2582,3.2772,3.2456,3.2954,3.3206,3.3192,3.2694,3.2018,3.1235,3.1073,3.0627,3.0032,3.0032,3.0185,3.0354,3.0362,3.0529,3.0814,3.079,3.0939,3.1191,3.1102,3.119,3.1263,3.1263,3.0877,3.0521,3.1085,3.0762,3.0336,3.0925,3.1087,3.1043,3.1043,3.1043,3.1073,3.1161,3.0732,3.0336,3.0645,3.0397,3.0074,2.9986,2.8893,2.775,2.685,2.6408,2.619,2.6297,2.5892,2.5633,2.5688,2.5481,2.5287,2.5287,2.5287,2.5287,2.5287,2.5287,2.5245,2.5104,2.5231,2.5161,2.4878,2.5105,2.5063,2.4724,2.3425,2.2687,2.2582,2.1441,2.0828,2.0739,2.0244,1.999,2.1345,2.3483,2.5438,2.6945,2.7897,2.8655,2.9229,2.9537,2.9749,3.0016,3.0374,3.0776,3.1133,3.1805,3.233,3.2576,3.2451,3.2436,3.2654,3.2386,3.2182,3.2073,3.1853,3.172,3.1609,3.1485,3.1434,3.1485,3.1743,3.189,3.189,3.2109,3.2277,3.2467,3.2525,3.2579,3.2647,3.2982,3.3066,3.2918,3.3304,3.3248,3.2792,3.2429,3.199,3.1462,3.0991,3.0543,3.0099,3.019,3.0357,3.0492,3.0672,3.0791,3.0895,3.1029,3.1146,3.1249,3.1439,3.1511,3.1597,3.1668,3.1501,3.1321,3.1607,3.1444,3.1222,3.1507,3.1597,3.1597,3.1467,3.1524,3.1492,3.1089,3.0887,3.0717,3.0488,3.0054,2.9646,2.9178,2.8228,2.736,2.6896,2.6736,2.6671,2.663,2.6578,2.6486,2.6258,2.6258,2.6231,2.6041,2.6095,2.6095,2.6014,2.6095,2.6068,2.5947,2.5987,2.5892,2.5619,2.566,2.5536,2.5231,2.4453,2.3749,2.3195,2.2631,2.1923,2.1118,2.0835,2.0579,2.0999,2.2671,2.4198,2.5911,2.7003,2.7868,2.8677,2.9231,2.9595,2.9857,3.032,3.0794,3.1003,3.1484,3.1954,3.2335,3.2224,3.2284,3.2828,3.2528,3.2241,3.2241,3.1927,3.1683,3.1683,3.1545,3.1508,3.1669,3.1853,3.1963,3.1963,3.2109,3.2336,3.2596,3.2668,3.286,3.3241,3.3326,3.3396,3.3396,3.3401,3.3109,3.2574,3.2111,3.1804,3.16,3.0973,3.0556,3.0387,3.0538,3.0732,3.094,3.1102,3.1161,3.122,3.138,3.1438,3.1467,3.1756,3.187,3.1912,3.2025,3.1959,3.1866,3.2048,3.1972,3.1866,3.2048,3.2094,3.202,3.1669,3.1695,3.1655,3.0834,3.0708,3.0635,3.0036,2.9667,2.9207,2.8412,2.7827,2.7397,2.7199,2.7192,2.7144,2.6997,2.7167,2.7167,2.6788,2.6948,2.7015,2.6762,2.6788,2.6788,2.6736,2.6788,2.6762,2.663,2.6683,2.6604,2.634,2.6299,2.615,2.5864,2.5633,2.4984,2.3968,2.382,2.3069,2.1773,2.1577,2.1146,1.9181,2.0437,2.2036,2.404,2.5325,2.6658,2.8625,2.9259,2.9696,3.0705,3.1002,3.0919,3.0454,3.0886,3.1265,3.1054,3.1632,3.2055,3.1882,3.2168,3.2381,3.2381,3.2082,3.189,3.189,3.189,3.189,3.189,3.2073,3.2182,3.2182,3.2182,3.2277,3.2417,3.2596,3.281,3.3023,3.3368,3.357,3.357,3.3152,3.3006,3.3115,3.1718,3.124,3.1478,3.0674,3.0416,3.0598,3.0598,3.0881,3.1292,3.1292,3.1365,3.1495,3.1683,3.1756,3.1784,3.194,3.2066,3.2163,3.2191,3.1845,3.1567,3.217,3.1951,3.1567,3.2185,3.237,3.2189,3.1438,3.134,3.1267,3.0591,3.0093,2.9707,2.9412,2.9336,2.9087,2.8354,2.8177,2.8088,2.798,2.7855,2.7765,2.774,2.765,2.7524,2.7361,2.7376,2.7376,2.735,2.7258,2.7233,2.735,2.7233,2.7104,2.6977,2.7222,2.7222,2.6977,2.7196,2.7258,2.7115,2.6963,2.6365,2.5301,2.4668,2.3917,2.308,2.2307,2.1528,1.908,2.0144,2.1445,2.2925,2.4218,2.5513,2.7134,2.8245,2.9189,3.0031,3.0511,3.0661,3.0355,3.0766,3.1254,3.1542,3.1739,3.2095,3.2862,3.2862,3.2739,3.2596,3.23,3.2109,3.2109,3.1963,3.1838,3.1648,3.2068,3.2231,3.1954,3.2332,3.2596,3.2775,3.2846,3.3072,3.3368,3.3675,3.3793,3.3779,3.3326,3.2877,3.2413,3.168,3.1185,3.0901,3.0699,3.0672,3.0762,3.0955,3.119,3.1437,3.1668,3.1783,3.184,3.1912,3.1968,3.2066,3.2219,3.2342,3.248,3.2594,3.2575,3.2527,3.2668,3.2667,3.2645,3.2803,3.2904,3.2775,3.1939,3.1821,3.1659,3.0591,2.9871,2.9438,2.943,2.9194,2.8916,2.8684,2.8558,2.8429,2.8381,2.8259,2.8152,2.8063,2.8014,2.7915,2.769,2.773,2.7755,2.768,2.7705,2.7705,2.7665,2.769,2.7655,2.7529,2.759,2.7435,2.6877,2.729,2.7254,2.6703,2.6652,2.6396,2.5987,2.564,2.5019,2.409,2.3277,2.2614,1.845,1.922,2.0281,2.1766,2.2782,2.3889,2.5766,2.7136,2.8187,2.8924,2.9988,3.0615,3.0218,3.0793,3.1404,3.1661,3.1742,3.2175,3.3206,3.3206,3.3037,3.2931,3.2588,3.2336,3.2264,3.2205,3.2064,3.182,3.2234,3.2382,3.2124,3.2483,3.281,3.3108,3.3178,3.3368,3.3709,3.3682,3.367,3.3656,3.3027,3.2457,3.1928,3.1542,3.117,3.0791,3.091,3.0969,3.0999,3.1248,3.1523,3.1752,3.1925,3.2066,3.2206,3.2135,3.2219,3.2342,3.2523,3.2687,3.2834,3.2935,3.3123,3.3282,3.3123,3.3256,3.3424,3.3372,3.3424,3.3254,3.2225,3.1614,3.1077,3.0298,2.9708,2.9412,2.9608,2.9314,2.9014,2.8982,2.8865,2.874,2.8684,2.8589,2.8493,2.8405,2.8396,2.8308,2.8088,2.8152,2.8177,2.8088,2.8079,2.8079,2.8063,2.8079,2.8029,2.794,2.8014,2.7841,2.7303,2.7436,2.7248,2.6666,2.6393,2.6189,2.6083,2.6107,2.5531,2.4374,2.397,2.33,0.0,0.0,0.0,2.0401,2.0942,2.1731,2.4583,2.5885,2.672,2.752,2.9388,3.069,2.9944,3.088,3.1635,3.1168,3.1604,3.2215,3.2811,3.3146,3.3297,3.3326,3.2952,3.2605,3.2426,3.2555,3.2577,3.2362,3.2541,3.2662,3.2676,3.2712,3.2868,3.3262,3.3458,3.3652,3.3839,3.3413,3.3196,3.3182,3.2259,3.1847,3.1817,3.1337,3.1146,3.1146,3.1278,3.1307,3.1322,3.1466,3.1781,3.2191,3.2066,3.2247,3.2574,3.2453,3.2492,3.2656,3.2854,3.3085,3.3309,3.315,3.3372,3.3684,3.3555,3.3607,3.3761,3.3873,3.3924,3.3602,3.2168,3.0665,2.9554,2.9681,2.9608,2.9586,2.9852,2.9697,2.945,2.9183,2.9098,2.9045,2.8865,2.8818,2.8818,2.8818,2.8818,2.8771,2.8636,2.8597,2.8597,2.8597,2.8356,2.8332,2.8573,2.8356,2.821,2.821,2.8438,2.8446,2.8149,2.7656,2.7303,2.714,2.6389,2.5855,2.5585,2.6006,2.5438,2.3987,2.4365,2.356,1.7257,0.0,0.0,0.0,0.0,0.0,2.1426,2.3047,2.4838,2.6539,2.7964,2.9117,2.9898,3.0529,3.0934,3.0874,3.1319,3.1988,3.3,3.3169,3.3286,3.3479,3.2918,3.2396,3.2187,3.1702,3.144,3.1536,3.157,3.1867,3.2451,3.2589,3.2678,3.2794,3.2673,3.261,3.2676,3.2782,3.2841,3.2841,3.2713,3.2676,3.2647,3.2046,3.1826,3.1946,3.1705,3.1611,3.1655,3.1811,3.2051,3.2342,3.2413,3.2496,3.2605,3.2703,3.2893,3.3091,3.3176,3.3346,3.3581,3.3555,3.3745,3.3975,3.3822,3.4101,3.4423,3.4472,3.4472,3.4121,3.2611,3.1063,2.9886,3.0017,3.0017,3.0033,3.0098,3.0055,2.9924,2.9592,2.9473,2.9382,2.9314,2.9307,2.9268,2.9183,2.9068,2.8975,2.8826,2.8763,2.8747,2.8747,2.8676,2.8676,2.8747,2.8676,2.8589,2.8501,2.8155,2.7643,2.7003,2.6908,2.6561,2.5843,2.5615,2.5391,2.5168,2.6057,2.6164,2.5541,2.5126,2.4033,1.7235,1.7285,1.7577,1.7631,0.0,0.0,1.9782,2.1258,2.2883,2.4469,2.5967,2.7263,2.8161,2.8965,2.9521,2.9578,3.009,3.1051,3.2674,3.2836,3.2934,3.3377,3.2656,3.2151,3.2213,3.1553,3.1157,3.1185,3.1285,3.1539,3.2092,3.2192,3.2278,3.2426,3.2266,3.2256,3.232,3.2594,3.272,3.2752,3.2707,3.2713,3.2684,3.2214,3.2064,3.2152,3.2048,3.215,3.2333,3.233,3.2398,3.2492,3.2715,3.2866,3.3,3.3123,3.3335,3.3555,3.3607,3.3797,3.405,3.4101,3.425,3.4423,3.4349,3.4546,3.4804,3.4851,3.4475,3.3775,3.2525,3.1264,3.0326,3.0338,3.0359,3.0401,3.0338,3.0359,3.0274,2.9842,2.9687,2.9614,2.9586,2.9541,2.9496,2.948,2.9366,2.9252,2.9167,2.913,2.9084,2.9084,2.9037,2.9014,2.9014,2.8967,2.8873,2.8724,2.82,2.7637,2.7112,2.6617,2.6059,2.5484,2.5126,2.4998,2.5035,2.5644,2.5788,2.5503,2.472,2.3806,1.7236,1.6777,1.6804,1.7603,1.7457,0.0,1.8934,1.9943,2.0877,2.181,2.3614,2.5143,2.5495,2.6747,2.7683,2.7598,2.8274,2.9606,3.1978,3.211,3.2245,3.299,3.2197,3.1749,3.2165,3.1673,3.1269,3.114,3.1377,3.1542,3.1608,3.164,3.1771,3.2076,3.2069,3.2136,3.2326,3.2531,3.2656,3.2719,3.2479,3.2392,3.2422,3.2232,3.2159,3.2172,3.2388,3.2715,3.3096,3.298,3.2857,3.2765,3.3054,3.3335,3.3555,3.3581,3.3713,3.3862,3.4012,3.4211,3.4431,3.4552,3.4761,3.4947,3.4947,3.497,3.5001,3.5052,3.4181,3.3051,3.2173,3.1394,3.0784,3.0613,3.0671,3.0712,3.0609,3.0671,3.0593,3.0049,2.9897,2.9848,2.9792,2.9675,2.963,2.9742,2.963,2.9541,2.9563,2.9541,2.9518,2.9518,2.9412,2.935,2.9328,2.915,2.8949,2.8818,2.8239,2.7813,2.7657,2.6408,2.5681,2.5592,2.4891,2.4673,2.5028,2.5004,2.4851,2.459,2.3792,2.3319,1.7645,1.728,1.7054,1.6714,1.6882,0.0,1.651,1.7316,1.8532,1.9786,2.1174,2.2598,2.3926,2.5124,2.5838,2.5668,2.6283,2.7806,3.0717,3.0748,3.0906,3.2227,3.1406,3.0821,3.1098,3.051,3.0277,3.0606,3.1274,3.1462,3.0984,3.1225,3.1398,3.1461,3.1205,3.1127,3.1292,3.1486,3.1796,3.2161,3.2626,3.2983,3.3184,3.3133,3.32,3.3298,3.3061,3.3038,3.3208,3.3549,3.3601,3.3487,3.3581,3.3684,3.3848,3.4075,3.3868,3.3518,3.3652,3.3794,3.3945,3.3968,3.4529,3.5222,3.5222,3.5412,3.552,3.4928,3.4245,3.3458,3.2489,3.1668,3.1114,3.1072,3.1092,3.1092,3.1072,3.1092,3.1052,3.0797,3.0489,3.0274,3.0269,3.0146,3.006,3.0098,2.9892,2.9782,2.9886,2.9748,2.9653,2.9653,2.9653,2.957,2.9473,2.8892,2.8446,2.8261,2.7195,2.6461,2.6219,2.5537,2.5111,2.4986,2.4662,2.4539,2.4637,2.477,2.4754,2.4605,2.4372,2.3843,1.7807,1.7368,1.7135,1.7115,1.6899,0.0,0.0,1.6896,1.7532,1.8759,1.9838,2.0965,2.2096,2.3243,2.3988,2.3954,2.4739,2.5993,2.7804,2.8795,2.9973,3.1662,3.0796,3.03,3.0985,3.0138,2.9716,3.0122,3.0524,3.0662,3.0472,3.0754,3.0969,3.1045,3.0967,3.0969,3.1058,3.1692,3.212,3.2367,3.2989,3.3372,3.3499,3.345,3.3447,3.3474,3.3567,3.3617,3.3662,3.3958,3.4151,3.4201,3.4126,3.4151,3.4226,3.4497,3.4453,3.4209,3.3935,3.4199,3.4597,3.4264,3.4785,3.5566,3.5566,3.5751,3.5775,3.4651,3.4168,3.3657,3.2391,3.179,3.1481,3.1366,3.1423,3.1481,3.1366,3.1385,3.1368,3.1269,3.1035,3.0797,3.0617,3.0526,3.0422,3.0359,3.03,3.0215,3.0103,3.0076,3.0033,2.9968,2.9946,2.9734,2.9198,2.8812,2.8372,2.7778,2.6818,2.6172,2.6054,2.5409,2.4966,2.4802,2.46,2.4498,2.4498,2.4545,2.4461,2.4309,2.4258,2.3903,1.7973,1.7496,1.7312,1.7928,1.7317,1.6731,0.0,0.0,0.0,1.7875,1.8703,1.9533,2.0241,2.1287,2.214,2.2339,2.3199,2.4127,2.4841,2.6607,2.8495,3.0334,2.9697,2.9508,3.0501,2.9635,2.9171,2.9673,2.9616,2.9708,2.9986,3.0404,3.0702,3.0791,3.1043,3.122,3.1278,3.2165,3.2684,3.2813,3.3285,3.3538,3.3633,3.3572,3.3529,3.3529,3.3924,3.4176,3.43,3.4374,3.457,3.4804,3.4643,3.4594,3.4643,3.4923,3.4981,3.4881,3.4359,3.4673,3.5223,3.4709,3.5145,3.5849,3.5713,3.5835,3.5717,3.4231,3.3874,3.36,3.2218,3.1873,3.1818,3.1651,3.1744,3.1818,3.1651,3.1634,3.1635,3.1614,3.1483,3.1257,3.0925,3.0838,3.0753,3.063,3.0692,3.0671,3.0422,3.0464,3.0414,3.0178,3.014,2.976,2.8795,2.8595,2.8188,2.7396,2.6627,2.6206,2.6186,2.5508,2.5029,2.4842,2.4661,2.4539,2.4518,2.4421,2.4255,2.4024,2.4024,2.3839,1.8425,1.8045,1.7944,1.8627,1.817,1.7506,1.7368,0.0,1.6383,1.6356,0.0,1.7777,1.8695,0.0,0.0,2.0776,2.1265,2.2056,2.3496,2.4217,2.5254,2.6955,2.7254,2.7496,2.8072,2.7916,2.8237,2.9272,2.8973,2.9016,2.9609,3.0366,3.0791,3.0791,3.1248,3.1596,3.1883,3.2142,3.2576,3.3217,3.3179,3.334,3.3692,3.369,3.3873,3.4176,3.4126,3.4448,3.497,3.4875,3.4994,3.5198,3.4947,3.4923,3.5065,3.5314,3.4992,3.4392,3.4435,3.4518,3.4607,3.4669,3.5356,3.6045,3.5442,3.5321,3.5094,3.3625,3.3248,3.3114,3.2281,3.2072,3.2055,3.2054,3.2037,3.2055,3.2054,3.1948,3.1912,3.2001,3.1765,3.1466,3.1193,3.1151,3.1092,3.0955,3.0955,3.0995,3.1072,3.1012,3.068,3.0007,2.992,2.9541,2.8522,2.7914,2.7441,2.715,2.6403,2.5884,2.5759,2.5445,2.5182,2.4966,2.4842,2.4706,2.4589,2.4569,2.4441,2.4166,2.4114,2.3973,2.1145,2.0969,2.067,2.0087,1.936,1.8521,1.7467,1.6888,1.6638,1.6866,0.0,0.0,0.0,0.0,0.0,0.0,2.0648,2.1179,2.1849,2.2405,2.3627,2.5964,2.6184,2.6278,2.6695,2.6859,2.7212,2.7843,2.8016,2.8405,2.91,3.0015,3.0718,3.119,3.1524,3.1868,3.2219,3.2437,3.2807,3.3309,3.3477,3.372,3.405,3.4126,3.4349,3.4643,3.4667,3.4851,3.5088,3.5128,3.5198,3.5308,3.5268,3.5268,3.536,3.5588,3.5458,3.5142,3.4831,3.4946,3.5275,3.5411,3.5827,3.6121,3.5465,3.5402,3.5227,3.3749,3.335,3.3193,3.2477,3.2267,3.2232,3.2126,3.2126,3.2144,3.2108,3.2055,3.202,3.209,3.1983,3.1838,3.1635,3.1504,3.137,3.1196,3.1274,3.131,3.121,3.1193,3.1038,3.069,3.0232,2.9602,2.8714,2.7903,2.7229,2.6669,2.6282,2.6008,2.5809,2.5715,2.5546,2.5339,2.5088,2.495,2.4875,2.4786,2.4625,2.4441,2.4405,2.4245,2.3199,2.3122,2.2688,2.1308,2.0321,1.9356,1.7985,1.7259,1.6994,1.754,1.8034,0.0,0.0,0.0,1.9862,2.0029,0.0,2.0511,2.0571,2.1069,2.2277,2.4591,2.4952,2.5239,2.5889,2.5908,2.6141,2.6737,2.6937,2.7474,2.8454,2.9351,3.0199,3.0983,3.1268,3.1665,3.223,3.2549,3.2977,3.3529,3.3873,3.4201,3.4423,3.4594,3.4811,3.5048,3.5158,3.5234,3.5344,3.5412,3.5475,3.5503,3.5611,3.5633,3.5656,3.5751,3.5817,3.5798,3.5339,3.551,3.5893,3.5779,3.6019,3.6139,3.5047,3.5053,3.5085,3.3652,3.3248,3.3125,3.258,3.2439,3.2422,3.2266,3.2266,3.2301,3.2249,3.2232,3.2214,3.2214,3.2161,3.209,3.2002,3.182,3.1635,3.1466,3.1389,3.1288,3.1079,3.11,3.1033,3.077,3.0224,2.9542,2.8723,2.7854,2.7075,2.6416,2.6347,2.6206,2.599,2.5972,2.5881,2.5642,2.5381,2.5227,2.5185,2.5084,2.4926,2.4751,2.467,2.4487,2.3535,2.3429,2.3034,2.1945,2.0823,1.979,1.9027,1.789,1.7196,1.7929,1.8309,1.8617,1.8934,1.9448,1.9888,2.0156,1.9896,0.0,0.0,2.0264,2.0822,2.1811,2.3008,2.4308,2.5662,2.4945,2.4935,2.6312,2.5838,2.6158,2.765,2.8366,2.9053,2.9741,3.0212,3.0902,3.181,3.2209,3.2974,3.4075,3.4349,3.4546,3.4707,3.497,3.5188,3.5379,3.5402,3.5605,3.5954,3.5839,3.5861,3.5975,3.5975,3.5975,3.5975,3.5839,3.5883,3.5997,3.5963,3.6062,3.6045,3.529,3.5694,3.609,3.3914,3.3909,3.4337,3.2931,3.2575,3.2623,3.2606,3.2589,3.2589,3.2589,3.2589,3.2589,3.2571,3.254,3.249,3.249,3.2318,3.2197,3.2197,3.202,3.1875,3.1783,3.1179,3.0731,3.0731,3.0731,3.042,2.9644,2.9541,2.9197,2.8372,2.7519,2.6893,2.6606,2.6606,2.6468,2.6206,2.6188,2.6028,2.5701,2.5701,2.5589,2.5397,2.5511,2.5416,2.5072,2.4886,2.4681,2.7073,2.6979,2.652,2.4826,2.4004,2.3135,2.1253,2.0846,2.0756,2.0213,2.0795,2.1177,2.0395,2.0495,2.0526,2.0144,2.0029,1.9935,0.0,1.9777,2.0048,2.0681,2.1248,2.1798,2.2369,2.2316,2.273,2.3866,2.4193,2.5018,2.6569,2.7774,2.8722,2.9419,3.0571,3.155,3.2276,3.2924,3.3682,3.4497,3.4594,3.4804,3.5088,3.5198,3.5389,3.5667,3.5667,3.58,3.5997,3.6058,3.6079,3.6144,3.6191,3.6255,3.6318,3.6191,3.6152,3.6216,3.6297,3.6356,3.6346,3.6087,3.6318,3.6379,3.4662,3.4406,3.4446,3.3083,3.2739,3.2804,3.2739,3.2771,3.2787,3.2739,3.2655,3.2622,3.2706,3.264,3.2556,3.2556,3.2473,3.2387,3.2387,3.2232,3.2055,3.1893,3.1252,3.075,3.0714,3.0231,2.9799,2.9541,2.9058,2.8662,2.8387,2.7582,2.699,2.6809,2.6809,2.6725,2.6538,2.6486,2.6399,2.6224,2.6099,2.5956,2.5791,2.5701,2.5589,2.5435,2.5262,2.497,2.9385,2.9059,2.8339,2.636,2.5733,2.5055,2.3073,2.2724,2.2711,2.2322,2.259,2.2752,2.2274,2.1717,2.1212,2.0746,2.0103,1.956,0.0,1.8945,1.9025,1.9653,2.0132,2.0514,2.0781,2.0996,2.1583,2.2649,2.3209,2.4195,2.5725,2.7026,2.8153,2.9088,3.041,3.1593,3.2629,3.3287,3.399,3.4763,3.4954,3.5165,3.5412,3.5549,3.5745,3.5949,3.6014,3.6101,3.6191,3.6314,3.6374,3.6395,3.6444,3.6527,3.6585,3.6444,3.6402,3.6444,3.6585,3.6585,3.653,3.6293,3.6501,3.6558,3.485,3.4624,3.4659,3.3298,3.2932,3.2963,3.2916,3.2932,3.2963,3.2916,3.2834,3.2802,3.2884,3.282,3.2737,3.2705,3.2657,3.2485,3.2136,3.1966,3.1812,3.1637,3.0924,3.0283,2.9955,2.9437,2.911,2.911,2.8678,2.8249,2.7925,2.7411,2.7038,2.6909,2.6926,2.6892,2.6792,2.6742,2.6657,2.6537,2.6416,2.6259,2.61,2.5992,2.583,2.5698,2.5567,2.5282]}]]